<?xml version="1.0" encoding="UTF-8" standalone="no" ?>
<gpx xmlns="http://www.topografix.com/GPX/1/1" xmlns:xsi="http://www.w3.org/2001/XMLSchema-instance" xsi:schemaLocation="http://www.topografix.com/GPX/1/1 http://www.topografix.com/GPX/1/1/gpx.xsd" version="1.1" creator="VisuGPX - https://www.visugpx.com">
  <metadata>
    <name> étapes en Corse</name>
    <desc><![CDATA[Etape 1 les Agriates
Etape 2 îles Rousse-Calvi
Etape 3  Galeria Scandola]]></desc>
  </metadata>
  <wpt lat="43.22555" lon="6.44935">
    <ele>54</ele>
    <name><![CDATA[parking]]></name>
    <desc><![CDATA[16-MAI-15 9:26:59]]></desc>
    <cmt><![CDATA[16-MAI-15 9:26:59]]></cmt>
    <type><![CDATA[user]]></type>
  </wpt>
  <wpt lat="43.23505" lon="6.4006">
    <ele>423</ele>
    <name><![CDATA[parking02]]></name>
    <desc><![CDATA[16-MAI-15 12:19:33]]></desc>
    <cmt><![CDATA[16-MAI-15 12:19:33]]></cmt>
    <type><![CDATA[user]]></type>
  </wpt>
  <wpt lat="43.21304" lon="6.4631">
    <ele>42</ele>
    <name><![CDATA[piste]]></name>
    <desc><![CDATA[Chemin]]></desc>
    <cmt><![CDATA[Chemin]]></cmt>
    <type><![CDATA[user]]></type>
  </wpt>
  <trk>
    <name><![CDATA[Tracé 002]]></name>
    <trkseg>
      <trkpt lat="43.09283" lon="6.02526">
        <ele>4.3909606933594</ele>
        <time>2017-02-27T15:08:44Z</time>
      </trkpt>
      <trkpt lat="43.09283" lon="6.02526">
        <ele>4.3928093910217</ele>
        <time>2017-02-27T15:08:46Z</time>
      </trkpt>
      <trkpt lat="43.09287" lon="6.02526">
        <ele>4.3977074623108</ele>
        <time>2017-02-27T15:09:04Z</time>
      </trkpt>
      <trkpt lat="43.09285" lon="6.02523">
        <ele>4.3699512481689</ele>
        <time>2017-02-27T15:09:06Z</time>
      </trkpt>
      <trkpt lat="43.09283" lon="6.02517">
        <ele>4.3046493530273</ele>
        <time>2017-02-27T15:09:08Z</time>
      </trkpt>
      <trkpt lat="43.09279" lon="6.02508">
        <ele>4.1573057174683</ele>
        <time>2017-02-27T15:09:11Z</time>
      </trkpt>
      <trkpt lat="43.09276" lon="6.02502">
        <ele>3.9608337879181</ele>
        <time>2017-02-27T15:09:13Z</time>
      </trkpt>
      <trkpt lat="43.09274" lon="6.02493">
        <ele>3.6809356212616</ele>
        <time>2017-02-27T15:09:16Z</time>
      </trkpt>
      <trkpt lat="43.09273" lon="6.02487">
        <ele>3.3737587928772</ele>
        <time>2017-02-27T15:09:18Z</time>
      </trkpt>
      <trkpt lat="43.09266" lon="6.02483">
        <ele>3.0716693401337</ele>
        <time>2017-02-27T15:09:21Z</time>
      </trkpt>
      <trkpt lat="43.09259" lon="6.02483">
        <ele>2.8353676795959</ele>
        <time>2017-02-27T15:09:24Z</time>
      </trkpt>
      <trkpt lat="43.09253" lon="6.02483">
        <ele>2.6403093338013</ele>
        <time>2017-02-27T15:09:26Z</time>
      </trkpt>
      <trkpt lat="43.09248" lon="6.02485">
        <ele>2.528110742569</ele>
        <time>2017-02-27T15:09:28Z</time>
      </trkpt>
      <trkpt lat="43.09244" lon="6.02487">
        <ele>2.4827365875244</ele>
        <time>2017-02-27T15:09:30Z</time>
      </trkpt>
      <trkpt lat="43.0924" lon="6.02489">
        <ele>2.4995992183685</ele>
        <time>2017-02-27T15:09:32Z</time>
      </trkpt>
      <trkpt lat="43.09235" lon="6.02492">
        <ele>2.5490219593048</ele>
        <time>2017-02-27T15:09:35Z</time>
      </trkpt>
      <trkpt lat="43.09233" lon="6.02491">
        <ele>2.5960693359375</ele>
        <time>2017-02-27T15:09:37Z</time>
      </trkpt>
      <trkpt lat="43.09227" lon="6.02488">
        <ele>2.622802734375</ele>
        <time>2017-02-27T15:09:40Z</time>
      </trkpt>
      <trkpt lat="43.09222" lon="6.0249">
        <ele>2.644775390625</ele>
        <time>2017-02-27T15:09:42Z</time>
      </trkpt>
      <trkpt lat="43.09217" lon="6.0249">
        <ele>2.65283203125</ele>
        <time>2017-02-27T15:09:44Z</time>
      </trkpt>
      <trkpt lat="43.09211" lon="6.0249">
        <ele>2.6370849609375</ele>
        <time>2017-02-27T15:09:47Z</time>
      </trkpt>
      <trkpt lat="43.09206" lon="6.0249">
        <ele>2.630126953125</ele>
        <time>2017-02-27T15:09:49Z</time>
      </trkpt>
      <trkpt lat="43.09199" lon="6.0249">
        <ele>2.6407470703125</ele>
        <time>2017-02-27T15:09:52Z</time>
      </trkpt>
      <trkpt lat="43.09192" lon="6.02489">
        <ele>2.6363525390625</ele>
        <time>2017-02-27T15:09:55Z</time>
      </trkpt>
      <trkpt lat="43.09187" lon="6.02489">
        <ele>2.62646484375</ele>
        <time>2017-02-27T15:09:57Z</time>
      </trkpt>
      <trkpt lat="43.0918" lon="6.02489">
        <ele>2.6180419921875</ele>
        <time>2017-02-27T15:10:00Z</time>
      </trkpt>
      <trkpt lat="43.09174" lon="6.02487">
        <ele>2.59423828125</ele>
        <time>2017-02-27T15:10:03Z</time>
      </trkpt>
      <trkpt lat="43.09167" lon="6.02483">
        <ele>2.543701171875</ele>
        <time>2017-02-27T15:10:06Z</time>
      </trkpt>
      <trkpt lat="43.09162" lon="6.02481">
        <ele>2.5157361030579</ele>
        <time>2017-02-27T15:10:08Z</time>
      </trkpt>
      <trkpt lat="43.09155" lon="6.02477">
        <ele>2.508026599884</ele>
        <time>2017-02-27T15:10:11Z</time>
      </trkpt>
      <trkpt lat="43.09151" lon="6.02474">
        <ele>2.4981255531311</ele>
        <time>2017-02-27T15:10:13Z</time>
      </trkpt>
      <trkpt lat="43.09145" lon="6.02468">
        <ele>2.4979043006897</ele>
        <time>2017-02-27T15:10:16Z</time>
      </trkpt>
      <trkpt lat="43.09139" lon="6.02462">
        <ele>2.5174243450165</ele>
        <time>2017-02-27T15:10:19Z</time>
      </trkpt>
      <trkpt lat="43.09132" lon="6.02458">
        <ele>2.5252735614777</ele>
        <time>2017-02-27T15:10:22Z</time>
      </trkpt>
      <trkpt lat="43.09128" lon="6.02456">
        <ele>2.5254867076874</ele>
        <time>2017-02-27T15:10:24Z</time>
      </trkpt>
      <trkpt lat="43.09121" lon="6.02454">
        <ele>2.5507843494415</ele>
        <time>2017-02-27T15:10:27Z</time>
      </trkpt>
      <trkpt lat="43.09118" lon="6.02453">
        <ele>2.5967917442322</ele>
        <time>2017-02-27T15:10:29Z</time>
      </trkpt>
      <trkpt lat="43.09113" lon="6.02453">
        <ele>2.6703145503998</ele>
        <time>2017-02-27T15:10:31Z</time>
      </trkpt>
      <trkpt lat="43.09107" lon="6.02454">
        <ele>2.783812046051</ele>
        <time>2017-02-27T15:10:34Z</time>
      </trkpt>
      <trkpt lat="43.09102" lon="6.02458">
        <ele>2.9556479454041</ele>
        <time>2017-02-27T15:10:37Z</time>
      </trkpt>
      <trkpt lat="43.09098" lon="6.02459">
        <ele>3.1406142711639</ele>
        <time>2017-02-27T15:10:39Z</time>
      </trkpt>
      <trkpt lat="43.09092" lon="6.02459">
        <ele>3.344738483429</ele>
        <time>2017-02-27T15:10:42Z</time>
      </trkpt>
      <trkpt lat="43.09088" lon="6.02458">
        <ele>3.5439038276672</ele>
        <time>2017-02-27T15:10:44Z</time>
      </trkpt>
      <trkpt lat="43.09084" lon="6.02457">
        <ele>3.7087581157684</ele>
        <time>2017-02-27T15:10:46Z</time>
      </trkpt>
      <trkpt lat="43.0908" lon="6.02456">
        <ele>3.8271744251251</ele>
        <time>2017-02-27T15:10:48Z</time>
      </trkpt>
      <trkpt lat="43.09075" lon="6.02452">
        <ele>3.9124503135681</ele>
        <time>2017-02-27T15:10:51Z</time>
      </trkpt>
      <trkpt lat="43.0907" lon="6.02448">
        <ele>3.9692935943604</ele>
        <time>2017-02-27T15:10:54Z</time>
      </trkpt>
      <trkpt lat="43.09066" lon="6.02442">
        <ele>3.9735767841339</ele>
        <time>2017-02-27T15:10:57Z</time>
      </trkpt>
      <trkpt lat="43.09063" lon="6.02436">
        <ele>3.9382081031799</ele>
        <time>2017-02-27T15:11:00Z</time>
      </trkpt>
      <trkpt lat="43.09058" lon="6.02434">
        <ele>3.8948554992676</ele>
        <time>2017-02-27T15:11:03Z</time>
      </trkpt>
      <trkpt lat="43.09052" lon="6.02432">
        <ele>3.8781306743622</ele>
        <time>2017-02-27T15:11:06Z</time>
      </trkpt>
      <trkpt lat="43.09048" lon="6.02429">
        <ele>3.851416349411</ele>
        <time>2017-02-27T15:11:08Z</time>
      </trkpt>
      <trkpt lat="43.09042" lon="6.02425">
        <ele>3.8620872497559</ele>
        <time>2017-02-27T15:11:11Z</time>
      </trkpt>
      <trkpt lat="43.09036" lon="6.02421">
        <ele>3.8969070911407</ele>
        <time>2017-02-27T15:11:14Z</time>
      </trkpt>
      <trkpt lat="43.09032" lon="6.02418">
        <ele>3.9192187786102</ele>
        <time>2017-02-27T15:11:16Z</time>
      </trkpt>
      <trkpt lat="43.09029" lon="6.02415">
        <ele>3.9079284667969</ele>
        <time>2017-02-27T15:11:18Z</time>
      </trkpt>
      <trkpt lat="43.09024" lon="6.02412">
        <ele>3.9166569709778</ele>
        <time>2017-02-27T15:11:21Z</time>
      </trkpt>
      <trkpt lat="43.09021" lon="6.02409">
        <ele>3.934086561203</ele>
        <time>2017-02-27T15:11:23Z</time>
      </trkpt>
      <trkpt lat="43.09016" lon="6.02404">
        <ele>3.9563159942627</ele>
        <time>2017-02-27T15:11:26Z</time>
      </trkpt>
      <trkpt lat="43.0901" lon="6.024">
        <ele>3.9865074157715</ele>
        <time>2017-02-27T15:11:29Z</time>
      </trkpt>
      <trkpt lat="43.09007" lon="6.02394">
        <ele>3.9988262653351</ele>
        <time>2017-02-27T15:11:32Z</time>
      </trkpt>
      <trkpt lat="43.09005" lon="6.02389">
        <ele>3.9748268127441</ele>
        <time>2017-02-27T15:11:34Z</time>
      </trkpt>
      <trkpt lat="43.09" lon="6.02383">
        <ele>3.9320373535156</ele>
        <time>2017-02-27T15:11:37Z</time>
      </trkpt>
      <trkpt lat="43.08998" lon="6.02377">
        <ele>3.8924884796143</ele>
        <time>2017-02-27T15:11:40Z</time>
      </trkpt>
      <trkpt lat="43.08996" lon="6.02373">
        <ele>3.8717243671417</ele>
        <time>2017-02-27T15:11:42Z</time>
      </trkpt>
      <trkpt lat="43.08992" lon="6.0237">
        <ele>3.9473547935486</ele>
        <time>2017-02-27T15:11:45Z</time>
      </trkpt>
      <trkpt lat="43.08987" lon="6.02368">
        <ele>4.1705484390259</ele>
        <time>2017-02-27T15:11:48Z</time>
      </trkpt>
      <trkpt lat="43.08982" lon="6.02365">
        <ele>4.5132055282593</ele>
        <time>2017-02-27T15:11:51Z</time>
      </trkpt>
      <trkpt lat="43.0898" lon="6.02362">
        <ele>4.8873505592346</ele>
        <time>2017-02-27T15:11:54Z</time>
      </trkpt>
      <trkpt lat="43.08981" lon="6.02356">
        <ele>5.1553530693054</ele>
        <time>2017-02-27T15:11:56Z</time>
      </trkpt>
      <trkpt lat="43.08981" lon="6.02349">
        <ele>5.2854061126709</ele>
        <time>2017-02-27T15:11:58Z</time>
      </trkpt>
      <trkpt lat="43.08978" lon="6.02343">
        <ele>5.3125143051147</ele>
        <time>2017-02-27T15:12:01Z</time>
      </trkpt>
      <trkpt lat="43.08972" lon="6.02344">
        <ele>5.3963565826416</ele>
        <time>2017-02-27T15:12:04Z</time>
      </trkpt>
      <trkpt lat="43.08966" lon="6.02349">
        <ele>5.6351327896118</ele>
        <time>2017-02-27T15:12:07Z</time>
      </trkpt>
      <trkpt lat="43.08963" lon="6.02352">
        <ele>6.0492043495178</ele>
        <time>2017-02-27T15:12:09Z</time>
      </trkpt>
      <trkpt lat="43.0896" lon="6.02355">
        <ele>6.6455698013306</ele>
        <time>2017-02-27T15:12:11Z</time>
      </trkpt>
      <trkpt lat="43.08958" lon="6.02358">
        <ele>7.3132810592651</ele>
        <time>2017-02-27T15:12:13Z</time>
      </trkpt>
      <trkpt lat="43.08955" lon="6.0236">
        <ele>7.9009809494019</ele>
        <time>2017-02-27T15:12:15Z</time>
      </trkpt>
      <trkpt lat="43.08949" lon="6.02361">
        <ele>8.4555740356445</ele>
        <time>2017-02-27T15:12:18Z</time>
      </trkpt>
      <trkpt lat="43.08944" lon="6.02363">
        <ele>9.0779161453247</ele>
        <time>2017-02-27T15:12:21Z</time>
      </trkpt>
      <trkpt lat="43.08938" lon="6.02366">
        <ele>9.7727890014648</ele>
        <time>2017-02-27T15:12:24Z</time>
      </trkpt>
      <trkpt lat="43.08935" lon="6.02369">
        <ele>10.495443344116</ele>
        <time>2017-02-27T15:12:26Z</time>
      </trkpt>
      <trkpt lat="43.08932" lon="6.02371">
        <ele>11.236613273621</ele>
        <time>2017-02-27T15:12:28Z</time>
      </trkpt>
      <trkpt lat="43.08928" lon="6.02374">
        <ele>11.979928016663</ele>
        <time>2017-02-27T15:12:31Z</time>
      </trkpt>
      <trkpt lat="43.08924" lon="6.02376">
        <ele>12.704580307007</ele>
        <time>2017-02-27T15:12:34Z</time>
      </trkpt>
      <trkpt lat="43.0892" lon="6.02377">
        <ele>13.350555419922</ele>
        <time>2017-02-27T15:12:37Z</time>
      </trkpt>
      <trkpt lat="43.08916" lon="6.02376">
        <ele>13.984362602234</ele>
        <time>2017-02-27T15:12:40Z</time>
      </trkpt>
      <trkpt lat="43.08914" lon="6.02373">
        <ele>14.586239814758</ele>
        <time>2017-02-27T15:12:42Z</time>
      </trkpt>
      <trkpt lat="43.08912" lon="6.0237">
        <ele>15.089637756348</ele>
        <time>2017-02-27T15:12:44Z</time>
      </trkpt>
      <trkpt lat="43.08911" lon="6.02364">
        <ele>15.425994873047</ele>
        <time>2017-02-27T15:12:47Z</time>
      </trkpt>
      <trkpt lat="43.08908" lon="6.02359">
        <ele>15.726936340332</ele>
        <time>2017-02-27T15:12:50Z</time>
      </trkpt>
      <trkpt lat="43.08906" lon="6.0235">
        <ele>15.871618270874</ele>
        <time>2017-02-27T15:12:53Z</time>
      </trkpt>
      <trkpt lat="43.08905" lon="6.02342">
        <ele>15.883962631226</ele>
        <time>2017-02-27T15:12:55Z</time>
      </trkpt>
      <trkpt lat="43.08905" lon="6.02336">
        <ele>15.77804851532</ele>
        <time>2017-02-27T15:12:57Z</time>
      </trkpt>
      <trkpt lat="43.08901" lon="6.02327">
        <ele>15.655700683594</ele>
        <time>2017-02-27T15:13:00Z</time>
      </trkpt>
      <trkpt lat="43.08895" lon="6.02323">
        <ele>15.659489631653</ele>
        <time>2017-02-27T15:13:03Z</time>
      </trkpt>
      <trkpt lat="43.08889" lon="6.02322">
        <ele>15.949480056763</ele>
        <time>2017-02-27T15:13:06Z</time>
      </trkpt>
      <trkpt lat="43.08885" lon="6.02322">
        <ele>16.545928955078</ele>
        <time>2017-02-27T15:13:08Z</time>
      </trkpt>
      <trkpt lat="43.08878" lon="6.02322">
        <ele>17.557674407959</ele>
        <time>2017-02-27T15:13:11Z</time>
      </trkpt>
      <trkpt lat="43.08873" lon="6.02321">
        <ele>18.84229850769</ele>
        <time>2017-02-27T15:13:14Z</time>
      </trkpt>
      <trkpt lat="43.08867" lon="6.0232">
        <ele>20.156692504883</ele>
        <time>2017-02-27T15:13:17Z</time>
      </trkpt>
      <trkpt lat="43.08862" lon="6.0232">
        <ele>21.4772605896</ele>
        <time>2017-02-27T15:13:20Z</time>
      </trkpt>
      <trkpt lat="43.08857" lon="6.02319">
        <ele>22.798803329468</ele>
        <time>2017-02-27T15:13:23Z</time>
      </trkpt>
      <trkpt lat="43.08852" lon="6.02316">
        <ele>23.907642364502</ele>
        <time>2017-02-27T15:13:26Z</time>
      </trkpt>
      <trkpt lat="43.08849" lon="6.02312">
        <ele>24.800931930542</ele>
        <time>2017-02-27T15:13:29Z</time>
      </trkpt>
      <trkpt lat="43.08845" lon="6.02309">
        <ele>25.551385879517</ele>
        <time>2017-02-27T15:13:32Z</time>
      </trkpt>
      <trkpt lat="43.08843" lon="6.02307">
        <ele>26.041625976562</ele>
        <time>2017-02-27T15:13:34Z</time>
      </trkpt>
      <trkpt lat="43.0884" lon="6.02303">
        <ele>26.277383804321</ele>
        <time>2017-02-27T15:13:37Z</time>
      </trkpt>
      <trkpt lat="43.08838" lon="6.02299">
        <ele>26.356597900391</ele>
        <time>2017-02-27T15:13:39Z</time>
      </trkpt>
      <trkpt lat="43.08836" lon="6.02295">
        <ele>26.339008331299</ele>
        <time>2017-02-27T15:13:41Z</time>
      </trkpt>
      <trkpt lat="43.08835" lon="6.02292">
        <ele>26.177799224854</ele>
        <time>2017-02-27T15:13:43Z</time>
      </trkpt>
      <trkpt lat="43.08831" lon="6.02288">
        <ele>26.04280090332</ele>
        <time>2017-02-27T15:13:46Z</time>
      </trkpt>
      <trkpt lat="43.08829" lon="6.02283">
        <ele>25.8327293396</ele>
        <time>2017-02-27T15:13:49Z</time>
      </trkpt>
      <trkpt lat="43.08828" lon="6.02276">
        <ele>25.42112159729</ele>
        <time>2017-02-27T15:13:52Z</time>
      </trkpt>
      <trkpt lat="43.08826" lon="6.02269">
        <ele>24.887619018555</ele>
        <time>2017-02-27T15:13:55Z</time>
      </trkpt>
      <trkpt lat="43.08823" lon="6.02266">
        <ele>24.395053863525</ele>
        <time>2017-02-27T15:13:57Z</time>
      </trkpt>
      <trkpt lat="43.08819" lon="6.02262">
        <ele>23.938882827759</ele>
        <time>2017-02-27T15:14:00Z</time>
      </trkpt>
      <trkpt lat="43.08815" lon="6.02256">
        <ele>23.49063873291</ele>
        <time>2017-02-27T15:14:03Z</time>
      </trkpt>
      <trkpt lat="43.08814" lon="6.02252">
        <ele>23.182191848755</ele>
        <time>2017-02-27T15:14:05Z</time>
      </trkpt>
      <trkpt lat="43.08812" lon="6.02248">
        <ele>22.989177703857</ele>
        <time>2017-02-27T15:14:07Z</time>
      </trkpt>
      <trkpt lat="43.08809" lon="6.02242">
        <ele>22.755071640015</ele>
        <time>2017-02-27T15:14:10Z</time>
      </trkpt>
      <trkpt lat="43.08807" lon="6.02238">
        <ele>22.409973144531</ele>
        <time>2017-02-27T15:14:12Z</time>
      </trkpt>
      <trkpt lat="43.08802" lon="6.02232">
        <ele>22.099710464478</ele>
        <time>2017-02-27T15:14:15Z</time>
      </trkpt>
      <trkpt lat="43.08797" lon="6.02229">
        <ele>21.931671142578</ele>
        <time>2017-02-27T15:14:18Z</time>
      </trkpt>
      <trkpt lat="43.08794" lon="6.02227">
        <ele>21.908008575439</ele>
        <time>2017-02-27T15:14:20Z</time>
      </trkpt>
      <trkpt lat="43.08789" lon="6.02222">
        <ele>21.954730987549</ele>
        <time>2017-02-27T15:14:23Z</time>
      </trkpt>
      <trkpt lat="43.08784" lon="6.02218">
        <ele>22.122119903564</ele>
        <time>2017-02-27T15:14:26Z</time>
      </trkpt>
      <trkpt lat="43.08778" lon="6.02216">
        <ele>22.481716156006</ele>
        <time>2017-02-27T15:14:29Z</time>
      </trkpt>
      <trkpt lat="43.08773" lon="6.02212">
        <ele>22.802707672119</ele>
        <time>2017-02-27T15:14:32Z</time>
      </trkpt>
      <trkpt lat="43.0877" lon="6.02208">
        <ele>23.029714584351</ele>
        <time>2017-02-27T15:14:34Z</time>
      </trkpt>
      <trkpt lat="43.08767" lon="6.02202">
        <ele>23.097856521606</ele>
        <time>2017-02-27T15:14:37Z</time>
      </trkpt>
      <trkpt lat="43.08765" lon="6.02197">
        <ele>22.994655609131</ele>
        <time>2017-02-27T15:14:39Z</time>
      </trkpt>
      <trkpt lat="43.08763" lon="6.02193">
        <ele>22.601064682007</ele>
        <time>2017-02-27T15:14:41Z</time>
      </trkpt>
      <trkpt lat="43.08761" lon="6.02189">
        <ele>22.0885887146</ele>
        <time>2017-02-27T15:14:43Z</time>
      </trkpt>
      <trkpt lat="43.08757" lon="6.02183">
        <ele>21.465799331665</ele>
        <time>2017-02-27T15:14:46Z</time>
      </trkpt>
      <trkpt lat="43.08757" lon="6.02177">
        <ele>20.748426437378</ele>
        <time>2017-02-27T15:14:48Z</time>
      </trkpt>
      <trkpt lat="43.08755" lon="6.02172">
        <ele>19.984470367432</ele>
        <time>2017-02-27T15:14:51Z</time>
      </trkpt>
      <trkpt lat="43.08755" lon="6.02168">
        <ele>19.199993133545</ele>
        <time>2017-02-27T15:14:54Z</time>
      </trkpt>
      <trkpt lat="43.08756" lon="6.02166">
        <ele>18.373399734497</ele>
        <time>2017-02-27T15:14:56Z</time>
      </trkpt>
      <trkpt lat="43.08757" lon="6.02164">
        <ele>17.574672698975</ele>
        <time>2017-02-27T15:14:58Z</time>
      </trkpt>
      <trkpt lat="43.08756" lon="6.02161">
        <ele>16.92746925354</ele>
        <time>2017-02-27T15:15:00Z</time>
      </trkpt>
      <trkpt lat="43.08757" lon="6.02157">
        <ele>16.29793548584</ele>
        <time>2017-02-27T15:15:03Z</time>
      </trkpt>
      <trkpt lat="43.0876" lon="6.02153">
        <ele>15.547360420227</ele>
        <time>2017-02-27T15:15:06Z</time>
      </trkpt>
      <trkpt lat="43.08762" lon="6.02148">
        <ele>14.736692428589</ele>
        <time>2017-02-27T15:15:09Z</time>
      </trkpt>
      <trkpt lat="43.08762" lon="6.02146">
        <ele>13.970072746277</ele>
        <time>2017-02-27T15:15:11Z</time>
      </trkpt>
      <trkpt lat="43.08761" lon="6.0214">
        <ele>13.111131668091</ele>
        <time>2017-02-27T15:15:14Z</time>
      </trkpt>
      <trkpt lat="43.08758" lon="6.02138">
        <ele>12.394328117371</ele>
        <time>2017-02-27T15:15:16Z</time>
      </trkpt>
      <trkpt lat="43.08751" lon="6.02138">
        <ele>12.147070884705</ele>
        <time>2017-02-27T15:15:19Z</time>
      </trkpt>
      <trkpt lat="43.08744" lon="6.02141">
        <ele>12.156775474548</ele>
        <time>2017-02-27T15:15:22Z</time>
      </trkpt>
      <trkpt lat="43.0874" lon="6.0214">
        <ele>12.183064460754</ele>
        <time>2017-02-27T15:15:24Z</time>
      </trkpt>
      <trkpt lat="43.08735" lon="6.02138">
        <ele>12.25427532196</ele>
        <time>2017-02-27T15:15:26Z</time>
      </trkpt>
      <trkpt lat="43.08731" lon="6.02136">
        <ele>12.227830886841</ele>
        <time>2017-02-27T15:15:28Z</time>
      </trkpt>
      <trkpt lat="43.08726" lon="6.02134">
        <ele>11.914529800415</ele>
        <time>2017-02-27T15:15:31Z</time>
      </trkpt>
      <trkpt lat="43.08721" lon="6.02133">
        <ele>11.438953399658</ele>
        <time>2017-02-27T15:15:34Z</time>
      </trkpt>
      <trkpt lat="43.08716" lon="6.02132">
        <ele>10.955099105835</ele>
        <time>2017-02-27T15:15:36Z</time>
      </trkpt>
      <trkpt lat="43.0871" lon="6.02133">
        <ele>10.599813461304</ele>
        <time>2017-02-27T15:15:39Z</time>
      </trkpt>
      <trkpt lat="43.08706" lon="6.02138">
        <ele>10.485272407532</ele>
        <time>2017-02-27T15:15:42Z</time>
      </trkpt>
      <trkpt lat="43.08702" lon="6.02142">
        <ele>10.546969413757</ele>
        <time>2017-02-27T15:15:44Z</time>
      </trkpt>
      <trkpt lat="43.08698" lon="6.02149">
        <ele>10.894132614136</ele>
        <time>2017-02-27T15:15:47Z</time>
      </trkpt>
      <trkpt lat="43.08694" lon="6.02156">
        <ele>11.474764823914</ele>
        <time>2017-02-27T15:15:50Z</time>
      </trkpt>
      <trkpt lat="43.08691" lon="6.0216">
        <ele>12.152948379517</ele>
        <time>2017-02-27T15:15:52Z</time>
      </trkpt>
      <trkpt lat="43.08688" lon="6.02165">
        <ele>12.782098770142</ele>
        <time>2017-02-27T15:15:54Z</time>
      </trkpt>
      <trkpt lat="43.08685" lon="6.0217">
        <ele>13.496539115906</ele>
        <time>2017-02-27T15:15:57Z</time>
      </trkpt>
      <trkpt lat="43.08681" lon="6.02173">
        <ele>14.090341567993</ele>
        <time>2017-02-27T15:15:59Z</time>
      </trkpt>
      <trkpt lat="43.08677" lon="6.02174">
        <ele>14.494334220886</ele>
        <time>2017-02-27T15:16:01Z</time>
      </trkpt>
      <trkpt lat="43.08673" lon="6.02174">
        <ele>14.761362075806</ele>
        <time>2017-02-27T15:16:03Z</time>
      </trkpt>
      <trkpt lat="43.08669" lon="6.02177">
        <ele>14.994592666626</ele>
        <time>2017-02-27T15:16:06Z</time>
      </trkpt>
      <trkpt lat="43.08666" lon="6.0218">
        <ele>15.157528877258</ele>
        <time>2017-02-27T15:16:08Z</time>
      </trkpt>
      <trkpt lat="43.08661" lon="6.02185">
        <ele>15.358401298523</ele>
        <time>2017-02-27T15:16:11Z</time>
      </trkpt>
      <trkpt lat="43.08654" lon="6.02185">
        <ele>15.523898124695</ele>
        <time>2017-02-27T15:16:14Z</time>
      </trkpt>
      <trkpt lat="43.08651" lon="6.02184">
        <ele>15.660700798035</ele>
        <time>2017-02-27T15:16:16Z</time>
      </trkpt>
      <trkpt lat="43.08646" lon="6.02182">
        <ele>15.629880905151</ele>
        <time>2017-02-27T15:16:19Z</time>
      </trkpt>
      <trkpt lat="43.08643" lon="6.02179">
        <ele>15.374020576477</ele>
        <time>2017-02-27T15:16:22Z</time>
      </trkpt>
      <trkpt lat="43.08639" lon="6.02175">
        <ele>14.845176696777</ele>
        <time>2017-02-27T15:16:25Z</time>
      </trkpt>
      <trkpt lat="43.08634" lon="6.0217">
        <ele>14.213307380676</ele>
        <time>2017-02-27T15:16:28Z</time>
      </trkpt>
      <trkpt lat="43.0863" lon="6.02167">
        <ele>13.539030075073</ele>
        <time>2017-02-27T15:16:31Z</time>
      </trkpt>
      <trkpt lat="43.08627" lon="6.02163">
        <ele>12.878793716431</ele>
        <time>2017-02-27T15:16:34Z</time>
      </trkpt>
      <trkpt lat="43.08622" lon="6.02159">
        <ele>12.239049911499</ele>
        <time>2017-02-27T15:16:37Z</time>
      </trkpt>
      <trkpt lat="43.08619" lon="6.02157">
        <ele>11.706118583679</ele>
        <time>2017-02-27T15:16:39Z</time>
      </trkpt>
      <trkpt lat="43.08613" lon="6.02153">
        <ele>11.219365119934</ele>
        <time>2017-02-27T15:16:42Z</time>
      </trkpt>
      <trkpt lat="43.08607" lon="6.0215">
        <ele>10.777159690857</ele>
        <time>2017-02-27T15:16:45Z</time>
      </trkpt>
      <trkpt lat="43.08604" lon="6.02148">
        <ele>10.381340026855</ele>
        <time>2017-02-27T15:16:47Z</time>
      </trkpt>
      <trkpt lat="43.08601" lon="6.02142">
        <ele>9.976692199707</ele>
        <time>2017-02-27T15:16:50Z</time>
      </trkpt>
      <trkpt lat="43.08598" lon="6.02136">
        <ele>9.5065174102783</ele>
        <time>2017-02-27T15:16:53Z</time>
      </trkpt>
      <trkpt lat="43.08596" lon="6.02128">
        <ele>9.0041065216064</ele>
        <time>2017-02-27T15:16:56Z</time>
      </trkpt>
      <trkpt lat="43.08596" lon="6.02119">
        <ele>8.4133100509644</ele>
        <time>2017-02-27T15:16:59Z</time>
      </trkpt>
      <trkpt lat="43.08598" lon="6.02113">
        <ele>7.7589263916016</ele>
        <time>2017-02-27T15:17:01Z</time>
      </trkpt>
      <trkpt lat="43.08598" lon="6.02108">
        <ele>7.1137161254883</ele>
        <time>2017-02-27T15:17:03Z</time>
      </trkpt>
      <trkpt lat="43.08598" lon="6.02101">
        <ele>6.4805808067322</ele>
        <time>2017-02-27T15:17:05Z</time>
      </trkpt>
      <trkpt lat="43.08596" lon="6.02093">
        <ele>5.830183506012</ele>
        <time>2017-02-27T15:17:08Z</time>
      </trkpt>
      <trkpt lat="43.08595" lon="6.02087">
        <ele>5.2508025169373</ele>
        <time>2017-02-27T15:17:10Z</time>
      </trkpt>
      <trkpt lat="43.0859" lon="6.0208">
        <ele>4.7028388977051</ele>
        <time>2017-02-27T15:17:13Z</time>
      </trkpt>
      <trkpt lat="43.08585" lon="6.02075">
        <ele>4.2361402511597</ele>
        <time>2017-02-27T15:17:16Z</time>
      </trkpt>
      <trkpt lat="43.0858" lon="6.02073">
        <ele>3.903911113739</ele>
        <time>2017-02-27T15:17:18Z</time>
      </trkpt>
      <trkpt lat="43.08572" lon="6.02075">
        <ele>3.8111274242401</ele>
        <time>2017-02-27T15:17:21Z</time>
      </trkpt>
      <trkpt lat="43.08567" lon="6.02076">
        <ele>3.8736774921417</ele>
        <time>2017-02-27T15:17:23Z</time>
      </trkpt>
      <trkpt lat="43.08561" lon="6.02077">
        <ele>4.0880007743835</ele>
        <time>2017-02-27T15:17:26Z</time>
      </trkpt>
      <trkpt lat="43.08556" lon="6.02076">
        <ele>4.3598761558533</ele>
        <time>2017-02-27T15:17:28Z</time>
      </trkpt>
      <trkpt lat="43.08552" lon="6.02074">
        <ele>4.6196365356445</ele>
        <time>2017-02-27T15:17:30Z</time>
      </trkpt>
      <trkpt lat="43.08547" lon="6.02069">
        <ele>4.7867088317871</ele>
        <time>2017-02-27T15:17:33Z</time>
      </trkpt>
      <trkpt lat="43.08544" lon="6.02065">
        <ele>4.8755292892456</ele>
        <time>2017-02-27T15:17:35Z</time>
      </trkpt>
      <trkpt lat="43.0854" lon="6.02063">
        <ele>4.8968725204468</ele>
        <time>2017-02-27T15:17:37Z</time>
      </trkpt>
      <trkpt lat="43.08534" lon="6.02062">
        <ele>4.9200987815857</ele>
        <time>2017-02-27T15:17:40Z</time>
      </trkpt>
      <trkpt lat="43.08528" lon="6.0206">
        <ele>4.9617409706116</ele>
        <time>2017-02-27T15:17:43Z</time>
      </trkpt>
      <trkpt lat="43.08524" lon="6.02061">
        <ele>5.057062625885</ele>
        <time>2017-02-27T15:17:45Z</time>
      </trkpt>
      <trkpt lat="43.08517" lon="6.02063">
        <ele>5.2503595352173</ele>
        <time>2017-02-27T15:17:48Z</time>
      </trkpt>
      <trkpt lat="43.08514" lon="6.02065">
        <ele>5.4987473487854</ele>
        <time>2017-02-27T15:17:50Z</time>
      </trkpt>
      <trkpt lat="43.08508" lon="6.0207">
        <ele>5.8305191993713</ele>
        <time>2017-02-27T15:17:53Z</time>
      </trkpt>
      <trkpt lat="43.08504" lon="6.02073">
        <ele>6.2081637382507</ele>
        <time>2017-02-27T15:17:55Z</time>
      </trkpt>
      <trkpt lat="43.085" lon="6.02079">
        <ele>6.6737661361694</ele>
        <time>2017-02-27T15:17:58Z</time>
      </trkpt>
      <trkpt lat="43.08497" lon="6.02083">
        <ele>7.1307768821716</ele>
        <time>2017-02-27T15:18:00Z</time>
      </trkpt>
      <trkpt lat="43.08492" lon="6.02084">
        <ele>7.5727005004883</ele>
        <time>2017-02-27T15:18:03Z</time>
      </trkpt>
      <trkpt lat="43.08486" lon="6.02084">
        <ele>7.95201587677</ele>
        <time>2017-02-27T15:18:06Z</time>
      </trkpt>
      <trkpt lat="43.08482" lon="6.02091">
        <ele>8.3775281906128</ele>
        <time>2017-02-27T15:18:09Z</time>
      </trkpt>
      <trkpt lat="43.08478" lon="6.02099">
        <ele>8.785135269165</ele>
        <time>2017-02-27T15:18:12Z</time>
      </trkpt>
      <trkpt lat="43.08477" lon="6.02103">
        <ele>9.1697616577148</ele>
        <time>2017-02-27T15:18:14Z</time>
      </trkpt>
      <trkpt lat="43.08474" lon="6.02109">
        <ele>9.5935316085815</ele>
        <time>2017-02-27T15:18:18Z</time>
      </trkpt>
      <trkpt lat="43.08474" lon="6.02118">
        <ele>10.059350967407</ele>
        <time>2017-02-27T15:18:20Z</time>
      </trkpt>
      <trkpt lat="43.08473" lon="6.02124">
        <ele>10.479700088501</ele>
        <time>2017-02-27T15:18:23Z</time>
      </trkpt>
      <trkpt lat="43.0847" lon="6.02128">
        <ele>10.832064628601</ele>
        <time>2017-02-27T15:18:26Z</time>
      </trkpt>
      <trkpt lat="43.08469" lon="6.02132">
        <ele>11.161898612976</ele>
        <time>2017-02-27T15:18:28Z</time>
      </trkpt>
      <trkpt lat="43.08467" lon="6.02135">
        <ele>11.439437866211</ele>
        <time>2017-02-27T15:18:30Z</time>
      </trkpt>
      <trkpt lat="43.08466" lon="6.0214">
        <ele>11.664378166199</ele>
        <time>2017-02-27T15:18:32Z</time>
      </trkpt>
      <trkpt lat="43.08464" lon="6.02148">
        <ele>11.881547927856</ele>
        <time>2017-02-27T15:18:35Z</time>
      </trkpt>
      <trkpt lat="43.08464" lon="6.02152">
        <ele>12.094453811646</ele>
        <time>2017-02-27T15:18:37Z</time>
      </trkpt>
      <trkpt lat="43.08463" lon="6.02157">
        <ele>12.320541381836</ele>
        <time>2017-02-27T15:18:40Z</time>
      </trkpt>
      <trkpt lat="43.08462" lon="6.02162">
        <ele>12.551468849182</ele>
        <time>2017-02-27T15:18:42Z</time>
      </trkpt>
      <trkpt lat="43.08462" lon="6.02168">
        <ele>12.804765701294</ele>
        <time>2017-02-27T15:18:45Z</time>
      </trkpt>
      <trkpt lat="43.08462" lon="6.02173">
        <ele>13.058837890625</ele>
        <time>2017-02-27T15:18:47Z</time>
      </trkpt>
      <trkpt lat="43.08463" lon="6.02178">
        <ele>13.351430892944</ele>
        <time>2017-02-27T15:18:49Z</time>
      </trkpt>
      <trkpt lat="43.08462" lon="6.02186">
        <ele>13.69763469696</ele>
        <time>2017-02-27T15:18:52Z</time>
      </trkpt>
      <trkpt lat="43.08461" lon="6.02192">
        <ele>14.087049484253</ele>
        <time>2017-02-27T15:18:55Z</time>
      </trkpt>
      <trkpt lat="43.0846" lon="6.02198">
        <ele>14.488922119141</ele>
        <time>2017-02-27T15:18:58Z</time>
      </trkpt>
      <trkpt lat="43.08458" lon="6.02204">
        <ele>14.894514083862</ele>
        <time>2017-02-27T15:19:01Z</time>
      </trkpt>
      <trkpt lat="43.08455" lon="6.02207">
        <ele>15.246299743652</ele>
        <time>2017-02-27T15:19:03Z</time>
      </trkpt>
      <trkpt lat="43.08451" lon="6.02212">
        <ele>15.535403251648</ele>
        <time>2017-02-27T15:19:06Z</time>
      </trkpt>
      <trkpt lat="43.08448" lon="6.02213">
        <ele>15.740081787109</ele>
        <time>2017-02-27T15:19:08Z</time>
      </trkpt>
      <trkpt lat="43.08445" lon="6.02212">
        <ele>15.835980415344</ele>
        <time>2017-02-27T15:19:10Z</time>
      </trkpt>
      <trkpt lat="43.08439" lon="6.0221">
        <ele>15.788061141968</ele>
        <time>2017-02-27T15:19:13Z</time>
      </trkpt>
      <trkpt lat="43.08436" lon="6.02208">
        <ele>15.671132087708</ele>
        <time>2017-02-27T15:19:15Z</time>
      </trkpt>
      <trkpt lat="43.0843" lon="6.02209">
        <ele>15.490180969238</ele>
        <time>2017-02-27T15:19:18Z</time>
      </trkpt>
      <trkpt lat="43.08426" lon="6.02211">
        <ele>15.317567825317</ele>
        <time>2017-02-27T15:19:20Z</time>
      </trkpt>
      <trkpt lat="43.08422" lon="6.02218">
        <ele>15.252612113953</ele>
        <time>2017-02-27T15:19:23Z</time>
      </trkpt>
      <trkpt lat="43.08419" lon="6.02221">
        <ele>15.29301738739</ele>
        <time>2017-02-27T15:19:25Z</time>
      </trkpt>
      <trkpt lat="43.08414" lon="6.02226">
        <ele>15.440470695496</ele>
        <time>2017-02-27T15:19:28Z</time>
      </trkpt>
      <trkpt lat="43.0841" lon="6.02232">
        <ele>15.698867797852</ele>
        <time>2017-02-27T15:19:31Z</time>
      </trkpt>
      <trkpt lat="43.08406" lon="6.02238">
        <ele>16.006229400635</ele>
        <time>2017-02-27T15:19:34Z</time>
      </trkpt>
      <trkpt lat="43.08403" lon="6.02244">
        <ele>16.28288269043</ele>
        <time>2017-02-27T15:19:37Z</time>
      </trkpt>
      <trkpt lat="43.08401" lon="6.02248">
        <ele>16.547353744507</ele>
        <time>2017-02-27T15:19:39Z</time>
      </trkpt>
      <trkpt lat="43.08397" lon="6.02255">
        <ele>16.820682525635</ele>
        <time>2017-02-27T15:19:42Z</time>
      </trkpt>
      <trkpt lat="43.08396" lon="6.0226">
        <ele>17.081283569336</ele>
        <time>2017-02-27T15:19:44Z</time>
      </trkpt>
      <trkpt lat="43.08393" lon="6.02267">
        <ele>17.38720703125</ele>
        <time>2017-02-27T15:19:47Z</time>
      </trkpt>
      <trkpt lat="43.08391" lon="6.02271">
        <ele>17.688467025757</ele>
        <time>2017-02-27T15:19:49Z</time>
      </trkpt>
      <trkpt lat="43.08386" lon="6.02278">
        <ele>18.039138793945</ele>
        <time>2017-02-27T15:19:52Z</time>
      </trkpt>
      <trkpt lat="43.08384" lon="6.02282">
        <ele>18.365087509155</ele>
        <time>2017-02-27T15:19:54Z</time>
      </trkpt>
      <trkpt lat="43.08381" lon="6.02288">
        <ele>18.67677116394</ele>
        <time>2017-02-27T15:19:57Z</time>
      </trkpt>
      <trkpt lat="43.08379" lon="6.02291">
        <ele>18.910999298096</ele>
        <time>2017-02-27T15:19:59Z</time>
      </trkpt>
      <trkpt lat="43.08376" lon="6.02298">
        <ele>19.160995483398</ele>
        <time>2017-02-27T15:20:02Z</time>
      </trkpt>
      <trkpt lat="43.08373" lon="6.02305">
        <ele>19.404104232788</ele>
        <time>2017-02-27T15:20:05Z</time>
      </trkpt>
      <trkpt lat="43.08371" lon="6.02308">
        <ele>19.61025428772</ele>
        <time>2017-02-27T15:20:07Z</time>
      </trkpt>
      <trkpt lat="43.08368" lon="6.02312">
        <ele>19.759634017944</ele>
        <time>2017-02-27T15:20:09Z</time>
      </trkpt>
      <trkpt lat="43.08364" lon="6.02316">
        <ele>19.891231536865</ele>
        <time>2017-02-27T15:20:12Z</time>
      </trkpt>
      <trkpt lat="43.08361" lon="6.02319">
        <ele>19.95524597168</ele>
        <time>2017-02-27T15:20:14Z</time>
      </trkpt>
      <trkpt lat="43.08356" lon="6.02325">
        <ele>19.951530456543</ele>
        <time>2017-02-27T15:20:17Z</time>
      </trkpt>
      <trkpt lat="43.08353" lon="6.02331">
        <ele>19.939712524414</ele>
        <time>2017-02-27T15:20:20Z</time>
      </trkpt>
      <trkpt lat="43.08351" lon="6.02334">
        <ele>19.945482254028</ele>
        <time>2017-02-27T15:20:22Z</time>
      </trkpt>
      <trkpt lat="43.08349" lon="6.02338">
        <ele>19.984579086304</ele>
        <time>2017-02-27T15:20:24Z</time>
      </trkpt>
      <trkpt lat="43.08344" lon="6.02342">
        <ele>20.021709442139</ele>
        <time>2017-02-27T15:20:27Z</time>
      </trkpt>
      <trkpt lat="43.0834" lon="6.02348">
        <ele>20.114849090576</ele>
        <time>2017-02-27T15:20:30Z</time>
      </trkpt>
      <trkpt lat="43.08338" lon="6.02352">
        <ele>20.226236343384</ele>
        <time>2017-02-27T15:20:32Z</time>
      </trkpt>
      <trkpt lat="43.08335" lon="6.02356">
        <ele>20.354866027832</ele>
        <time>2017-02-27T15:20:34Z</time>
      </trkpt>
      <trkpt lat="43.08332" lon="6.02362">
        <ele>20.539220809937</ele>
        <time>2017-02-27T15:20:37Z</time>
      </trkpt>
      <trkpt lat="43.08331" lon="6.02367">
        <ele>20.813148498535</ele>
        <time>2017-02-27T15:20:39Z</time>
      </trkpt>
      <trkpt lat="43.08329" lon="6.02374">
        <ele>21.174810409546</ele>
        <time>2017-02-27T15:20:42Z</time>
      </trkpt>
      <trkpt lat="43.08328" lon="6.0238">
        <ele>21.628761291504</ele>
        <time>2017-02-27T15:20:44Z</time>
      </trkpt>
      <trkpt lat="43.08327" lon="6.02387">
        <ele>22.20237159729</ele>
        <time>2017-02-27T15:20:47Z</time>
      </trkpt>
      <trkpt lat="43.08327" lon="6.02392">
        <ele>22.777418136597</ele>
        <time>2017-02-27T15:20:49Z</time>
      </trkpt>
      <trkpt lat="43.08325" lon="6.02399">
        <ele>23.39458656311</ele>
        <time>2017-02-27T15:20:52Z</time>
      </trkpt>
      <trkpt lat="43.08325" lon="6.02404">
        <ele>23.977806091309</ele>
        <time>2017-02-27T15:20:54Z</time>
      </trkpt>
      <trkpt lat="43.08324" lon="6.02411">
        <ele>24.58279800415</ele>
        <time>2017-02-27T15:20:57Z</time>
      </trkpt>
      <trkpt lat="43.08324" lon="6.02419">
        <ele>25.198308944702</ele>
        <time>2017-02-27T15:21:00Z</time>
      </trkpt>
      <trkpt lat="43.08325" lon="6.02426">
        <ele>25.910120010376</ele>
        <time>2017-02-27T15:21:03Z</time>
      </trkpt>
      <trkpt lat="43.08325" lon="6.02434">
        <ele>26.668371200562</ele>
        <time>2017-02-27T15:21:06Z</time>
      </trkpt>
      <trkpt lat="43.08326" lon="6.02438">
        <ele>27.435064315796</ele>
        <time>2017-02-27T15:21:08Z</time>
      </trkpt>
      <trkpt lat="43.08326" lon="6.02444">
        <ele>28.201299667358</ele>
        <time>2017-02-27T15:21:11Z</time>
      </trkpt>
      <trkpt lat="43.08323" lon="6.0245">
        <ele>28.899841308594</ele>
        <time>2017-02-27T15:21:14Z</time>
      </trkpt>
      <trkpt lat="43.08323" lon="6.02455">
        <ele>29.514993667603</ele>
        <time>2017-02-27T15:21:16Z</time>
      </trkpt>
      <trkpt lat="43.08326" lon="6.02462">
        <ele>30.17046546936</ele>
        <time>2017-02-27T15:21:19Z</time>
      </trkpt>
      <trkpt lat="43.08327" lon="6.02466">
        <ele>30.831029891968</ele>
        <time>2017-02-27T15:21:21Z</time>
      </trkpt>
      <trkpt lat="43.08326" lon="6.0247">
        <ele>31.437664031982</ele>
        <time>2017-02-27T15:21:23Z</time>
      </trkpt>
      <trkpt lat="43.08324" lon="6.02474">
        <ele>32.010185241699</ele>
        <time>2017-02-27T15:21:25Z</time>
      </trkpt>
      <trkpt lat="43.08323" lon="6.02479">
        <ele>32.553577423096</ele>
        <time>2017-02-27T15:21:27Z</time>
      </trkpt>
      <trkpt lat="43.08321" lon="6.02486">
        <ele>33.00951385498</ele>
        <time>2017-02-27T15:21:30Z</time>
      </trkpt>
      <trkpt lat="43.08319" lon="6.0249">
        <ele>33.409690856934</ele>
        <time>2017-02-27T15:21:32Z</time>
      </trkpt>
      <trkpt lat="43.08316" lon="6.02496">
        <ele>33.791938781738</ele>
        <time>2017-02-27T15:21:35Z</time>
      </trkpt>
      <trkpt lat="43.0831" lon="6.025">
        <ele>34.051662445068</ele>
        <time>2017-02-27T15:21:38Z</time>
      </trkpt>
      <trkpt lat="43.08307" lon="6.02502">
        <ele>34.177173614502</ele>
        <time>2017-02-27T15:21:40Z</time>
      </trkpt>
      <trkpt lat="43.08303" lon="6.02503">
        <ele>34.12211227417</ele>
        <time>2017-02-27T15:21:42Z</time>
      </trkpt>
      <trkpt lat="43.08297" lon="6.02507">
        <ele>33.920124053955</ele>
        <time>2017-02-27T15:21:45Z</time>
      </trkpt>
      <trkpt lat="43.08293" lon="6.02511">
        <ele>33.623275756836</ele>
        <time>2017-02-27T15:21:48Z</time>
      </trkpt>
      <trkpt lat="43.08288" lon="6.02517">
        <ele>33.367454528809</ele>
        <time>2017-02-27T15:21:51Z</time>
      </trkpt>
      <trkpt lat="43.08285" lon="6.02521">
        <ele>33.16561126709</ele>
        <time>2017-02-27T15:21:53Z</time>
      </trkpt>
      <trkpt lat="43.08282" lon="6.02525">
        <ele>33.001808166504</ele>
        <time>2017-02-27T15:21:55Z</time>
      </trkpt>
      <trkpt lat="43.08278" lon="6.02529">
        <ele>32.898571014404</ele>
        <time>2017-02-27T15:21:57Z</time>
      </trkpt>
      <trkpt lat="43.08273" lon="6.02533">
        <ele>32.755744934082</ele>
        <time>2017-02-27T15:22:00Z</time>
      </trkpt>
      <trkpt lat="43.08269" lon="6.02533">
        <ele>32.54988861084</ele>
        <time>2017-02-27T15:22:02Z</time>
      </trkpt>
      <trkpt lat="43.08265" lon="6.02533">
        <ele>32.229747772217</ele>
        <time>2017-02-27T15:22:04Z</time>
      </trkpt>
      <trkpt lat="43.0826" lon="6.02528">
        <ele>31.734548568726</ele>
        <time>2017-02-27T15:22:07Z</time>
      </trkpt>
      <trkpt lat="43.08258" lon="6.02524">
        <ele>31.131261825562</ele>
        <time>2017-02-27T15:22:09Z</time>
      </trkpt>
      <trkpt lat="43.08255" lon="6.02516">
        <ele>30.426397323608</ele>
        <time>2017-02-27T15:22:12Z</time>
      </trkpt>
      <trkpt lat="43.08253" lon="6.02511">
        <ele>29.692523956299</ele>
        <time>2017-02-27T15:22:14Z</time>
      </trkpt>
      <trkpt lat="43.0825" lon="6.02505">
        <ele>28.902093887329</ele>
        <time>2017-02-27T15:22:17Z</time>
      </trkpt>
      <trkpt lat="43.08247" lon="6.02501">
        <ele>28.312917709351</ele>
        <time>2017-02-27T15:22:19Z</time>
      </trkpt>
      <trkpt lat="43.08244" lon="6.02497">
        <ele>27.875707626343</ele>
        <time>2017-02-27T15:22:21Z</time>
      </trkpt>
      <trkpt lat="43.08241" lon="6.02491">
        <ele>27.597385406494</ele>
        <time>2017-02-27T15:22:24Z</time>
      </trkpt>
      <trkpt lat="43.08237" lon="6.02484">
        <ele>27.42053604126</ele>
        <time>2017-02-27T15:22:27Z</time>
      </trkpt>
      <trkpt lat="43.08234" lon="6.02478">
        <ele>27.371532440186</ele>
        <time>2017-02-27T15:22:30Z</time>
      </trkpt>
      <trkpt lat="43.08232" lon="6.02473">
        <ele>27.293506622314</ele>
        <time>2017-02-27T15:22:32Z</time>
      </trkpt>
      <trkpt lat="43.08231" lon="6.02468">
        <ele>27.144250869751</ele>
        <time>2017-02-27T15:22:34Z</time>
      </trkpt>
      <trkpt lat="43.0823" lon="6.0246">
        <ele>26.912866592407</ele>
        <time>2017-02-27T15:22:37Z</time>
      </trkpt>
      <trkpt lat="43.08229" lon="6.02452">
        <ele>26.596277236938</ele>
        <time>2017-02-27T15:22:40Z</time>
      </trkpt>
      <trkpt lat="43.08228" lon="6.02445">
        <ele>26.236902236938</ele>
        <time>2017-02-27T15:22:43Z</time>
      </trkpt>
      <trkpt lat="43.08226" lon="6.02439">
        <ele>25.847820281982</ele>
        <time>2017-02-27T15:22:45Z</time>
      </trkpt>
      <trkpt lat="43.08224" lon="6.02432">
        <ele>25.438877105713</ele>
        <time>2017-02-27T15:22:48Z</time>
      </trkpt>
      <trkpt lat="43.08221" lon="6.02427">
        <ele>25.10195350647</ele>
        <time>2017-02-27T15:22:50Z</time>
      </trkpt>
      <trkpt lat="43.08216" lon="6.02421">
        <ele>24.848672866821</ele>
        <time>2017-02-27T15:22:53Z</time>
      </trkpt>
      <trkpt lat="43.08213" lon="6.02417">
        <ele>24.704624176025</ele>
        <time>2017-02-27T15:22:55Z</time>
      </trkpt>
      <trkpt lat="43.0821" lon="6.02413">
        <ele>24.621402740479</ele>
        <time>2017-02-27T15:22:57Z</time>
      </trkpt>
      <trkpt lat="43.08205" lon="6.02408">
        <ele>24.610622406006</ele>
        <time>2017-02-27T15:23:00Z</time>
      </trkpt>
      <trkpt lat="43.082" lon="6.02403">
        <ele>24.65739440918</ele>
        <time>2017-02-27T15:23:03Z</time>
      </trkpt>
      <trkpt lat="43.08196" lon="6.02401">
        <ele>24.742980957031</ele>
        <time>2017-02-27T15:23:05Z</time>
      </trkpt>
      <trkpt lat="43.08192" lon="6.02399">
        <ele>24.848894119263</ele>
        <time>2017-02-27T15:23:07Z</time>
      </trkpt>
      <trkpt lat="43.08189" lon="6.02399">
        <ele>25.018827438354</ele>
        <time>2017-02-27T15:23:09Z</time>
      </trkpt>
      <trkpt lat="43.08183" lon="6.02398">
        <ele>25.275562286377</ele>
        <time>2017-02-27T15:23:12Z</time>
      </trkpt>
      <trkpt lat="43.08178" lon="6.02399">
        <ele>25.611515045166</ele>
        <time>2017-02-27T15:23:15Z</time>
      </trkpt>
      <trkpt lat="43.08173" lon="6.02399">
        <ele>25.997127532959</ele>
        <time>2017-02-27T15:23:17Z</time>
      </trkpt>
      <trkpt lat="43.08168" lon="6.02399">
        <ele>26.456928253174</ele>
        <time>2017-02-27T15:23:20Z</time>
      </trkpt>
      <trkpt lat="43.08164" lon="6.02399">
        <ele>26.884868621826</ele>
        <time>2017-02-27T15:23:22Z</time>
      </trkpt>
      <trkpt lat="43.0816" lon="6.02399">
        <ele>27.23539352417</ele>
        <time>2017-02-27T15:23:24Z</time>
      </trkpt>
      <trkpt lat="43.08155" lon="6.02398">
        <ele>27.498538970947</ele>
        <time>2017-02-27T15:23:27Z</time>
      </trkpt>
      <trkpt lat="43.08149" lon="6.02398">
        <ele>27.705774307251</ele>
        <time>2017-02-27T15:23:30Z</time>
      </trkpt>
      <trkpt lat="43.08145" lon="6.02397">
        <ele>27.815998077393</ele>
        <time>2017-02-27T15:23:32Z</time>
      </trkpt>
      <trkpt lat="43.08141" lon="6.02398">
        <ele>27.919164657593</ele>
        <time>2017-02-27T15:23:34Z</time>
      </trkpt>
      <trkpt lat="43.08136" lon="6.02397">
        <ele>28.039037704468</ele>
        <time>2017-02-27T15:23:37Z</time>
      </trkpt>
      <trkpt lat="43.08131" lon="6.02399">
        <ele>28.181686401367</ele>
        <time>2017-02-27T15:23:40Z</time>
      </trkpt>
      <trkpt lat="43.08125" lon="6.02399">
        <ele>28.344665527344</ele>
        <time>2017-02-27T15:23:43Z</time>
      </trkpt>
      <trkpt lat="43.08118" lon="6.024">
        <ele>28.536890029907</ele>
        <time>2017-02-27T15:23:46Z</time>
      </trkpt>
      <trkpt lat="43.08114" lon="6.02401">
        <ele>28.737972259521</ele>
        <time>2017-02-27T15:23:48Z</time>
      </trkpt>
      <trkpt lat="43.0811" lon="6.02401">
        <ele>28.945398330688</ele>
        <time>2017-02-27T15:23:50Z</time>
      </trkpt>
      <trkpt lat="43.08104" lon="6.02403">
        <ele>29.160552978516</ele>
        <time>2017-02-27T15:23:53Z</time>
      </trkpt>
      <trkpt lat="43.081" lon="6.02405">
        <ele>29.379199981689</ele>
        <time>2017-02-27T15:23:55Z</time>
      </trkpt>
      <trkpt lat="43.08094" lon="6.02407">
        <ele>29.614706039429</ele>
        <time>2017-02-27T15:23:58Z</time>
      </trkpt>
      <trkpt lat="43.0809" lon="6.02408">
        <ele>29.848735809326</ele>
        <time>2017-02-27T15:24:00Z</time>
      </trkpt>
      <trkpt lat="43.08084" lon="6.02409">
        <ele>30.091995239258</ele>
        <time>2017-02-27T15:24:03Z</time>
      </trkpt>
      <trkpt lat="43.0808" lon="6.02412">
        <ele>30.318828582764</ele>
        <time>2017-02-27T15:24:05Z</time>
      </trkpt>
      <trkpt lat="43.08076" lon="6.02414">
        <ele>30.53639793396</ele>
        <time>2017-02-27T15:24:07Z</time>
      </trkpt>
      <trkpt lat="43.0807" lon="6.02416">
        <ele>30.724533081055</ele>
        <time>2017-02-27T15:24:10Z</time>
      </trkpt>
      <trkpt lat="43.08067" lon="6.02416">
        <ele>30.896076202393</ele>
        <time>2017-02-27T15:24:12Z</time>
      </trkpt>
      <trkpt lat="43.08061" lon="6.02417">
        <ele>31.054889678955</ele>
        <time>2017-02-27T15:24:15Z</time>
      </trkpt>
      <trkpt lat="43.08058" lon="6.02418">
        <ele>31.202327728271</ele>
        <time>2017-02-27T15:24:17Z</time>
      </trkpt>
      <trkpt lat="43.08054" lon="6.02419">
        <ele>31.343936920166</ele>
        <time>2017-02-27T15:24:19Z</time>
      </trkpt>
      <trkpt lat="43.08049" lon="6.02419">
        <ele>31.470249176025</ele>
        <time>2017-02-27T15:24:22Z</time>
      </trkpt>
      <trkpt lat="43.08046" lon="6.0242">
        <ele>31.58843421936</ele>
        <time>2017-02-27T15:24:24Z</time>
      </trkpt>
      <trkpt lat="43.0804" lon="6.02418">
        <ele>31.660257339478</ele>
        <time>2017-02-27T15:24:27Z</time>
      </trkpt>
      <trkpt lat="43.08036" lon="6.02417">
        <ele>31.677270889282</ele>
        <time>2017-02-27T15:24:29Z</time>
      </trkpt>
      <trkpt lat="43.08031" lon="6.02413">
        <ele>31.648113250732</ele>
        <time>2017-02-27T15:24:32Z</time>
      </trkpt>
      <trkpt lat="43.08027" lon="6.02408">
        <ele>31.579137802124</ele>
        <time>2017-02-27T15:24:35Z</time>
      </trkpt>
      <trkpt lat="43.08025" lon="6.02404">
        <ele>31.474792480469</ele>
        <time>2017-02-27T15:24:37Z</time>
      </trkpt>
      <trkpt lat="43.08024" lon="6.02399">
        <ele>31.354894638062</ele>
        <time>2017-02-27T15:24:39Z</time>
      </trkpt>
      <trkpt lat="43.08023" lon="6.02394">
        <ele>31.231094360352</ele>
        <time>2017-02-27T15:24:41Z</time>
      </trkpt>
      <trkpt lat="43.08022" lon="6.02388">
        <ele>31.091197967529</ele>
        <time>2017-02-27T15:24:44Z</time>
      </trkpt>
      <trkpt lat="43.08021" lon="6.02384">
        <ele>30.953155517578</ele>
        <time>2017-02-27T15:24:46Z</time>
      </trkpt>
      <trkpt lat="43.08015" lon="6.02384">
        <ele>30.863525390625</ele>
        <time>2017-02-27T15:24:49Z</time>
      </trkpt>
      <trkpt lat="43.0801" lon="6.0239">
        <ele>30.864553451538</ele>
        <time>2017-02-27T15:24:52Z</time>
      </trkpt>
      <trkpt lat="43.08009" lon="6.02396">
        <ele>30.936004638672</ele>
        <time>2017-02-27T15:24:54Z</time>
      </trkpt>
      <trkpt lat="43.0801" lon="6.02403">
        <ele>31.080501556396</ele>
        <time>2017-02-27T15:24:57Z</time>
      </trkpt>
      <trkpt lat="43.08013" lon="6.0241">
        <ele>31.270223617554</ele>
        <time>2017-02-27T15:25:00Z</time>
      </trkpt>
      <trkpt lat="43.08017" lon="6.02414">
        <ele>31.451868057251</ele>
        <time>2017-02-27T15:25:03Z</time>
      </trkpt>
      <trkpt lat="43.0802" lon="6.02416">
        <ele>31.581186294556</ele>
        <time>2017-02-27T15:25:05Z</time>
      </trkpt>
      <trkpt lat="43.08022" lon="6.02421">
        <ele>31.757846832275</ele>
        <time>2017-02-27T15:25:08Z</time>
      </trkpt>
      <trkpt lat="43.08024" lon="6.02427">
        <ele>32.01375579834</ele>
        <time>2017-02-27T15:25:11Z</time>
      </trkpt>
      <trkpt lat="43.08026" lon="6.02433">
        <ele>32.352684020996</ele>
        <time>2017-02-27T15:25:14Z</time>
      </trkpt>
      <trkpt lat="43.08029" lon="6.02438">
        <ele>32.793876647949</ele>
        <time>2017-02-27T15:25:17Z</time>
      </trkpt>
      <trkpt lat="43.08032" lon="6.02443">
        <ele>33.327075958252</ele>
        <time>2017-02-27T15:25:20Z</time>
      </trkpt>
      <trkpt lat="43.08036" lon="6.02447">
        <ele>33.853420257568</ele>
        <time>2017-02-27T15:25:23Z</time>
      </trkpt>
      <trkpt lat="43.08039" lon="6.02448">
        <ele>34.277229309082</ele>
        <time>2017-02-27T15:25:25Z</time>
      </trkpt>
      <trkpt lat="43.08042" lon="6.02449">
        <ele>34.611030578613</ele>
        <time>2017-02-27T15:25:27Z</time>
      </trkpt>
      <trkpt lat="43.08046" lon="6.02451">
        <ele>34.857246398926</ele>
        <time>2017-02-27T15:25:29Z</time>
      </trkpt>
      <trkpt lat="43.08049" lon="6.02455">
        <ele>35.098083496094</ele>
        <time>2017-02-27T15:25:32Z</time>
      </trkpt>
      <trkpt lat="43.08052" lon="6.0246">
        <ele>35.368560791016</ele>
        <time>2017-02-27T15:25:35Z</time>
      </trkpt>
      <trkpt lat="43.08056" lon="6.02463">
        <ele>35.69718170166</ele>
        <time>2017-02-27T15:25:38Z</time>
      </trkpt>
      <trkpt lat="43.08059" lon="6.02466">
        <ele>36.060737609863</ele>
        <time>2017-02-27T15:25:40Z</time>
      </trkpt>
      <trkpt lat="43.08064" lon="6.02469">
        <ele>36.48579788208</ele>
        <time>2017-02-27T15:25:43Z</time>
      </trkpt>
      <trkpt lat="43.08067" lon="6.02472">
        <ele>36.876586914062</ele>
        <time>2017-02-27T15:25:45Z</time>
      </trkpt>
      <trkpt lat="43.08072" lon="6.02476">
        <ele>37.259574890137</ele>
        <time>2017-02-27T15:25:48Z</time>
      </trkpt>
      <trkpt lat="43.08076" lon="6.02481">
        <ele>37.69409942627</ele>
        <time>2017-02-27T15:25:51Z</time>
      </trkpt>
      <trkpt lat="43.08078" lon="6.02485">
        <ele>38.154029846191</ele>
        <time>2017-02-27T15:25:53Z</time>
      </trkpt>
      <trkpt lat="43.08082" lon="6.0249">
        <ele>38.655479431152</ele>
        <time>2017-02-27T15:25:56Z</time>
      </trkpt>
      <trkpt lat="43.08083" lon="6.02494">
        <ele>39.183040618896</ele>
        <time>2017-02-27T15:25:58Z</time>
      </trkpt>
      <trkpt lat="43.08086" lon="6.02499">
        <ele>39.710762023926</ele>
        <time>2017-02-27T15:26:01Z</time>
      </trkpt>
      <trkpt lat="43.08089" lon="6.02503">
        <ele>40.193744659424</ele>
        <time>2017-02-27T15:26:04Z</time>
      </trkpt>
      <trkpt lat="43.08092" lon="6.02508">
        <ele>40.677867889404</ele>
        <time>2017-02-27T15:26:07Z</time>
      </trkpt>
      <trkpt lat="43.08094" lon="6.02513">
        <ele>41.117412567139</ele>
        <time>2017-02-27T15:26:10Z</time>
      </trkpt>
      <trkpt lat="43.08096" lon="6.02517">
        <ele>41.558883666992</ele>
        <time>2017-02-27T15:26:12Z</time>
      </trkpt>
      <trkpt lat="43.08097" lon="6.02522">
        <ele>42.011516571045</ele>
        <time>2017-02-27T15:26:14Z</time>
      </trkpt>
      <trkpt lat="43.08099" lon="6.02529">
        <ele>42.501140594482</ele>
        <time>2017-02-27T15:26:17Z</time>
      </trkpt>
      <trkpt lat="43.081" lon="6.02533">
        <ele>42.980545043945</ele>
        <time>2017-02-27T15:26:19Z</time>
      </trkpt>
      <trkpt lat="43.08102" lon="6.02538">
        <ele>43.460186004639</ele>
        <time>2017-02-27T15:26:22Z</time>
      </trkpt>
      <trkpt lat="43.08105" lon="6.02543">
        <ele>43.906711578369</ele>
        <time>2017-02-27T15:26:28Z</time>
      </trkpt>
      <trkpt lat="43.08108" lon="6.02548">
        <ele>44.301719665527</ele>
        <time>2017-02-27T15:26:28Z</time>
      </trkpt>
      <trkpt lat="43.0811" lon="6.02554">
        <ele>44.6530418396</ele>
        <time>2017-02-27T15:26:31Z</time>
      </trkpt>
      <trkpt lat="43.08112" lon="6.02558">
        <ele>44.995235443115</ele>
        <time>2017-02-27T15:26:34Z</time>
      </trkpt>
      <trkpt lat="43.08112" lon="6.02563">
        <ele>45.340816497803</ele>
        <time>2017-02-27T15:26:37Z</time>
      </trkpt>
      <trkpt lat="43.08112" lon="6.02566">
        <ele>45.69181060791</ele>
        <time>2017-02-27T15:26:39Z</time>
      </trkpt>
      <trkpt lat="43.08112" lon="6.02569">
        <ele>46.030052185059</ele>
        <time>2017-02-27T15:26:41Z</time>
      </trkpt>
      <trkpt lat="43.08112" lon="6.02572">
        <ele>46.356266021729</ele>
        <time>2017-02-27T15:26:43Z</time>
      </trkpt>
      <trkpt lat="43.08111" lon="6.02578">
        <ele>46.797424316406</ele>
        <time>2017-02-27T15:26:46Z</time>
      </trkpt>
      <trkpt lat="43.08109" lon="6.02582">
        <ele>47.268447875977</ele>
        <time>2017-02-27T15:26:48Z</time>
      </trkpt>
      <trkpt lat="43.08107" lon="6.02585">
        <ele>47.764030456543</ele>
        <time>2017-02-27T15:26:50Z</time>
      </trkpt>
      <trkpt lat="43.08104" lon="6.0259">
        <ele>48.32445526123</ele>
        <time>2017-02-27T15:26:53Z</time>
      </trkpt>
      <trkpt lat="43.08101" lon="6.02592">
        <ele>48.893505096436</ele>
        <time>2017-02-27T15:26:55Z</time>
      </trkpt>
      <trkpt lat="43.08098" lon="6.02594">
        <ele>49.368488311768</ele>
        <time>2017-02-27T15:26:57Z</time>
      </trkpt>
      <trkpt lat="43.08096" lon="6.02596">
        <ele>49.796653747559</ele>
        <time>2017-02-27T15:26:59Z</time>
      </trkpt>
      <trkpt lat="43.08092" lon="6.02601">
        <ele>50.260906219482</ele>
        <time>2017-02-27T15:27:02Z</time>
      </trkpt>
      <trkpt lat="43.08089" lon="6.02607">
        <ele>50.707847595215</ele>
        <time>2017-02-27T15:27:05Z</time>
      </trkpt>
      <trkpt lat="43.08088" lon="6.02612">
        <ele>51.160423278809</ele>
        <time>2017-02-27T15:27:07Z</time>
      </trkpt>
      <trkpt lat="43.08084" lon="6.02617">
        <ele>51.649574279785</ele>
        <time>2017-02-27T15:27:10Z</time>
      </trkpt>
      <trkpt lat="43.08082" lon="6.02621">
        <ele>52.100452423096</ele>
        <time>2017-02-27T15:27:12Z</time>
      </trkpt>
      <trkpt lat="43.0808" lon="6.02625">
        <ele>52.439708709717</ele>
        <time>2017-02-27T15:27:14Z</time>
      </trkpt>
      <trkpt lat="43.08078" lon="6.02632">
        <ele>52.709022521973</ele>
        <time>2017-02-27T15:27:17Z</time>
      </trkpt>
      <trkpt lat="43.08077" lon="6.02636">
        <ele>52.921546936035</ele>
        <time>2017-02-27T15:27:19Z</time>
      </trkpt>
      <trkpt lat="43.08076" lon="6.02641">
        <ele>53.039329528809</ele>
        <time>2017-02-27T15:27:21Z</time>
      </trkpt>
      <trkpt lat="43.08076" lon="6.02648">
        <ele>53.15775680542</ele>
        <time>2017-02-27T15:27:24Z</time>
      </trkpt>
      <trkpt lat="43.08075" lon="6.02654">
        <ele>53.30184173584</ele>
        <time>2017-02-27T15:27:27Z</time>
      </trkpt>
      <trkpt lat="43.08074" lon="6.0266">
        <ele>53.456707000732</ele>
        <time>2017-02-27T15:27:30Z</time>
      </trkpt>
      <trkpt lat="43.08074" lon="6.02667">
        <ele>53.628681182861</ele>
        <time>2017-02-27T15:27:33Z</time>
      </trkpt>
      <trkpt lat="43.08074" lon="6.02671">
        <ele>53.850910186768</ele>
        <time>2017-02-27T15:27:35Z</time>
      </trkpt>
      <trkpt lat="43.08074" lon="6.02678">
        <ele>54.156455993652</ele>
        <time>2017-02-27T15:27:38Z</time>
      </trkpt>
      <trkpt lat="43.08075" lon="6.02682">
        <ele>54.506080627441</ele>
        <time>2017-02-27T15:27:40Z</time>
      </trkpt>
      <trkpt lat="43.08075" lon="6.02686">
        <ele>54.890277862549</ele>
        <time>2017-02-27T15:27:42Z</time>
      </trkpt>
      <trkpt lat="43.08076" lon="6.02693">
        <ele>55.342834472656</ele>
        <time>2017-02-27T15:27:45Z</time>
      </trkpt>
      <trkpt lat="43.08077" lon="6.02699">
        <ele>55.827831268311</ele>
        <time>2017-02-27T15:27:48Z</time>
      </trkpt>
      <trkpt lat="43.08076" lon="6.02706">
        <ele>56.318584442139</ele>
        <time>2017-02-27T15:27:52Z</time>
      </trkpt>
      <trkpt lat="43.08075" lon="6.0271">
        <ele>56.80738067627</ele>
        <time>2017-02-27T15:27:53Z</time>
      </trkpt>
      <trkpt lat="43.08075" lon="6.02715">
        <ele>57.301959991455</ele>
        <time>2017-02-27T15:27:55Z</time>
      </trkpt>
      <trkpt lat="43.08075" lon="6.02719">
        <ele>57.765544891357</ele>
        <time>2017-02-27T15:27:57Z</time>
      </trkpt>
      <trkpt lat="43.08074" lon="6.02726">
        <ele>58.248676300049</ele>
        <time>2017-02-27T15:28:00Z</time>
      </trkpt>
      <trkpt lat="43.08074" lon="6.02731">
        <ele>58.69718170166</ele>
        <time>2017-02-27T15:28:02Z</time>
      </trkpt>
      <trkpt lat="43.08075" lon="6.02739">
        <ele>59.207019805908</ele>
        <time>2017-02-27T15:28:05Z</time>
      </trkpt>
      <trkpt lat="43.08076" lon="6.02746">
        <ele>59.74925994873</ele>
        <time>2017-02-27T15:28:08Z</time>
      </trkpt>
      <trkpt lat="43.08077" lon="6.02751">
        <ele>60.305633544922</ele>
        <time>2017-02-27T15:28:10Z</time>
      </trkpt>
      <trkpt lat="43.08078" lon="6.02756">
        <ele>60.876197814941</ele>
        <time>2017-02-27T15:28:12Z</time>
      </trkpt>
      <trkpt lat="43.0808" lon="6.02764">
        <ele>61.56307220459</ele>
        <time>2017-02-27T15:28:15Z</time>
      </trkpt>
      <trkpt lat="43.08081" lon="6.02771">
        <ele>62.302612304688</ele>
        <time>2017-02-27T15:28:18Z</time>
      </trkpt>
      <trkpt lat="43.08082" lon="6.02775">
        <ele>63.058055877686</ele>
        <time>2017-02-27T15:28:20Z</time>
      </trkpt>
      <trkpt lat="43.08084" lon="6.02782">
        <ele>63.867900848389</ele>
        <time>2017-02-27T15:28:23Z</time>
      </trkpt>
      <trkpt lat="43.08086" lon="6.02789">
        <ele>64.678329467773</ele>
        <time>2017-02-27T15:28:26Z</time>
      </trkpt>
      <trkpt lat="43.08089" lon="6.02795">
        <ele>65.329116821289</ele>
        <time>2017-02-27T15:28:29Z</time>
      </trkpt>
      <trkpt lat="43.08091" lon="6.02799">
        <ele>65.821754455566</ele>
        <time>2017-02-27T15:28:31Z</time>
      </trkpt>
      <trkpt lat="43.08094" lon="6.02806">
        <ele>66.238052368164</ele>
        <time>2017-02-27T15:28:34Z</time>
      </trkpt>
      <trkpt lat="43.08098" lon="6.02811">
        <ele>66.504325866699</ele>
        <time>2017-02-27T15:28:37Z</time>
      </trkpt>
      <trkpt lat="43.08102" lon="6.02816">
        <ele>66.594764709473</ele>
        <time>2017-02-27T15:28:40Z</time>
      </trkpt>
      <trkpt lat="43.08105" lon="6.0282">
        <ele>66.60994720459</ele>
        <time>2017-02-27T15:28:42Z</time>
      </trkpt>
      <trkpt lat="43.08109" lon="6.02825">
        <ele>66.551040649414</ele>
        <time>2017-02-27T15:28:45Z</time>
      </trkpt>
      <trkpt lat="43.08113" lon="6.02831">
        <ele>66.456115722656</ele>
        <time>2017-02-27T15:28:48Z</time>
      </trkpt>
      <trkpt lat="43.08115" lon="6.02835">
        <ele>66.424026489258</ele>
        <time>2017-02-27T15:28:50Z</time>
      </trkpt>
      <trkpt lat="43.08118" lon="6.02838">
        <ele>66.389175415039</ele>
        <time>2017-02-27T15:28:52Z</time>
      </trkpt>
      <trkpt lat="43.08121" lon="6.02842">
        <ele>66.349494934082</ele>
        <time>2017-02-27T15:28:54Z</time>
      </trkpt>
      <trkpt lat="43.08123" lon="6.02848">
        <ele>66.432838439941</ele>
        <time>2017-02-27T15:28:57Z</time>
      </trkpt>
      <trkpt lat="43.08124" lon="6.02853">
        <ele>66.608909606934</ele>
        <time>2017-02-27T15:28:59Z</time>
      </trkpt>
      <trkpt lat="43.08125" lon="6.02861">
        <ele>66.897041320801</ele>
        <time>2017-02-27T15:29:02Z</time>
      </trkpt>
      <trkpt lat="43.08126" lon="6.02869">
        <ele>67.420944213867</ele>
        <time>2017-02-27T15:29:05Z</time>
      </trkpt>
      <trkpt lat="43.08128" lon="6.02877">
        <ele>68.091857910156</ele>
        <time>2017-02-27T15:29:08Z</time>
      </trkpt>
      <trkpt lat="43.0813" lon="6.02881">
        <ele>68.730674743652</ele>
        <time>2017-02-27T15:29:10Z</time>
      </trkpt>
      <trkpt lat="43.08132" lon="6.02889">
        <ele>69.333465576172</ele>
        <time>2017-02-27T15:29:13Z</time>
      </trkpt>
      <trkpt lat="43.08134" lon="6.02893">
        <ele>69.825561523438</ele>
        <time>2017-02-27T15:29:15Z</time>
      </trkpt>
      <trkpt lat="43.08136" lon="6.029">
        <ele>70.128723144531</ele>
        <time>2017-02-27T15:29:18Z</time>
      </trkpt>
      <trkpt lat="43.08139" lon="6.02904">
        <ele>70.276023864746</ele>
        <time>2017-02-27T15:29:20Z</time>
      </trkpt>
      <trkpt lat="43.08141" lon="6.02908">
        <ele>70.34797668457</ele>
        <time>2017-02-27T15:29:22Z</time>
      </trkpt>
      <trkpt lat="43.08143" lon="6.02911">
        <ele>70.28360748291</ele>
        <time>2017-02-27T15:29:24Z</time>
      </trkpt>
      <trkpt lat="43.08146" lon="6.02918">
        <ele>70.143821716309</ele>
        <time>2017-02-27T15:29:27Z</time>
      </trkpt>
      <trkpt lat="43.08149" lon="6.02926">
        <ele>70.027656555176</ele>
        <time>2017-02-27T15:29:30Z</time>
      </trkpt>
      <trkpt lat="43.0815" lon="6.02931">
        <ele>69.972640991211</ele>
        <time>2017-02-27T15:29:32Z</time>
      </trkpt>
      <trkpt lat="43.08152" lon="6.02939">
        <ele>70.025375366211</ele>
        <time>2017-02-27T15:29:35Z</time>
      </trkpt>
      <trkpt lat="43.08154" lon="6.02946">
        <ele>70.217971801758</ele>
        <time>2017-02-27T15:29:38Z</time>
      </trkpt>
      <trkpt lat="43.08154" lon="6.02951">
        <ele>70.544174194336</ele>
        <time>2017-02-27T15:29:40Z</time>
      </trkpt>
      <trkpt lat="43.08154" lon="6.02956">
        <ele>70.935012817383</ele>
        <time>2017-02-27T15:29:42Z</time>
      </trkpt>
      <trkpt lat="43.08154" lon="6.02963">
        <ele>71.457580566406</ele>
        <time>2017-02-27T15:29:45Z</time>
      </trkpt>
      <trkpt lat="43.08154" lon="6.02968">
        <ele>72.01139831543</ele>
        <time>2017-02-27T15:29:47Z</time>
      </trkpt>
      <trkpt lat="43.08155" lon="6.02973">
        <ele>72.599914550781</ele>
        <time>2017-02-27T15:29:49Z</time>
      </trkpt>
      <trkpt lat="43.08155" lon="6.02979">
        <ele>73.151405334473</ele>
        <time>2017-02-27T15:29:51Z</time>
      </trkpt>
      <trkpt lat="43.08157" lon="6.02987">
        <ele>73.663986206055</ele>
        <time>2017-02-27T15:29:54Z</time>
      </trkpt>
      <trkpt lat="43.0816" lon="6.02992">
        <ele>73.992286682129</ele>
        <time>2017-02-27T15:29:56Z</time>
      </trkpt>
      <trkpt lat="43.08163" lon="6.02996">
        <ele>74.071922302246</ele>
        <time>2017-02-27T15:29:58Z</time>
      </trkpt>
      <trkpt lat="43.08168" lon="6.02999">
        <ele>73.843978881836</ele>
        <time>2017-02-27T15:30:01Z</time>
      </trkpt>
      <trkpt lat="43.08173" lon="6.03">
        <ele>73.423294067383</ele>
        <time>2017-02-27T15:30:03Z</time>
      </trkpt>
      <trkpt lat="43.08179" lon="6.03002">
        <ele>72.801528930664</ele>
        <time>2017-02-27T15:30:06Z</time>
      </trkpt>
      <trkpt lat="43.08183" lon="6.03004">
        <ele>72.149269104004</ele>
        <time>2017-02-27T15:30:08Z</time>
      </trkpt>
      <trkpt lat="43.08189" lon="6.03006">
        <ele>71.510215759277</ele>
        <time>2017-02-27T15:30:11Z</time>
      </trkpt>
      <trkpt lat="43.08192" lon="6.0301">
        <ele>71.065277099609</ele>
        <time>2017-02-27T15:30:13Z</time>
      </trkpt>
      <trkpt lat="43.08195" lon="6.03014">
        <ele>70.772903442383</ele>
        <time>2017-02-27T15:30:15Z</time>
      </trkpt>
      <trkpt lat="43.08199" lon="6.03019">
        <ele>70.581039428711</ele>
        <time>2017-02-27T15:30:18Z</time>
      </trkpt>
      <trkpt lat="43.08204" lon="6.03024">
        <ele>70.441444396973</ele>
        <time>2017-02-27T15:30:21Z</time>
      </trkpt>
      <trkpt lat="43.08208" lon="6.0303">
        <ele>70.40193939209</ele>
        <time>2017-02-27T15:30:24Z</time>
      </trkpt>
      <trkpt lat="43.08211" lon="6.03036">
        <ele>70.38151550293</ele>
        <time>2017-02-27T15:30:27Z</time>
      </trkpt>
      <trkpt lat="43.08213" lon="6.0304">
        <ele>70.353797912598</ele>
        <time>2017-02-27T15:30:29Z</time>
      </trkpt>
      <trkpt lat="43.08215" lon="6.03048">
        <ele>70.403839111328</ele>
        <time>2017-02-27T15:30:32Z</time>
      </trkpt>
      <trkpt lat="43.08217" lon="6.03055">
        <ele>70.54695892334</ele>
        <time>2017-02-27T15:30:35Z</time>
      </trkpt>
      <trkpt lat="43.08219" lon="6.03062">
        <ele>70.792282104492</ele>
        <time>2017-02-27T15:30:38Z</time>
      </trkpt>
      <trkpt lat="43.0822" lon="6.03067">
        <ele>71.090003967285</ele>
        <time>2017-02-27T15:30:40Z</time>
      </trkpt>
      <trkpt lat="43.0822" lon="6.03075">
        <ele>71.470413208008</ele>
        <time>2017-02-27T15:30:43Z</time>
      </trkpt>
      <trkpt lat="43.08221" lon="6.03083">
        <ele>71.928413391113</ele>
        <time>2017-02-27T15:30:46Z</time>
      </trkpt>
      <trkpt lat="43.08222" lon="6.03091">
        <ele>72.397254943848</ele>
        <time>2017-02-27T15:30:49Z</time>
      </trkpt>
      <trkpt lat="43.08223" lon="6.03099">
        <ele>72.927993774414</ele>
        <time>2017-02-27T15:30:52Z</time>
      </trkpt>
      <trkpt lat="43.08223" lon="6.03104">
        <ele>73.452133178711</ele>
        <time>2017-02-27T15:30:54Z</time>
      </trkpt>
      <trkpt lat="43.08223" lon="6.03109">
        <ele>73.969551086426</ele>
        <time>2017-02-27T15:30:56Z</time>
      </trkpt>
      <trkpt lat="43.08224" lon="6.03114">
        <ele>74.424865722656</ele>
        <time>2017-02-27T15:30:58Z</time>
      </trkpt>
      <trkpt lat="43.08225" lon="6.03121">
        <ele>74.883689880371</ele>
        <time>2017-02-27T15:31:01Z</time>
      </trkpt>
      <trkpt lat="43.08225" lon="6.03128">
        <ele>75.351181030273</ele>
        <time>2017-02-27T15:31:04Z</time>
      </trkpt>
      <trkpt lat="43.08225" lon="6.03133">
        <ele>75.860054016113</ele>
        <time>2017-02-27T15:31:06Z</time>
      </trkpt>
      <trkpt lat="43.08225" lon="6.0314">
        <ele>76.397750854492</ele>
        <time>2017-02-27T15:31:09Z</time>
      </trkpt>
      <trkpt lat="43.08226" lon="6.03145">
        <ele>76.956741333008</ele>
        <time>2017-02-27T15:31:11Z</time>
      </trkpt>
      <trkpt lat="43.08227" lon="6.03152">
        <ele>77.487403869629</ele>
        <time>2017-02-27T15:31:14Z</time>
      </trkpt>
      <trkpt lat="43.08227" lon="6.03159">
        <ele>77.987365722656</ele>
        <time>2017-02-27T15:31:17Z</time>
      </trkpt>
      <trkpt lat="43.08228" lon="6.03167">
        <ele>78.481460571289</ele>
        <time>2017-02-27T15:31:20Z</time>
      </trkpt>
      <trkpt lat="43.08229" lon="6.03175">
        <ele>78.862655639648</ele>
        <time>2017-02-27T15:31:23Z</time>
      </trkpt>
      <trkpt lat="43.08229" lon="6.03179">
        <ele>79.234237670898</ele>
        <time>2017-02-27T15:31:25Z</time>
      </trkpt>
      <trkpt lat="43.08229" lon="6.03184">
        <ele>79.570350646973</ele>
        <time>2017-02-27T15:31:27Z</time>
      </trkpt>
      <trkpt lat="43.08231" lon="6.03191">
        <ele>79.798721313477</ele>
        <time>2017-02-27T15:31:30Z</time>
      </trkpt>
      <trkpt lat="43.08231" lon="6.03195">
        <ele>79.974739074707</ele>
        <time>2017-02-27T15:31:32Z</time>
      </trkpt>
      <trkpt lat="43.08231" lon="6.03202">
        <ele>80.248168945312</ele>
        <time>2017-02-27T15:31:35Z</time>
      </trkpt>
      <trkpt lat="43.08231" lon="6.03209">
        <ele>80.527366638184</ele>
        <time>2017-02-27T15:31:38Z</time>
      </trkpt>
      <trkpt lat="43.08232" lon="6.03214">
        <ele>80.78108215332</ele>
        <time>2017-02-27T15:31:40Z</time>
      </trkpt>
      <trkpt lat="43.08233" lon="6.03218">
        <ele>81.033348083496</ele>
        <time>2017-02-27T15:31:42Z</time>
      </trkpt>
      <trkpt lat="43.08234" lon="6.03226">
        <ele>81.294967651367</ele>
        <time>2017-02-27T15:31:45Z</time>
      </trkpt>
      <trkpt lat="43.08235" lon="6.03233">
        <ele>81.422439575195</ele>
        <time>2017-02-27T15:31:48Z</time>
      </trkpt>
      <trkpt lat="43.08237" lon="6.03239">
        <ele>81.493194580078</ele>
        <time>2017-02-27T15:31:51Z</time>
      </trkpt>
      <trkpt lat="43.08237" lon="6.03244">
        <ele>81.570335388184</ele>
        <time>2017-02-27T15:31:53Z</time>
      </trkpt>
      <trkpt lat="43.08239" lon="6.03251">
        <ele>81.617904663086</ele>
        <time>2017-02-27T15:31:56Z</time>
      </trkpt>
      <trkpt lat="43.08241" lon="6.03258">
        <ele>81.557319641113</ele>
        <time>2017-02-27T15:31:59Z</time>
      </trkpt>
      <trkpt lat="43.08241" lon="6.03266">
        <ele>81.532089233398</ele>
        <time>2017-02-27T15:32:02Z</time>
      </trkpt>
      <trkpt lat="43.08241" lon="6.03274">
        <ele>81.515365600586</ele>
        <time>2017-02-27T15:32:05Z</time>
      </trkpt>
      <trkpt lat="43.08241" lon="6.03282">
        <ele>81.559181213379</ele>
        <time>2017-02-27T15:32:08Z</time>
      </trkpt>
      <trkpt lat="43.0824" lon="6.03287">
        <ele>81.72721862793</ele>
        <time>2017-02-27T15:32:10Z</time>
      </trkpt>
      <trkpt lat="43.08238" lon="6.03296">
        <ele>82.099868774414</ele>
        <time>2017-02-27T15:32:13Z</time>
      </trkpt>
      <trkpt lat="43.08238" lon="6.03301">
        <ele>82.481071472168</ele>
        <time>2017-02-27T15:32:15Z</time>
      </trkpt>
      <trkpt lat="43.08239" lon="6.03309">
        <ele>82.863204956055</ele>
        <time>2017-02-27T15:32:18Z</time>
      </trkpt>
      <trkpt lat="43.08237" lon="6.03316">
        <ele>83.282821655273</ele>
        <time>2017-02-27T15:32:21Z</time>
      </trkpt>
      <trkpt lat="43.08234" lon="6.03324">
        <ele>83.846794128418</ele>
        <time>2017-02-27T15:32:24Z</time>
      </trkpt>
      <trkpt lat="43.08232" lon="6.03329">
        <ele>84.40323638916</ele>
        <time>2017-02-27T15:32:26Z</time>
      </trkpt>
      <trkpt lat="43.08229" lon="6.03336">
        <ele>85.110382080078</ele>
        <time>2017-02-27T15:32:29Z</time>
      </trkpt>
      <trkpt lat="43.08227" lon="6.03342">
        <ele>86.020118713379</ele>
        <time>2017-02-27T15:32:32Z</time>
      </trkpt>
      <trkpt lat="43.08226" lon="6.0335">
        <ele>87.029281616211</ele>
        <time>2017-02-27T15:32:34Z</time>
      </trkpt>
      <trkpt lat="43.08225" lon="6.03355">
        <ele>87.897232055664</ele>
        <time>2017-02-27T15:32:36Z</time>
      </trkpt>
      <trkpt lat="43.08224" lon="6.03362">
        <ele>88.75651550293</ele>
        <time>2017-02-27T15:32:39Z</time>
      </trkpt>
      <trkpt lat="43.08224" lon="6.03367">
        <ele>89.51774597168</ele>
        <time>2017-02-27T15:32:41Z</time>
      </trkpt>
      <trkpt lat="43.08224" lon="6.03373">
        <ele>90.138565063477</ele>
        <time>2017-02-27T15:32:43Z</time>
      </trkpt>
      <trkpt lat="43.08221" lon="6.03381">
        <ele>90.786697387695</ele>
        <time>2017-02-27T15:32:46Z</time>
      </trkpt>
      <trkpt lat="43.0822" lon="6.03385">
        <ele>91.450302124023</ele>
        <time>2017-02-27T15:32:48Z</time>
      </trkpt>
      <trkpt lat="43.08216" lon="6.03391">
        <ele>92.167678833008</ele>
        <time>2017-02-27T15:32:51Z</time>
      </trkpt>
      <trkpt lat="43.08215" lon="6.03396">
        <ele>92.900405883789</ele>
        <time>2017-02-27T15:32:53Z</time>
      </trkpt>
      <trkpt lat="43.08213" lon="6.03403">
        <ele>93.725387573242</ele>
        <time>2017-02-27T15:32:56Z</time>
      </trkpt>
      <trkpt lat="43.0821" lon="6.03409">
        <ele>94.444961547852</ele>
        <time>2017-02-27T15:32:59Z</time>
      </trkpt>
      <trkpt lat="43.08207" lon="6.03415">
        <ele>95.173812866211</ele>
        <time>2017-02-27T15:33:02Z</time>
      </trkpt>
      <trkpt lat="43.08204" lon="6.0342">
        <ele>95.840034484863</ele>
        <time>2017-02-27T15:33:05Z</time>
      </trkpt>
      <trkpt lat="43.08202" lon="6.03425">
        <ele>96.475692749023</ele>
        <time>2017-02-27T15:33:07Z</time>
      </trkpt>
      <trkpt lat="43.082" lon="6.03429">
        <ele>96.988174438477</ele>
        <time>2017-02-27T15:33:09Z</time>
      </trkpt>
      <trkpt lat="43.08199" lon="6.03438">
        <ele>97.424240112305</ele>
        <time>2017-02-27T15:33:12Z</time>
      </trkpt>
      <trkpt lat="43.08198" lon="6.03445">
        <ele>97.754638671875</ele>
        <time>2017-02-27T15:33:14Z</time>
      </trkpt>
      <trkpt lat="43.08197" lon="6.03449">
        <ele>97.982696533203</ele>
        <time>2017-02-27T15:33:16Z</time>
      </trkpt>
      <trkpt lat="43.08194" lon="6.03456">
        <ele>98.179191589355</ele>
        <time>2017-02-27T15:33:19Z</time>
      </trkpt>
      <trkpt lat="43.08192" lon="6.0346">
        <ele>98.337928771973</ele>
        <time>2017-02-27T15:33:21Z</time>
      </trkpt>
      <trkpt lat="43.08191" lon="6.03466">
        <ele>98.443496704102</ele>
        <time>2017-02-27T15:33:23Z</time>
      </trkpt>
      <trkpt lat="43.08189" lon="6.03474">
        <ele>98.512901306152</ele>
        <time>2017-02-27T15:33:26Z</time>
      </trkpt>
      <trkpt lat="43.08189" lon="6.03478">
        <ele>98.555221557617</ele>
        <time>2017-02-27T15:33:28Z</time>
      </trkpt>
      <trkpt lat="43.0819" lon="6.03486">
        <ele>98.551292419434</ele>
        <time>2017-02-27T15:33:31Z</time>
      </trkpt>
      <trkpt lat="43.08187" lon="6.03491">
        <ele>98.509048461914</ele>
        <time>2017-02-27T15:33:33Z</time>
      </trkpt>
      <trkpt lat="43.08184" lon="6.03492">
        <ele>98.428833007812</ele>
        <time>2017-02-27T15:33:36Z</time>
      </trkpt>
      <trkpt lat="43.08183" lon="6.03493">
        <ele>98.34211730957</ele>
        <time>2017-02-27T15:33:38Z</time>
      </trkpt>
      <trkpt lat="43.08182" lon="6.03497">
        <ele>98.236259460449</ele>
        <time>2017-02-27T15:33:41Z</time>
      </trkpt>
      <trkpt lat="43.08178" lon="6.03502">
        <ele>98.094413757324</ele>
        <time>2017-02-27T15:33:44Z</time>
      </trkpt>
      <trkpt lat="43.08176" lon="6.03507">
        <ele>97.961532592773</ele>
        <time>2017-02-27T15:33:46Z</time>
      </trkpt>
      <trkpt lat="43.08173" lon="6.03511">
        <ele>97.84733581543</ele>
        <time>2017-02-27T15:33:48Z</time>
      </trkpt>
      <trkpt lat="43.08171" lon="6.03515">
        <ele>97.724967956543</ele>
        <time>2017-02-27T15:33:50Z</time>
      </trkpt>
      <trkpt lat="43.08168" lon="6.03523">
        <ele>97.608993530273</ele>
        <time>2017-02-27T15:33:53Z</time>
      </trkpt>
      <trkpt lat="43.08165" lon="6.0353">
        <ele>97.505264282227</ele>
        <time>2017-02-27T15:33:56Z</time>
      </trkpt>
      <trkpt lat="43.08164" lon="6.03535">
        <ele>97.401412963867</ele>
        <time>2017-02-27T15:33:58Z</time>
      </trkpt>
      <trkpt lat="43.08158" lon="6.0354">
        <ele>97.190330505371</ele>
        <time>2017-02-27T15:34:01Z</time>
      </trkpt>
      <trkpt lat="43.08154" lon="6.03543">
        <ele>96.915115356445</ele>
        <time>2017-02-27T15:34:03Z</time>
      </trkpt>
      <trkpt lat="43.0815" lon="6.03548">
        <ele>96.527618408203</ele>
        <time>2017-02-27T15:34:06Z</time>
      </trkpt>
      <trkpt lat="43.08146" lon="6.03553">
        <ele>96.027694702148</ele>
        <time>2017-02-27T15:34:09Z</time>
      </trkpt>
      <trkpt lat="43.08144" lon="6.03557">
        <ele>95.459663391113</ele>
        <time>2017-02-27T15:34:11Z</time>
      </trkpt>
      <trkpt lat="43.08141" lon="6.03561">
        <ele>94.88916015625</ele>
        <time>2017-02-27T15:34:13Z</time>
      </trkpt>
      <trkpt lat="43.08137" lon="6.03567">
        <ele>94.188125610352</ele>
        <time>2017-02-27T15:34:16Z</time>
      </trkpt>
      <trkpt lat="43.08134" lon="6.03571">
        <ele>93.47371673584</ele>
        <time>2017-02-27T15:34:18Z</time>
      </trkpt>
      <trkpt lat="43.08131" lon="6.03578">
        <ele>92.672424316406</ele>
        <time>2017-02-27T15:34:21Z</time>
      </trkpt>
      <trkpt lat="43.08127" lon="6.03584">
        <ele>91.697059631348</ele>
        <time>2017-02-27T15:34:24Z</time>
      </trkpt>
      <trkpt lat="43.08125" lon="6.03588">
        <ele>90.765487670898</ele>
        <time>2017-02-27T15:34:26Z</time>
      </trkpt>
      <trkpt lat="43.08121" lon="6.03593">
        <ele>89.920127868652</ele>
        <time>2017-02-27T15:34:29Z</time>
      </trkpt>
      <trkpt lat="43.08117" lon="6.03598">
        <ele>89.047103881836</ele>
        <time>2017-02-27T15:34:32Z</time>
      </trkpt>
      <trkpt lat="43.08111" lon="6.03603">
        <ele>88.178916931152</ele>
        <time>2017-02-27T15:34:35Z</time>
      </trkpt>
      <trkpt lat="43.08108" lon="6.03607">
        <ele>87.44287109375</ele>
        <time>2017-02-27T15:34:37Z</time>
      </trkpt>
      <trkpt lat="43.08105" lon="6.03613">
        <ele>86.625625610352</ele>
        <time>2017-02-27T15:34:40Z</time>
      </trkpt>
      <trkpt lat="43.08103" lon="6.03618">
        <ele>85.847885131836</ele>
        <time>2017-02-27T15:34:42Z</time>
      </trkpt>
      <trkpt lat="43.08102" lon="6.03624">
        <ele>85.212020874023</ele>
        <time>2017-02-27T15:34:44Z</time>
      </trkpt>
      <trkpt lat="43.081" lon="6.03632">
        <ele>84.708129882812</ele>
        <time>2017-02-27T15:34:47Z</time>
      </trkpt>
      <trkpt lat="43.08099" lon="6.03637">
        <ele>84.267509460449</ele>
        <time>2017-02-27T15:34:49Z</time>
      </trkpt>
      <trkpt lat="43.08098" lon="6.03646">
        <ele>83.974601745605</ele>
        <time>2017-02-27T15:34:52Z</time>
      </trkpt>
      <trkpt lat="43.08097" lon="6.03653">
        <ele>83.708564758301</ele>
        <time>2017-02-27T15:34:55Z</time>
      </trkpt>
      <trkpt lat="43.08096" lon="6.03659">
        <ele>83.453147888184</ele>
        <time>2017-02-27T15:34:57Z</time>
      </trkpt>
      <trkpt lat="43.08094" lon="6.03666">
        <ele>83.120681762695</ele>
        <time>2017-02-27T15:35:00Z</time>
      </trkpt>
      <trkpt lat="43.08092" lon="6.03674">
        <ele>82.778289794922</ele>
        <time>2017-02-27T15:35:03Z</time>
      </trkpt>
      <trkpt lat="43.08091" lon="6.03681">
        <ele>82.374244689941</ele>
        <time>2017-02-27T15:35:06Z</time>
      </trkpt>
      <trkpt lat="43.08089" lon="6.03689">
        <ele>82.01163482666</ele>
        <time>2017-02-27T15:35:09Z</time>
      </trkpt>
      <trkpt lat="43.08089" lon="6.03694">
        <ele>81.633399963379</ele>
        <time>2017-02-27T15:35:11Z</time>
      </trkpt>
      <trkpt lat="43.08087" lon="6.03701">
        <ele>81.311904907227</ele>
        <time>2017-02-27T15:35:14Z</time>
      </trkpt>
      <trkpt lat="43.08086" lon="6.03706">
        <ele>81.047988891602</ele>
        <time>2017-02-27T15:35:16Z</time>
      </trkpt>
      <trkpt lat="43.08086" lon="6.03712">
        <ele>80.847778320312</ele>
        <time>2017-02-27T15:35:18Z</time>
      </trkpt>
      <trkpt lat="43.08086" lon="6.03722">
        <ele>80.669441223145</ele>
        <time>2017-02-27T15:35:21Z</time>
      </trkpt>
      <trkpt lat="43.08086" lon="6.03731">
        <ele>80.585624694824</ele>
        <time>2017-02-27T15:35:24Z</time>
      </trkpt>
      <trkpt lat="43.08086" lon="6.03737">
        <ele>80.635635375977</ele>
        <time>2017-02-27T15:35:26Z</time>
      </trkpt>
      <trkpt lat="43.08086" lon="6.03742">
        <ele>80.68221282959</ele>
        <time>2017-02-27T15:35:28Z</time>
      </trkpt>
      <trkpt lat="43.08086" lon="6.03748">
        <ele>80.756332397461</ele>
        <time>2017-02-27T15:35:30Z</time>
      </trkpt>
      <trkpt lat="43.08085" lon="6.03756">
        <ele>80.83341217041</ele>
        <time>2017-02-27T15:35:33Z</time>
      </trkpt>
      <trkpt lat="43.08084" lon="6.03762">
        <ele>80.814384460449</ele>
        <time>2017-02-27T15:35:35Z</time>
      </trkpt>
      <trkpt lat="43.08083" lon="6.03767">
        <ele>80.735855102539</ele>
        <time>2017-02-27T15:35:37Z</time>
      </trkpt>
      <trkpt lat="43.08081" lon="6.03774">
        <ele>80.530410766602</ele>
        <time>2017-02-27T15:35:40Z</time>
      </trkpt>
      <trkpt lat="43.08078" lon="6.03778">
        <ele>80.127944946289</ele>
        <time>2017-02-27T15:35:42Z</time>
      </trkpt>
      <trkpt lat="43.08075" lon="6.03785">
        <ele>79.519607543945</ele>
        <time>2017-02-27T15:35:45Z</time>
      </trkpt>
      <trkpt lat="43.08072" lon="6.03791">
        <ele>78.741485595703</ele>
        <time>2017-02-27T15:35:48Z</time>
      </trkpt>
      <trkpt lat="43.0807" lon="6.03795">
        <ele>77.906036376953</ele>
        <time>2017-02-27T15:35:50Z</time>
      </trkpt>
      <trkpt lat="43.08068" lon="6.03803">
        <ele>77.125411987305</ele>
        <time>2017-02-27T15:35:53Z</time>
      </trkpt>
      <trkpt lat="43.08068" lon="6.03809">
        <ele>76.490356445312</ele>
        <time>2017-02-27T15:35:55Z</time>
      </trkpt>
      <trkpt lat="43.08068" lon="6.03813">
        <ele>76.076530456543</ele>
        <time>2017-02-27T15:35:57Z</time>
      </trkpt>
      <trkpt lat="43.08068" lon="6.03821">
        <ele>75.963439941406</ele>
        <time>2017-02-27T15:36:00Z</time>
      </trkpt>
      <trkpt lat="43.0807" lon="6.0383">
        <ele>76.133018493652</ele>
        <time>2017-02-27T15:36:03Z</time>
      </trkpt>
      <trkpt lat="43.08073" lon="6.03838">
        <ele>76.548889160156</ele>
        <time>2017-02-27T15:36:06Z</time>
      </trkpt>
      <trkpt lat="43.08073" lon="6.03843">
        <ele>77.052047729492</ele>
        <time>2017-02-27T15:36:08Z</time>
      </trkpt>
      <trkpt lat="43.08073" lon="6.03847">
        <ele>77.529266357422</ele>
        <time>2017-02-27T15:36:10Z</time>
      </trkpt>
      <trkpt lat="43.08073" lon="6.03855">
        <ele>77.89949798584</ele>
        <time>2017-02-27T15:36:13Z</time>
      </trkpt>
      <trkpt lat="43.08073" lon="6.03861">
        <ele>78.075698852539</ele>
        <time>2017-02-27T15:36:15Z</time>
      </trkpt>
      <trkpt lat="43.08073" lon="6.03869">
        <ele>78.078079223633</ele>
        <time>2017-02-27T15:36:18Z</time>
      </trkpt>
      <trkpt lat="43.08073" lon="6.03877">
        <ele>77.985397338867</ele>
        <time>2017-02-27T15:36:21Z</time>
      </trkpt>
      <trkpt lat="43.08073" lon="6.03883">
        <ele>77.863258361816</ele>
        <time>2017-02-27T15:36:23Z</time>
      </trkpt>
      <trkpt lat="43.08072" lon="6.03889">
        <ele>77.71467590332</ele>
        <time>2017-02-27T15:36:26Z</time>
      </trkpt>
      <trkpt lat="43.08071" lon="6.03894">
        <ele>77.509338378906</ele>
        <time>2017-02-27T15:36:28Z</time>
      </trkpt>
      <trkpt lat="43.0807" lon="6.039">
        <ele>77.223907470703</ele>
        <time>2017-02-27T15:36:30Z</time>
      </trkpt>
      <trkpt lat="43.08069" lon="6.03906">
        <ele>76.88737487793</ele>
        <time>2017-02-27T15:36:32Z</time>
      </trkpt>
      <trkpt lat="43.08067" lon="6.03911">
        <ele>76.466506958008</ele>
        <time>2017-02-27T15:36:34Z</time>
      </trkpt>
      <trkpt lat="43.08065" lon="6.0392">
        <ele>75.945831298828</ele>
        <time>2017-02-27T15:36:37Z</time>
      </trkpt>
      <trkpt lat="43.08064" lon="6.03925">
        <ele>75.350624084473</ele>
        <time>2017-02-27T15:36:39Z</time>
      </trkpt>
      <trkpt lat="43.08062" lon="6.03933">
        <ele>74.645736694336</ele>
        <time>2017-02-27T15:36:42Z</time>
      </trkpt>
      <trkpt lat="43.0806" lon="6.03937">
        <ele>73.907516479492</ele>
        <time>2017-02-27T15:36:44Z</time>
      </trkpt>
      <trkpt lat="43.08057" lon="6.03943">
        <ele>73.05135345459</ele>
        <time>2017-02-27T15:36:47Z</time>
      </trkpt>
      <trkpt lat="43.08054" lon="6.03949">
        <ele>72.10425567627</ele>
        <time>2017-02-27T15:36:50Z</time>
      </trkpt>
      <trkpt lat="43.08052" lon="6.03955">
        <ele>71.178504943848</ele>
        <time>2017-02-27T15:36:52Z</time>
      </trkpt>
      <trkpt lat="43.08051" lon="6.03963">
        <ele>70.382766723633</ele>
        <time>2017-02-27T15:36:55Z</time>
      </trkpt>
      <trkpt lat="43.08051" lon="6.03972">
        <ele>69.712265014648</ele>
        <time>2017-02-27T15:36:58Z</time>
      </trkpt>
      <trkpt lat="43.08052" lon="6.03977">
        <ele>69.288635253906</ele>
        <time>2017-02-27T15:37:00Z</time>
      </trkpt>
      <trkpt lat="43.08052" lon="6.03983">
        <ele>69.12361907959</ele>
        <time>2017-02-27T15:37:02Z</time>
      </trkpt>
      <trkpt lat="43.08055" lon="6.03991">
        <ele>69.184646606445</ele>
        <time>2017-02-27T15:37:05Z</time>
      </trkpt>
      <trkpt lat="43.0806" lon="6.03997">
        <ele>69.557922363281</ele>
        <time>2017-02-27T15:37:08Z</time>
      </trkpt>
      <trkpt lat="43.08064" lon="6.04001">
        <ele>70.154495239258</ele>
        <time>2017-02-27T15:37:10Z</time>
      </trkpt>
      <trkpt lat="43.08071" lon="6.04005">
        <ele>71.076286315918</ele>
        <time>2017-02-27T15:37:13Z</time>
      </trkpt>
      <trkpt lat="43.08075" lon="6.04007">
        <ele>72.179138183594</ele>
        <time>2017-02-27T15:37:15Z</time>
      </trkpt>
      <trkpt lat="43.08081" lon="6.04011">
        <ele>73.491493225098</ele>
        <time>2017-02-27T15:37:18Z</time>
      </trkpt>
      <trkpt lat="43.08085" lon="6.04012">
        <ele>74.799026489258</ele>
        <time>2017-02-27T15:37:20Z</time>
      </trkpt>
      <trkpt lat="43.0809" lon="6.04016">
        <ele>76.189422607422</ele>
        <time>2017-02-27T15:37:23Z</time>
      </trkpt>
      <trkpt lat="43.08093" lon="6.0402">
        <ele>77.449409484863</ele>
        <time>2017-02-27T15:37:25Z</time>
      </trkpt>
      <trkpt lat="43.08096" lon="6.04028">
        <ele>78.646926879883</ele>
        <time>2017-02-27T15:37:28Z</time>
      </trkpt>
      <trkpt lat="43.08093" lon="6.04037">
        <ele>79.356605529785</ele>
        <time>2017-02-27T15:37:31Z</time>
      </trkpt>
      <trkpt lat="43.08089" lon="6.04045">
        <ele>79.552108764648</ele>
        <time>2017-02-27T15:37:34Z</time>
      </trkpt>
      <trkpt lat="43.08084" lon="6.04052">
        <ele>79.105209350586</ele>
        <time>2017-02-27T15:37:37Z</time>
      </trkpt>
      <trkpt lat="43.0808" lon="6.04058">
        <ele>78.18180847168</ele>
        <time>2017-02-27T15:37:40Z</time>
      </trkpt>
      <trkpt lat="43.08076" lon="6.04062">
        <ele>76.91796875</ele>
        <time>2017-02-27T15:37:42Z</time>
      </trkpt>
      <trkpt lat="43.08072" lon="6.04069">
        <ele>75.530914306641</ele>
        <time>2017-02-27T15:37:45Z</time>
      </trkpt>
      <trkpt lat="43.08067" lon="6.04074">
        <ele>74.153968811035</ele>
        <time>2017-02-27T15:37:48Z</time>
      </trkpt>
      <trkpt lat="43.08064" lon="6.04077">
        <ele>72.943313598633</ele>
        <time>2017-02-27T15:37:50Z</time>
      </trkpt>
      <trkpt lat="43.0806" lon="6.04082">
        <ele>71.733322143555</ele>
        <time>2017-02-27T15:37:53Z</time>
      </trkpt>
      <trkpt lat="43.08055" lon="6.04088">
        <ele>70.392860412598</ele>
        <time>2017-02-27T15:37:56Z</time>
      </trkpt>
      <trkpt lat="43.0805" lon="6.04095">
        <ele>69.066970825195</ele>
        <time>2017-02-27T15:37:59Z</time>
      </trkpt>
      <trkpt lat="43.08047" lon="6.04099">
        <ele>67.856956481934</ele>
        <time>2017-02-27T15:38:01Z</time>
      </trkpt>
      <trkpt lat="43.08043" lon="6.04106">
        <ele>66.536972045898</ele>
        <time>2017-02-27T15:38:04Z</time>
      </trkpt>
      <trkpt lat="43.08041" lon="6.0411">
        <ele>65.335113525391</ele>
        <time>2017-02-27T15:38:06Z</time>
      </trkpt>
      <trkpt lat="43.08037" lon="6.04117">
        <ele>64.192153930664</ele>
        <time>2017-02-27T15:38:09Z</time>
      </trkpt>
      <trkpt lat="43.08034" lon="6.04125">
        <ele>63.158233642578</ele>
        <time>2017-02-27T15:38:12Z</time>
      </trkpt>
      <trkpt lat="43.08031" lon="6.04132">
        <ele>62.036933898926</ele>
        <time>2017-02-27T15:38:15Z</time>
      </trkpt>
      <trkpt lat="43.08029" lon="6.04139">
        <ele>61.075981140137</ele>
        <time>2017-02-27T15:38:17Z</time>
      </trkpt>
      <trkpt lat="43.08029" lon="6.04148">
        <ele>60.233268737793</ele>
        <time>2017-02-27T15:38:20Z</time>
      </trkpt>
      <trkpt lat="43.08029" lon="6.04154">
        <ele>59.634784698486</ele>
        <time>2017-02-27T15:38:22Z</time>
      </trkpt>
      <trkpt lat="43.08031" lon="6.04161">
        <ele>59.303489685059</ele>
        <time>2017-02-27T15:38:25Z</time>
      </trkpt>
      <trkpt lat="43.08032" lon="6.04166">
        <ele>59.244750976562</ele>
        <time>2017-02-27T15:38:27Z</time>
      </trkpt>
      <trkpt lat="43.08034" lon="6.04174">
        <ele>59.319324493408</ele>
        <time>2017-02-27T15:38:30Z</time>
      </trkpt>
      <trkpt lat="43.08035" lon="6.04179">
        <ele>59.44730758667</ele>
        <time>2017-02-27T15:38:32Z</time>
      </trkpt>
      <trkpt lat="43.08038" lon="6.04187">
        <ele>59.588920593262</ele>
        <time>2017-02-27T15:38:35Z</time>
      </trkpt>
      <trkpt lat="43.08039" lon="6.04194">
        <ele>59.605133056641</ele>
        <time>2017-02-27T15:38:39Z</time>
      </trkpt>
      <trkpt lat="43.0804" lon="6.042">
        <ele>59.547557830811</ele>
        <time>2017-02-27T15:38:41Z</time>
      </trkpt>
      <trkpt lat="43.08041" lon="6.04202">
        <ele>59.475921630859</ele>
        <time>2017-02-27T15:38:43Z</time>
      </trkpt>
      <trkpt lat="43.08043" lon="6.04207">
        <ele>59.418529510498</ele>
        <time>2017-02-27T15:38:46Z</time>
      </trkpt>
      <trkpt lat="43.08044" lon="6.04211">
        <ele>59.379993438721</ele>
        <time>2017-02-27T15:38:48Z</time>
      </trkpt>
      <trkpt lat="43.08047" lon="6.0422">
        <ele>59.372375488281</ele>
        <time>2017-02-27T15:38:51Z</time>
      </trkpt>
      <trkpt lat="43.08049" lon="6.04227">
        <ele>59.38671875</ele>
        <time>2017-02-27T15:38:54Z</time>
      </trkpt>
      <trkpt lat="43.08051" lon="6.04235">
        <ele>59.338054656982</ele>
        <time>2017-02-27T15:38:57Z</time>
      </trkpt>
      <trkpt lat="43.08051" lon="6.04241">
        <ele>59.140460968018</ele>
        <time>2017-02-27T15:39:00Z</time>
      </trkpt>
      <trkpt lat="43.08051" lon="6.0425">
        <ele>58.792533874512</ele>
        <time>2017-02-27T15:39:02Z</time>
      </trkpt>
      <trkpt lat="43.08054" lon="6.04256">
        <ele>58.435737609863</ele>
        <time>2017-02-27T15:39:05Z</time>
      </trkpt>
      <trkpt lat="43.08058" lon="6.04261">
        <ele>58.224750518799</ele>
        <time>2017-02-27T15:39:08Z</time>
      </trkpt>
      <trkpt lat="43.08061" lon="6.04262">
        <ele>58.208763122559</ele>
        <time>2017-02-27T15:39:10Z</time>
      </trkpt>
      <trkpt lat="43.08066" lon="6.04264">
        <ele>58.48592376709</ele>
        <time>2017-02-27T15:39:13Z</time>
      </trkpt>
      <trkpt lat="43.08068" lon="6.04265">
        <ele>58.995239257812</ele>
        <time>2017-02-27T15:39:15Z</time>
      </trkpt>
      <trkpt lat="43.08074" lon="6.04268">
        <ele>59.738159179688</ele>
        <time>2017-02-27T15:39:18Z</time>
      </trkpt>
      <trkpt lat="43.08077" lon="6.04271">
        <ele>60.451904296875</ele>
        <time>2017-02-27T15:39:20Z</time>
      </trkpt>
      <trkpt lat="43.08079" lon="6.04276">
        <ele>61.038452148438</ele>
        <time>2017-02-27T15:39:22Z</time>
      </trkpt>
      <trkpt lat="43.08078" lon="6.04282">
        <ele>61.302612304688</ele>
        <time>2017-02-27T15:39:24Z</time>
      </trkpt>
      <trkpt lat="43.08076" lon="6.04289">
        <ele>61.28125</ele>
        <time>2017-02-27T15:39:27Z</time>
      </trkpt>
      <trkpt lat="43.08074" lon="6.04291">
        <ele>60.882446289062</ele>
        <time>2017-02-27T15:39:29Z</time>
      </trkpt>
      <trkpt lat="43.08071" lon="6.04293">
        <ele>60.241821289062</ele>
        <time>2017-02-27T15:39:31Z</time>
      </trkpt>
      <trkpt lat="43.08068" lon="6.04295">
        <ele>59.415283203125</ele>
        <time>2017-02-27T15:39:33Z</time>
      </trkpt>
      <trkpt lat="43.08062" lon="6.04297">
        <ele>58.436157226562</ele>
        <time>2017-02-27T15:39:36Z</time>
      </trkpt>
      <trkpt lat="43.08058" lon="6.04301">
        <ele>57.40380859375</ele>
        <time>2017-02-27T15:39:39Z</time>
      </trkpt>
      <trkpt lat="43.08055" lon="6.04304">
        <ele>56.318725585938</ele>
        <time>2017-02-27T15:39:41Z</time>
      </trkpt>
      <trkpt lat="43.08052" lon="6.04309">
        <ele>55.181762695312</ele>
        <time>2017-02-27T15:39:43Z</time>
      </trkpt>
      <trkpt lat="43.08047" lon="6.04315">
        <ele>53.903930664062</ele>
        <time>2017-02-27T15:39:46Z</time>
      </trkpt>
      <trkpt lat="43.08044" lon="6.04319">
        <ele>52.721801757812</ele>
        <time>2017-02-27T15:39:48Z</time>
      </trkpt>
      <trkpt lat="43.08041" lon="6.04328">
        <ele>51.487915039062</ele>
        <time>2017-02-27T15:39:51Z</time>
      </trkpt>
      <trkpt lat="43.08039" lon="6.04336">
        <ele>50.214344024658</ele>
        <time>2017-02-27T15:39:54Z</time>
      </trkpt>
      <trkpt lat="43.08037" lon="6.04342">
        <ele>48.983432769775</ele>
        <time>2017-02-27T15:39:56Z</time>
      </trkpt>
      <trkpt lat="43.08038" lon="6.04353">
        <ele>47.933410644531</ele>
        <time>2017-02-27T15:39:59Z</time>
      </trkpt>
      <trkpt lat="43.08039" lon="6.04359">
        <ele>47.082550048828</ele>
        <time>2017-02-27T15:40:01Z</time>
      </trkpt>
      <trkpt lat="43.08041" lon="6.04364">
        <ele>46.546180725098</ele>
        <time>2017-02-27T15:40:03Z</time>
      </trkpt>
      <trkpt lat="43.08044" lon="6.04373">
        <ele>46.26887512207</ele>
        <time>2017-02-27T15:40:06Z</time>
      </trkpt>
      <trkpt lat="43.08047" lon="6.04381">
        <ele>46.190868377686</ele>
        <time>2017-02-27T15:40:09Z</time>
      </trkpt>
      <trkpt lat="43.0805" lon="6.04388">
        <ele>46.290843963623</ele>
        <time>2017-02-27T15:40:12Z</time>
      </trkpt>
      <trkpt lat="43.08053" lon="6.04393">
        <ele>46.488647460938</ele>
        <time>2017-02-27T15:40:14Z</time>
      </trkpt>
      <trkpt lat="43.08056" lon="6.04401">
        <ele>46.704132080078</ele>
        <time>2017-02-27T15:40:17Z</time>
      </trkpt>
      <trkpt lat="43.08059" lon="6.0441">
        <ele>46.930244445801</ele>
        <time>2017-02-27T15:40:20Z</time>
      </trkpt>
      <trkpt lat="43.08062" lon="6.04418">
        <ele>47.164604187012</ele>
        <time>2017-02-27T15:40:23Z</time>
      </trkpt>
      <trkpt lat="43.08065" lon="6.04424">
        <ele>47.440200805664</ele>
        <time>2017-02-27T15:40:25Z</time>
      </trkpt>
      <trkpt lat="43.08068" lon="6.04432">
        <ele>47.669548034668</ele>
        <time>2017-02-27T15:40:28Z</time>
      </trkpt>
      <trkpt lat="43.0807" lon="6.04437">
        <ele>47.908294677734</ele>
        <time>2017-02-27T15:40:30Z</time>
      </trkpt>
      <trkpt lat="43.08072" lon="6.04444">
        <ele>48.135322570801</ele>
        <time>2017-02-27T15:40:33Z</time>
      </trkpt>
      <trkpt lat="43.08074" lon="6.04448">
        <ele>48.341697692871</ele>
        <time>2017-02-27T15:40:35Z</time>
      </trkpt>
      <trkpt lat="43.08079" lon="6.04456">
        <ele>48.636692047119</ele>
        <time>2017-02-27T15:40:38Z</time>
      </trkpt>
      <trkpt lat="43.08084" lon="6.04459">
        <ele>49.114505767822</ele>
        <time>2017-02-27T15:40:41Z</time>
      </trkpt>
      <trkpt lat="43.08087" lon="6.04462">
        <ele>49.674819946289</ele>
        <time>2017-02-27T15:40:43Z</time>
      </trkpt>
      <trkpt lat="43.08092" lon="6.04466">
        <ele>50.469116210938</ele>
        <time>2017-02-27T15:40:46Z</time>
      </trkpt>
      <trkpt lat="43.08095" lon="6.04468">
        <ele>51.362953186035</ele>
        <time>2017-02-27T15:40:48Z</time>
      </trkpt>
      <trkpt lat="43.081" lon="6.04473">
        <ele>52.301147460938</ele>
        <time>2017-02-27T15:40:51Z</time>
      </trkpt>
      <trkpt lat="43.08102" lon="6.04477">
        <ele>53.106811523438</ele>
        <time>2017-02-27T15:40:53Z</time>
      </trkpt>
      <trkpt lat="43.08107" lon="6.04481">
        <ele>54.024047851562</ele>
        <time>2017-02-27T15:40:56Z</time>
      </trkpt>
      <trkpt lat="43.0811" lon="6.04484">
        <ele>54.815673828125</ele>
        <time>2017-02-27T15:40:58Z</time>
      </trkpt>
      <trkpt lat="43.08113" lon="6.04488">
        <ele>55.566528320312</ele>
        <time>2017-02-27T15:41:00Z</time>
      </trkpt>
      <trkpt lat="43.08112" lon="6.04498">
        <ele>55.963745117188</ele>
        <time>2017-02-27T15:41:03Z</time>
      </trkpt>
      <trkpt lat="43.0811" lon="6.04505">
        <ele>56.097370147705</ele>
        <time>2017-02-27T15:41:05Z</time>
      </trkpt>
      <trkpt lat="43.08107" lon="6.04511">
        <ele>55.841957092285</ele>
        <time>2017-02-27T15:41:07Z</time>
      </trkpt>
      <trkpt lat="43.08106" lon="6.04519">
        <ele>55.349449157715</ele>
        <time>2017-02-27T15:41:10Z</time>
      </trkpt>
      <trkpt lat="43.08104" lon="6.04527">
        <ele>54.606281280518</ele>
        <time>2017-02-27T15:41:13Z</time>
      </trkpt>
      <trkpt lat="43.08102" lon="6.04531">
        <ele>53.923839569092</ele>
        <time>2017-02-27T15:41:15Z</time>
      </trkpt>
      <trkpt lat="43.08101" lon="6.04539">
        <ele>53.288562774658</ele>
        <time>2017-02-27T15:41:18Z</time>
      </trkpt>
      <trkpt lat="43.081" lon="6.04547">
        <ele>52.754432678223</ele>
        <time>2017-02-27T15:41:21Z</time>
      </trkpt>
      <trkpt lat="43.081" lon="6.04556">
        <ele>52.305458068848</ele>
        <time>2017-02-27T15:41:24Z</time>
      </trkpt>
      <trkpt lat="43.08101" lon="6.04562">
        <ele>52.024688720703</ele>
        <time>2017-02-27T15:41:26Z</time>
      </trkpt>
      <trkpt lat="43.08101" lon="6.04568">
        <ele>51.808917999268</ele>
        <time>2017-02-27T15:41:28Z</time>
      </trkpt>
      <trkpt lat="43.08102" lon="6.04577">
        <ele>51.761497497559</ele>
        <time>2017-02-27T15:41:31Z</time>
      </trkpt>
      <trkpt lat="43.08103" lon="6.04584">
        <ele>51.815593719482</ele>
        <time>2017-02-27T15:41:34Z</time>
      </trkpt>
      <trkpt lat="43.08104" lon="6.04588">
        <ele>51.921001434326</ele>
        <time>2017-02-27T15:41:36Z</time>
      </trkpt>
      <trkpt lat="43.08105" lon="6.04596">
        <ele>52.018127441406</ele>
        <time>2017-02-27T15:41:39Z</time>
      </trkpt>
      <trkpt lat="43.08107" lon="6.04604">
        <ele>52.214195251465</ele>
        <time>2017-02-27T15:41:42Z</time>
      </trkpt>
      <trkpt lat="43.08109" lon="6.04611">
        <ele>52.471710205078</ele>
        <time>2017-02-27T15:41:45Z</time>
      </trkpt>
      <trkpt lat="43.08111" lon="6.04616">
        <ele>52.751121520996</ele>
        <time>2017-02-27T15:41:47Z</time>
      </trkpt>
      <trkpt lat="43.08113" lon="6.04624">
        <ele>53.086158752441</ele>
        <time>2017-02-27T15:41:50Z</time>
      </trkpt>
      <trkpt lat="43.08115" lon="6.04631">
        <ele>53.530174255371</ele>
        <time>2017-02-27T15:41:53Z</time>
      </trkpt>
      <trkpt lat="43.08118" lon="6.04639">
        <ele>54.0048828125</ele>
        <time>2017-02-27T15:41:56Z</time>
      </trkpt>
      <trkpt lat="43.08119" lon="6.04646">
        <ele>54.433898925781</ele>
        <time>2017-02-27T15:41:59Z</time>
      </trkpt>
      <trkpt lat="43.08121" lon="6.04652">
        <ele>54.856254577637</ele>
        <time>2017-02-27T15:42:02Z</time>
      </trkpt>
      <trkpt lat="43.08122" lon="6.04657">
        <ele>55.223796844482</ele>
        <time>2017-02-27T15:42:04Z</time>
      </trkpt>
      <trkpt lat="43.08123" lon="6.04664">
        <ele>55.521873474121</ele>
        <time>2017-02-27T15:42:07Z</time>
      </trkpt>
      <trkpt lat="43.08125" lon="6.04671">
        <ele>55.782341003418</ele>
        <time>2017-02-27T15:42:10Z</time>
      </trkpt>
      <trkpt lat="43.08126" lon="6.04675">
        <ele>56.036773681641</ele>
        <time>2017-02-27T15:42:12Z</time>
      </trkpt>
      <trkpt lat="43.08128" lon="6.04682">
        <ele>56.255504608154</ele>
        <time>2017-02-27T15:42:15Z</time>
      </trkpt>
      <trkpt lat="43.0813" lon="6.04687">
        <ele>56.529705047607</ele>
        <time>2017-02-27T15:42:17Z</time>
      </trkpt>
      <trkpt lat="43.08132" lon="6.04694">
        <ele>56.816764831543</ele>
        <time>2017-02-27T15:42:20Z</time>
      </trkpt>
      <trkpt lat="43.08133" lon="6.04699">
        <ele>57.023864746094</ele>
        <time>2017-02-27T15:42:22Z</time>
      </trkpt>
      <trkpt lat="43.08134" lon="6.04705">
        <ele>57.194183349609</ele>
        <time>2017-02-27T15:42:24Z</time>
      </trkpt>
      <trkpt lat="43.08136" lon="6.04713">
        <ele>57.345756530762</ele>
        <time>2017-02-27T15:42:27Z</time>
      </trkpt>
      <trkpt lat="43.08137" lon="6.04722">
        <ele>57.396381378174</ele>
        <time>2017-02-27T15:42:30Z</time>
      </trkpt>
      <trkpt lat="43.08138" lon="6.04729">
        <ele>57.349456787109</ele>
        <time>2017-02-27T15:42:32Z</time>
      </trkpt>
      <trkpt lat="43.08139" lon="6.04737">
        <ele>57.293434143066</ele>
        <time>2017-02-27T15:42:35Z</time>
      </trkpt>
      <trkpt lat="43.0814" lon="6.04742">
        <ele>57.216026306152</ele>
        <time>2017-02-27T15:42:37Z</time>
      </trkpt>
      <trkpt lat="43.08142" lon="6.04748">
        <ele>57.177101135254</ele>
        <time>2017-02-27T15:42:41Z</time>
      </trkpt>
      <trkpt lat="43.08144" lon="6.04753">
        <ele>57.224224090576</ele>
        <time>2017-02-27T15:42:42Z</time>
      </trkpt>
      <trkpt lat="43.08146" lon="6.04758">
        <ele>57.365043640137</ele>
        <time>2017-02-27T15:42:45Z</time>
      </trkpt>
      <trkpt lat="43.08147" lon="6.04762">
        <ele>57.523933410645</ele>
        <time>2017-02-27T15:42:47Z</time>
      </trkpt>
      <trkpt lat="43.0815" lon="6.04768">
        <ele>57.710426330566</ele>
        <time>2017-02-27T15:42:50Z</time>
      </trkpt>
      <trkpt lat="43.08151" lon="6.04772">
        <ele>57.841529846191</ele>
        <time>2017-02-27T15:42:52Z</time>
      </trkpt>
      <trkpt lat="43.08152" lon="6.04779">
        <ele>57.858135223389</ele>
        <time>2017-02-27T15:42:56Z</time>
      </trkpt>
      <trkpt lat="43.08154" lon="6.04785">
        <ele>57.831153869629</ele>
        <time>2017-02-27T15:42:58Z</time>
      </trkpt>
      <trkpt lat="43.08156" lon="6.04788">
        <ele>57.853462219238</ele>
        <time>2017-02-27T15:43:00Z</time>
      </trkpt>
      <trkpt lat="43.08158" lon="6.04791">
        <ele>57.901062011719</ele>
        <time>2017-02-27T15:43:02Z</time>
      </trkpt>
      <trkpt lat="43.08162" lon="6.04795">
        <ele>58.048133850098</ele>
        <time>2017-02-27T15:43:05Z</time>
      </trkpt>
      <trkpt lat="43.08164" lon="6.04797">
        <ele>58.340320587158</ele>
        <time>2017-02-27T15:43:07Z</time>
      </trkpt>
      <trkpt lat="43.08167" lon="6.04801">
        <ele>58.744499206543</ele>
        <time>2017-02-27T15:43:18Z</time>
      </trkpt>
      <trkpt lat="43.0817" lon="6.04805">
        <ele>59.184631347656</ele>
        <time>2017-02-27T15:43:19Z</time>
      </trkpt>
      <trkpt lat="43.08173" lon="6.04808">
        <ele>59.701820373535</ele>
        <time>2017-02-27T15:43:19Z</time>
      </trkpt>
      <trkpt lat="43.08177" lon="6.04814">
        <ele>60.208686828613</ele>
        <time>2017-02-27T15:43:19Z</time>
      </trkpt>
      <trkpt lat="43.08178" lon="6.0482">
        <ele>60.577697753906</ele>
        <time>2017-02-27T15:43:20Z</time>
      </trkpt>
      <trkpt lat="43.08179" lon="6.04831">
        <ele>60.63516998291</ele>
        <time>2017-02-27T15:43:23Z</time>
      </trkpt>
      <trkpt lat="43.08181" lon="6.04836">
        <ele>60.591857910156</ele>
        <time>2017-02-27T15:43:25Z</time>
      </trkpt>
      <trkpt lat="43.08186" lon="6.04842">
        <ele>60.539115905762</ele>
        <time>2017-02-27T15:43:28Z</time>
      </trkpt>
      <trkpt lat="43.08188" lon="6.04845">
        <ele>60.427879333496</ele>
        <time>2017-02-27T15:43:30Z</time>
      </trkpt>
      <trkpt lat="43.08191" lon="6.04848">
        <ele>60.454750061035</ele>
        <time>2017-02-27T15:43:32Z</time>
      </trkpt>
      <trkpt lat="43.08195" lon="6.04849">
        <ele>60.888408660889</ele>
        <time>2017-02-27T15:43:34Z</time>
      </trkpt>
      <trkpt lat="43.08202" lon="6.04847">
        <ele>61.751121520996</ele>
        <time>2017-02-27T15:43:37Z</time>
      </trkpt>
      <trkpt lat="43.08206" lon="6.04849">
        <ele>62.644512176514</ele>
        <time>2017-02-27T15:43:39Z</time>
      </trkpt>
      <trkpt lat="43.0821" lon="6.04853">
        <ele>63.573863983154</ele>
        <time>2017-02-27T15:43:41Z</time>
      </trkpt>
      <trkpt lat="43.08215" lon="6.04858">
        <ele>64.501365661621</ele>
        <time>2017-02-27T15:43:44Z</time>
      </trkpt>
      <trkpt lat="43.0822" lon="6.04863">
        <ele>65.273277282715</ele>
        <time>2017-02-27T15:43:47Z</time>
      </trkpt>
      <trkpt lat="43.08224" lon="6.0487">
        <ele>65.647689819336</ele>
        <time>2017-02-27T15:43:50Z</time>
      </trkpt>
      <trkpt lat="43.0823" lon="6.04874">
        <ele>66.00944519043</ele>
        <time>2017-02-27T15:43:54Z</time>
      </trkpt>
      <trkpt lat="43.08234" lon="6.04875">
        <ele>66.423851013184</ele>
        <time>2017-02-27T15:43:55Z</time>
      </trkpt>
      <trkpt lat="43.08241" lon="6.04878">
        <ele>66.904884338379</ele>
        <time>2017-02-27T15:43:58Z</time>
      </trkpt>
      <trkpt lat="43.08247" lon="6.04881">
        <ele>67.501014709473</ele>
        <time>2017-02-27T15:44:01Z</time>
      </trkpt>
      <trkpt lat="43.08251" lon="6.04886">
        <ele>68.013809204102</ele>
        <time>2017-02-27T15:44:04Z</time>
      </trkpt>
      <trkpt lat="43.08253" lon="6.04892">
        <ele>68.15478515625</ele>
        <time>2017-02-27T15:44:06Z</time>
      </trkpt>
      <trkpt lat="43.08255" lon="6.04897">
        <ele>68.03498840332</ele>
        <time>2017-02-27T15:44:08Z</time>
      </trkpt>
      <trkpt lat="43.0826" lon="6.049">
        <ele>67.690727233887</ele>
        <time>2017-02-27T15:44:11Z</time>
      </trkpt>
      <trkpt lat="43.08263" lon="6.049">
        <ele>67.239181518555</ele>
        <time>2017-02-27T15:44:13Z</time>
      </trkpt>
      <trkpt lat="43.08269" lon="6.04902">
        <ele>66.920562744141</ele>
        <time>2017-02-27T15:44:16Z</time>
      </trkpt>
      <trkpt lat="43.08273" lon="6.04904">
        <ele>66.797180175781</ele>
        <time>2017-02-27T15:44:18Z</time>
      </trkpt>
      <trkpt lat="43.08276" lon="6.04909">
        <ele>66.654457092285</ele>
        <time>2017-02-27T15:44:20Z</time>
      </trkpt>
      <trkpt lat="43.08279" lon="6.04912">
        <ele>66.513931274414</ele>
        <time>2017-02-27T15:44:22Z</time>
      </trkpt>
      <trkpt lat="43.08284" lon="6.04916">
        <ele>66.257667541504</ele>
        <time>2017-02-27T15:44:25Z</time>
      </trkpt>
      <trkpt lat="43.08289" lon="6.04921">
        <ele>66.075805664062</ele>
        <time>2017-02-27T15:44:28Z</time>
      </trkpt>
      <trkpt lat="43.08292" lon="6.04928">
        <ele>66.10383605957</ele>
        <time>2017-02-27T15:44:31Z</time>
      </trkpt>
      <trkpt lat="43.08295" lon="6.0493">
        <ele>66.379776000977</ele>
        <time>2017-02-27T15:44:33Z</time>
      </trkpt>
      <trkpt lat="43.08298" lon="6.04931">
        <ele>66.781021118164</ele>
        <time>2017-02-27T15:44:35Z</time>
      </trkpt>
      <trkpt lat="43.08301" lon="6.04936">
        <ele>67.36417388916</ele>
        <time>2017-02-27T15:44:38Z</time>
      </trkpt>
      <trkpt lat="43.08303" lon="6.0494">
        <ele>67.896606445312</ele>
        <time>2017-02-27T15:44:40Z</time>
      </trkpt>
      <trkpt lat="43.08305" lon="6.04944">
        <ele>68.344604492188</ele>
        <time>2017-02-27T15:44:43Z</time>
      </trkpt>
      <trkpt lat="43.08308" lon="6.04945">
        <ele>68.75936126709</ele>
        <time>2017-02-27T15:44:46Z</time>
      </trkpt>
      <trkpt lat="43.0831" lon="6.04946">
        <ele>69.151176452637</ele>
        <time>2017-02-27T15:44:48Z</time>
      </trkpt>
      <trkpt lat="43.08313" lon="6.04951">
        <ele>69.514717102051</ele>
        <time>2017-02-27T15:44:51Z</time>
      </trkpt>
      <trkpt lat="43.08318" lon="6.04953">
        <ele>69.860214233398</ele>
        <time>2017-02-27T15:44:54Z</time>
      </trkpt>
      <trkpt lat="43.08323" lon="6.04954">
        <ele>70.176406860352</ele>
        <time>2017-02-27T15:44:57Z</time>
      </trkpt>
      <trkpt lat="43.08326" lon="6.04955">
        <ele>70.479644775391</ele>
        <time>2017-02-27T15:44:59Z</time>
      </trkpt>
      <trkpt lat="43.08331" lon="6.04957">
        <ele>70.80534362793</ele>
        <time>2017-02-27T15:45:02Z</time>
      </trkpt>
      <trkpt lat="43.08333" lon="6.0496">
        <ele>71.072250366211</ele>
        <time>2017-02-27T15:45:04Z</time>
      </trkpt>
      <trkpt lat="43.08335" lon="6.04963">
        <ele>71.307571411133</ele>
        <time>2017-02-27T15:45:06Z</time>
      </trkpt>
      <trkpt lat="43.08337" lon="6.0497">
        <ele>71.552169799805</ele>
        <time>2017-02-27T15:45:09Z</time>
      </trkpt>
      <trkpt lat="43.08337" lon="6.04976">
        <ele>71.798751831055</ele>
        <time>2017-02-27T15:45:11Z</time>
      </trkpt>
      <trkpt lat="43.08336" lon="6.04984">
        <ele>72.032211303711</ele>
        <time>2017-02-27T15:45:14Z</time>
      </trkpt>
      <trkpt lat="43.08336" lon="6.04989">
        <ele>72.254234313965</ele>
        <time>2017-02-27T15:45:16Z</time>
      </trkpt>
      <trkpt lat="43.08339" lon="6.04991">
        <ele>72.465538024902</ele>
        <time>2017-02-27T15:45:18Z</time>
      </trkpt>
      <trkpt lat="43.08342" lon="6.04994">
        <ele>72.637367248535</ele>
        <time>2017-02-27T15:45:20Z</time>
      </trkpt>
      <trkpt lat="43.08346" lon="6.04999">
        <ele>72.807266235352</ele>
        <time>2017-02-27T15:45:23Z</time>
      </trkpt>
      <trkpt lat="43.08349" lon="6.05005">
        <ele>72.954200744629</ele>
        <time>2017-02-27T15:45:26Z</time>
      </trkpt>
      <trkpt lat="43.08352" lon="6.05012">
        <ele>73.083473205566</ele>
        <time>2017-02-27T15:45:29Z</time>
      </trkpt>
      <trkpt lat="43.08355" lon="6.05019">
        <ele>73.180564880371</ele>
        <time>2017-02-27T15:45:32Z</time>
      </trkpt>
      <trkpt lat="43.08358" lon="6.05023">
        <ele>73.239044189453</ele>
        <time>2017-02-27T15:45:34Z</time>
      </trkpt>
      <trkpt lat="43.08361" lon="6.05028">
        <ele>73.234519958496</ele>
        <time>2017-02-27T15:45:37Z</time>
      </trkpt>
      <trkpt lat="43.08365" lon="6.05034">
        <ele>73.164741516113</ele>
        <time>2017-02-27T15:45:40Z</time>
      </trkpt>
      <trkpt lat="43.08368" lon="6.0504">
        <ele>73.036476135254</ele>
        <time>2017-02-27T15:45:43Z</time>
      </trkpt>
      <trkpt lat="43.0837" lon="6.05044">
        <ele>72.871154785156</ele>
        <time>2017-02-27T15:45:45Z</time>
      </trkpt>
      <trkpt lat="43.08372" lon="6.05051">
        <ele>72.660995483398</ele>
        <time>2017-02-27T15:45:48Z</time>
      </trkpt>
      <trkpt lat="43.08374" lon="6.05057">
        <ele>72.406997680664</ele>
        <time>2017-02-27T15:45:51Z</time>
      </trkpt>
      <trkpt lat="43.08375" lon="6.05062">
        <ele>72.150199890137</ele>
        <time>2017-02-27T15:45:53Z</time>
      </trkpt>
      <trkpt lat="43.08376" lon="6.05067">
        <ele>71.900894165039</ele>
        <time>2017-02-27T15:45:55Z</time>
      </trkpt>
      <trkpt lat="43.08376" lon="6.05075">
        <ele>71.62939453125</ele>
        <time>2017-02-27T15:45:58Z</time>
      </trkpt>
      <trkpt lat="43.08377" lon="6.05082">
        <ele>71.347709655762</ele>
        <time>2017-02-27T15:46:01Z</time>
      </trkpt>
      <trkpt lat="43.0838" lon="6.0509">
        <ele>71.021545410156</ele>
        <time>2017-02-27T15:46:04Z</time>
      </trkpt>
      <trkpt lat="43.08382" lon="6.05095">
        <ele>70.669944763184</ele>
        <time>2017-02-27T15:46:06Z</time>
      </trkpt>
      <trkpt lat="43.08384" lon="6.05098">
        <ele>70.283912658691</ele>
        <time>2017-02-27T15:46:08Z</time>
      </trkpt>
      <trkpt lat="43.08387" lon="6.05104">
        <ele>69.81770324707</ele>
        <time>2017-02-27T15:46:11Z</time>
      </trkpt>
      <trkpt lat="43.0839" lon="6.05109">
        <ele>69.315605163574</ele>
        <time>2017-02-27T15:46:13Z</time>
      </trkpt>
      <trkpt lat="43.08392" lon="6.05113">
        <ele>68.826347351074</ele>
        <time>2017-02-27T15:46:15Z</time>
      </trkpt>
      <trkpt lat="43.08395" lon="6.05118">
        <ele>68.284446716309</ele>
        <time>2017-02-27T15:46:17Z</time>
      </trkpt>
      <trkpt lat="43.084" lon="6.05124">
        <ele>67.617500305176</ele>
        <time>2017-02-27T15:46:20Z</time>
      </trkpt>
      <trkpt lat="43.08403" lon="6.05127">
        <ele>66.982566833496</ele>
        <time>2017-02-27T15:46:22Z</time>
      </trkpt>
      <trkpt lat="43.08407" lon="6.05133">
        <ele>66.239364624023</ele>
        <time>2017-02-27T15:46:25Z</time>
      </trkpt>
      <trkpt lat="43.08411" lon="6.05138">
        <ele>65.43970489502</ele>
        <time>2017-02-27T15:46:27Z</time>
      </trkpt>
      <trkpt lat="43.08414" lon="6.05145">
        <ele>64.555000305176</ele>
        <time>2017-02-27T15:46:30Z</time>
      </trkpt>
      <trkpt lat="43.08418" lon="6.05152">
        <ele>63.7021484375</ele>
        <time>2017-02-27T15:46:33Z</time>
      </trkpt>
      <trkpt lat="43.08422" lon="6.05158">
        <ele>62.9111328125</ele>
        <time>2017-02-27T15:46:36Z</time>
      </trkpt>
      <trkpt lat="43.08428" lon="6.05163">
        <ele>62.275901794434</ele>
        <time>2017-02-27T15:46:39Z</time>
      </trkpt>
      <trkpt lat="43.08433" lon="6.05169">
        <ele>61.743530273438</ele>
        <time>2017-02-27T15:46:42Z</time>
      </trkpt>
      <trkpt lat="43.08438" lon="6.05174">
        <ele>61.383472442627</ele>
        <time>2017-02-27T15:46:45Z</time>
      </trkpt>
      <trkpt lat="43.08443" lon="6.05179">
        <ele>61.15092086792</ele>
        <time>2017-02-27T15:46:48Z</time>
      </trkpt>
      <trkpt lat="43.08447" lon="6.05182">
        <ele>60.951499938965</ele>
        <time>2017-02-27T15:46:50Z</time>
      </trkpt>
      <trkpt lat="43.08451" lon="6.05183">
        <ele>60.80615234375</ele>
        <time>2017-02-27T15:46:52Z</time>
      </trkpt>
      <trkpt lat="43.08455" lon="6.05183">
        <ele>60.7216796875</ele>
        <time>2017-02-27T15:46:54Z</time>
      </trkpt>
      <trkpt lat="43.08461" lon="6.05185">
        <ele>60.66943359375</ele>
        <time>2017-02-27T15:46:57Z</time>
      </trkpt>
      <trkpt lat="43.08464" lon="6.05187">
        <ele>60.64599609375</ele>
        <time>2017-02-27T15:46:59Z</time>
      </trkpt>
      <trkpt lat="43.0847" lon="6.05189">
        <ele>60.625</ele>
        <time>2017-02-27T15:47:02Z</time>
      </trkpt>
      <trkpt lat="43.08475" lon="6.05191">
        <ele>60.59912109375</ele>
        <time>2017-02-27T15:47:05Z</time>
      </trkpt>
      <trkpt lat="43.08479" lon="6.05192">
        <ele>60.57763671875</ele>
        <time>2017-02-27T15:47:07Z</time>
      </trkpt>
      <trkpt lat="43.08483" lon="6.05192">
        <ele>60.55908203125</ele>
        <time>2017-02-27T15:47:09Z</time>
      </trkpt>
      <trkpt lat="43.08489" lon="6.05195">
        <ele>60.5400390625</ele>
        <time>2017-02-27T15:47:12Z</time>
      </trkpt>
      <trkpt lat="43.08492" lon="6.05199">
        <ele>60.5029296875</ele>
        <time>2017-02-27T15:47:14Z</time>
      </trkpt>
      <trkpt lat="43.08496" lon="6.05206">
        <ele>60.41552734375</ele>
        <time>2017-02-27T15:47:17Z</time>
      </trkpt>
      <trkpt lat="43.085" lon="6.05211">
        <ele>60.278461456299</ele>
        <time>2017-02-27T15:47:20Z</time>
      </trkpt>
      <trkpt lat="43.08503" lon="6.05217">
        <ele>60.148120880127</ele>
        <time>2017-02-27T15:47:23Z</time>
      </trkpt>
      <trkpt lat="43.08506" lon="6.05224">
        <ele>60.018280029297</ele>
        <time>2017-02-27T15:47:26Z</time>
      </trkpt>
      <trkpt lat="43.08509" lon="6.05228">
        <ele>59.933898925781</ele>
        <time>2017-02-27T15:47:28Z</time>
      </trkpt>
      <trkpt lat="43.08513" lon="6.05235">
        <ele>59.901508331299</ele>
        <time>2017-02-27T15:47:31Z</time>
      </trkpt>
      <trkpt lat="43.08515" lon="6.05239">
        <ele>59.896656036377</ele>
        <time>2017-02-27T15:47:33Z</time>
      </trkpt>
      <trkpt lat="43.08519" lon="6.05243">
        <ele>59.904808044434</ele>
        <time>2017-02-27T15:47:36Z</time>
      </trkpt>
      <trkpt lat="43.08522" lon="6.05249">
        <ele>59.919036865234</ele>
        <time>2017-02-27T15:47:39Z</time>
      </trkpt>
      <trkpt lat="43.08524" lon="6.05253">
        <ele>59.886604309082</ele>
        <time>2017-02-27T15:47:41Z</time>
      </trkpt>
      <trkpt lat="43.08526" lon="6.05259">
        <ele>59.787425994873</ele>
        <time>2017-02-27T15:47:43Z</time>
      </trkpt>
      <trkpt lat="43.08527" lon="6.05265">
        <ele>59.597724914551</ele>
        <time>2017-02-27T15:47:45Z</time>
      </trkpt>
      <trkpt lat="43.08529" lon="6.05271">
        <ele>59.299419403076</ele>
        <time>2017-02-27T15:47:48Z</time>
      </trkpt>
      <trkpt lat="43.08533" lon="6.05277">
        <ele>58.955402374268</ele>
        <time>2017-02-27T15:47:51Z</time>
      </trkpt>
      <trkpt lat="43.08536" lon="6.05282">
        <ele>58.600776672363</ele>
        <time>2017-02-27T15:47:53Z</time>
      </trkpt>
      <trkpt lat="43.08538" lon="6.05287">
        <ele>58.261222839355</ele>
        <time>2017-02-27T15:47:55Z</time>
      </trkpt>
      <trkpt lat="43.08543" lon="6.05294">
        <ele>57.947731018066</ele>
        <time>2017-02-27T15:47:58Z</time>
      </trkpt>
      <trkpt lat="43.08547" lon="6.05299">
        <ele>57.684497833252</ele>
        <time>2017-02-27T15:48:01Z</time>
      </trkpt>
      <trkpt lat="43.08552" lon="6.05305">
        <ele>57.431953430176</ele>
        <time>2017-02-27T15:48:04Z</time>
      </trkpt>
      <trkpt lat="43.08555" lon="6.05308">
        <ele>57.193809509277</ele>
        <time>2017-02-27T15:48:06Z</time>
      </trkpt>
      <trkpt lat="43.08561" lon="6.05312">
        <ele>57.014228820801</ele>
        <time>2017-02-27T15:48:09Z</time>
      </trkpt>
      <trkpt lat="43.08567" lon="6.05315">
        <ele>56.920215606689</ele>
        <time>2017-02-27T15:48:12Z</time>
      </trkpt>
      <trkpt lat="43.0857" lon="6.05318">
        <ele>56.853309631348</ele>
        <time>2017-02-27T15:48:14Z</time>
      </trkpt>
      <trkpt lat="43.08575" lon="6.05322">
        <ele>56.815254211426</ele>
        <time>2017-02-27T15:48:17Z</time>
      </trkpt>
      <trkpt lat="43.0858" lon="6.05326">
        <ele>56.775218963623</ele>
        <time>2017-02-27T15:48:20Z</time>
      </trkpt>
      <trkpt lat="43.08585" lon="6.0533">
        <ele>56.722290039062</ele>
        <time>2017-02-27T15:48:23Z</time>
      </trkpt>
      <trkpt lat="43.08589" lon="6.05333">
        <ele>56.723461151123</ele>
        <time>2017-02-27T15:48:25Z</time>
      </trkpt>
      <trkpt lat="43.08595" lon="6.05335">
        <ele>56.834251403809</ele>
        <time>2017-02-27T15:48:28Z</time>
      </trkpt>
      <trkpt lat="43.08601" lon="6.05338">
        <ele>57.045513153076</ele>
        <time>2017-02-27T15:48:31Z</time>
      </trkpt>
      <trkpt lat="43.08604" lon="6.05339">
        <ele>57.352561950684</ele>
        <time>2017-02-27T15:48:33Z</time>
      </trkpt>
      <trkpt lat="43.08611" lon="6.05339">
        <ele>57.835987091064</ele>
        <time>2017-02-27T15:48:36Z</time>
      </trkpt>
      <trkpt lat="43.08617" lon="6.0534">
        <ele>58.386993408203</ele>
        <time>2017-02-27T15:48:39Z</time>
      </trkpt>
      <trkpt lat="43.0862" lon="6.05343">
        <ele>58.858448028564</ele>
        <time>2017-02-27T15:48:41Z</time>
      </trkpt>
      <trkpt lat="43.08625" lon="6.05348">
        <ele>59.197570800781</ele>
        <time>2017-02-27T15:48:44Z</time>
      </trkpt>
      <trkpt lat="43.0863" lon="6.05352">
        <ele>59.478858947754</ele>
        <time>2017-02-27T15:48:47Z</time>
      </trkpt>
      <trkpt lat="43.08636" lon="6.05354">
        <ele>59.672576904297</ele>
        <time>2017-02-27T15:48:50Z</time>
      </trkpt>
      <trkpt lat="43.08639" lon="6.05357">
        <ele>59.736061096191</ele>
        <time>2017-02-27T15:48:52Z</time>
      </trkpt>
      <trkpt lat="43.08643" lon="6.0536">
        <ele>59.767150878906</ele>
        <time>2017-02-27T15:48:54Z</time>
      </trkpt>
      <trkpt lat="43.08646" lon="6.05363">
        <ele>59.838096618652</ele>
        <time>2017-02-27T15:48:56Z</time>
      </trkpt>
      <trkpt lat="43.08651" lon="6.05366">
        <ele>59.913063049316</ele>
        <time>2017-02-27T15:48:59Z</time>
      </trkpt>
      <trkpt lat="43.08656" lon="6.0537">
        <ele>59.898418426514</ele>
        <time>2017-02-27T15:49:02Z</time>
      </trkpt>
      <trkpt lat="43.08662" lon="6.05374">
        <ele>59.845680236816</ele>
        <time>2017-02-27T15:49:05Z</time>
      </trkpt>
      <trkpt lat="43.08667" lon="6.05378">
        <ele>59.77562713623</ele>
        <time>2017-02-27T15:49:08Z</time>
      </trkpt>
      <trkpt lat="43.0867" lon="6.05381">
        <ele>59.717693328857</ele>
        <time>2017-02-27T15:49:10Z</time>
      </trkpt>
      <trkpt lat="43.08675" lon="6.05386">
        <ele>59.619239807129</ele>
        <time>2017-02-27T15:49:13Z</time>
      </trkpt>
      <trkpt lat="43.08679" lon="6.05391">
        <ele>59.512500762939</ele>
        <time>2017-02-27T15:49:16Z</time>
      </trkpt>
      <trkpt lat="43.08684" lon="6.05394">
        <ele>59.465476989746</ele>
        <time>2017-02-27T15:49:19Z</time>
      </trkpt>
      <trkpt lat="43.0869" lon="6.05397">
        <ele>59.522319793701</ele>
        <time>2017-02-27T15:49:22Z</time>
      </trkpt>
      <trkpt lat="43.08697" lon="6.05398">
        <ele>59.750865936279</ele>
        <time>2017-02-27T15:49:25Z</time>
      </trkpt>
      <trkpt lat="43.08704" lon="6.054">
        <ele>60.150703430176</ele>
        <time>2017-02-27T15:49:28Z</time>
      </trkpt>
      <trkpt lat="43.08709" lon="6.05406">
        <ele>60.473857879639</ele>
        <time>2017-02-27T15:49:31Z</time>
      </trkpt>
      <trkpt lat="43.08711" lon="6.05416">
        <ele>60.490653991699</ele>
        <time>2017-02-27T15:49:34Z</time>
      </trkpt>
      <trkpt lat="43.08715" lon="6.05415">
        <ele>60.601112365723</ele>
        <time>2017-02-27T15:49:37Z</time>
      </trkpt>
      <trkpt lat="43.08714" lon="6.05404">
        <ele>60.881500244141</ele>
        <time>2017-02-27T15:49:40Z</time>
      </trkpt>
      <trkpt lat="43.08707" lon="6.05399">
        <ele>61.015846252441</ele>
        <time>2017-02-27T15:49:43Z</time>
      </trkpt>
      <trkpt lat="43.08699" lon="6.05396">
        <ele>61.124408721924</ele>
        <time>2017-02-27T15:49:46Z</time>
      </trkpt>
      <trkpt lat="43.08692" lon="6.05394">
        <ele>61.359802246094</ele>
        <time>2017-02-27T15:49:49Z</time>
      </trkpt>
      <trkpt lat="43.08688" lon="6.05391">
        <ele>61.389091491699</ele>
        <time>2017-02-27T15:49:51Z</time>
      </trkpt>
      <trkpt lat="43.08681" lon="6.05389">
        <ele>60.934406280518</ele>
        <time>2017-02-27T15:49:54Z</time>
      </trkpt>
      <trkpt lat="43.08677" lon="6.05382">
        <ele>60.568786621094</ele>
        <time>2017-02-27T15:49:57Z</time>
      </trkpt>
      <trkpt lat="43.08673" lon="6.0538">
        <ele>60.335762023926</ele>
        <time>2017-02-27T15:49:59Z</time>
      </trkpt>
      <trkpt lat="43.0867" lon="6.05378">
        <ele>60.203330993652</ele>
        <time>2017-02-27T15:50:01Z</time>
      </trkpt>
      <trkpt lat="43.08665" lon="6.05376">
        <ele>60.041343688965</ele>
        <time>2017-02-27T15:50:04Z</time>
      </trkpt>
      <trkpt lat="43.0866" lon="6.05372">
        <ele>60.037273406982</ele>
        <time>2017-02-27T15:50:07Z</time>
      </trkpt>
      <trkpt lat="43.08654" lon="6.05368">
        <ele>59.956409454346</ele>
        <time>2017-02-27T15:50:10Z</time>
      </trkpt>
      <trkpt lat="43.08649" lon="6.05365">
        <ele>59.870903015137</ele>
        <time>2017-02-27T15:50:13Z</time>
      </trkpt>
      <trkpt lat="43.08646" lon="6.05362">
        <ele>59.844856262207</ele>
        <time>2017-02-27T15:50:15Z</time>
      </trkpt>
      <trkpt lat="43.08642" lon="6.0536">
        <ele>59.869956970215</ele>
        <time>2017-02-27T15:50:17Z</time>
      </trkpt>
      <trkpt lat="43.08637" lon="6.05357">
        <ele>59.847206115723</ele>
        <time>2017-02-27T15:50:20Z</time>
      </trkpt>
      <trkpt lat="43.08634" lon="6.05355">
        <ele>59.803489685059</ele>
        <time>2017-02-27T15:50:22Z</time>
      </trkpt>
      <trkpt lat="43.08629" lon="6.05351">
        <ele>59.747680664062</ele>
        <time>2017-02-27T15:50:25Z</time>
      </trkpt>
      <trkpt lat="43.08625" lon="6.05348">
        <ele>59.686695098877</ele>
        <time>2017-02-27T15:50:27Z</time>
      </trkpt>
      <trkpt lat="43.0862" lon="6.05343">
        <ele>59.640258789062</ele>
        <time>2017-02-27T15:50:30Z</time>
      </trkpt>
      <trkpt lat="43.08617" lon="6.05341">
        <ele>59.591896057129</ele>
        <time>2017-02-27T15:50:32Z</time>
      </trkpt>
      <trkpt lat="43.08611" lon="6.05338">
        <ele>59.457649230957</ele>
        <time>2017-02-27T15:50:35Z</time>
      </trkpt>
      <trkpt lat="43.08606" lon="6.05338">
        <ele>59.222434997559</ele>
        <time>2017-02-27T15:50:37Z</time>
      </trkpt>
      <trkpt lat="43.086" lon="6.05333">
        <ele>58.947162628174</ele>
        <time>2017-02-27T15:50:40Z</time>
      </trkpt>
      <trkpt lat="43.08597" lon="6.0533">
        <ele>58.662548065186</ele>
        <time>2017-02-27T15:50:42Z</time>
      </trkpt>
      <trkpt lat="43.08593" lon="6.05329">
        <ele>58.316711425781</ele>
        <time>2017-02-27T15:50:44Z</time>
      </trkpt>
      <trkpt lat="43.08587" lon="6.05326">
        <ele>57.95365524292</ele>
        <time>2017-02-27T15:50:47Z</time>
      </trkpt>
      <trkpt lat="43.08583" lon="6.05323">
        <ele>57.694091796875</ele>
        <time>2017-02-27T15:50:49Z</time>
      </trkpt>
      <trkpt lat="43.08578" lon="6.05318">
        <ele>57.500110626221</ele>
        <time>2017-02-27T15:50:52Z</time>
      </trkpt>
      <trkpt lat="43.08575" lon="6.05316">
        <ele>57.322334289551</ele>
        <time>2017-02-27T15:50:54Z</time>
      </trkpt>
      <trkpt lat="43.08572" lon="6.05313">
        <ele>57.266731262207</ele>
        <time>2017-02-27T15:50:56Z</time>
      </trkpt>
      <trkpt lat="43.08567" lon="6.05308">
        <ele>57.358116149902</ele>
        <time>2017-02-27T15:50:59Z</time>
      </trkpt>
      <trkpt lat="43.08562" lon="6.05304">
        <ele>57.469043731689</ele>
        <time>2017-02-27T15:51:02Z</time>
      </trkpt>
      <trkpt lat="43.08558" lon="6.05298">
        <ele>57.620288848877</ele>
        <time>2017-02-27T15:51:05Z</time>
      </trkpt>
      <trkpt lat="43.08555" lon="6.05294">
        <ele>57.810882568359</ele>
        <time>2017-02-27T15:51:07Z</time>
      </trkpt>
      <trkpt lat="43.0855" lon="6.05289">
        <ele>58.003192901611</ele>
        <time>2017-02-27T15:51:10Z</time>
      </trkpt>
      <trkpt lat="43.08545" lon="6.05284">
        <ele>58.175018310547</ele>
        <time>2017-02-27T15:51:13Z</time>
      </trkpt>
      <trkpt lat="43.08541" lon="6.05281">
        <ele>58.331474304199</ele>
        <time>2017-02-27T15:51:15Z</time>
      </trkpt>
      <trkpt lat="43.08537" lon="6.05277">
        <ele>58.443126678467</ele>
        <time>2017-02-27T15:51:18Z</time>
      </trkpt>
      <trkpt lat="43.08535" lon="6.05274">
        <ele>58.535106658936</ele>
        <time>2017-02-27T15:51:20Z</time>
      </trkpt>
      <trkpt lat="43.08532" lon="6.05268">
        <ele>58.662223815918</ele>
        <time>2017-02-27T15:51:23Z</time>
      </trkpt>
      <trkpt lat="43.0853" lon="6.05264">
        <ele>58.80980682373</ele>
        <time>2017-02-27T15:51:25Z</time>
      </trkpt>
      <trkpt lat="43.08525" lon="6.05258">
        <ele>58.996784210205</ele>
        <time>2017-02-27T15:51:28Z</time>
      </trkpt>
      <trkpt lat="43.08521" lon="6.05252">
        <ele>59.199493408203</ele>
        <time>2017-02-27T15:51:31Z</time>
      </trkpt>
      <trkpt lat="43.08519" lon="6.05249">
        <ele>59.394859313965</ele>
        <time>2017-02-27T15:51:33Z</time>
      </trkpt>
      <trkpt lat="43.08516" lon="6.05241">
        <ele>59.563133239746</ele>
        <time>2017-02-27T15:51:36Z</time>
      </trkpt>
      <trkpt lat="43.08514" lon="6.05233">
        <ele>59.744029998779</ele>
        <time>2017-02-27T15:51:39Z</time>
      </trkpt>
      <trkpt lat="43.08512" lon="6.05228">
        <ele>59.896064758301</ele>
        <time>2017-02-27T15:51:41Z</time>
      </trkpt>
      <trkpt lat="43.0851" lon="6.05223">
        <ele>60.037830352783</ele>
        <time>2017-02-27T15:51:43Z</time>
      </trkpt>
      <trkpt lat="43.08507" lon="6.05216">
        <ele>60.168712615967</ele>
        <time>2017-02-27T15:51:46Z</time>
      </trkpt>
      <trkpt lat="43.08504" lon="6.05209">
        <ele>60.272010803223</ele>
        <time>2017-02-27T15:51:49Z</time>
      </trkpt>
      <trkpt lat="43.08501" lon="6.05203">
        <ele>60.314598083496</ele>
        <time>2017-02-27T15:51:52Z</time>
      </trkpt>
      <trkpt lat="43.08497" lon="6.05197">
        <ele>60.383800506592</ele>
        <time>2017-02-27T15:51:55Z</time>
      </trkpt>
      <trkpt lat="43.08494" lon="6.05193">
        <ele>60.451824188232</ele>
        <time>2017-02-27T15:51:57Z</time>
      </trkpt>
      <trkpt lat="43.0849" lon="6.0519">
        <ele>60.537048339844</ele>
        <time>2017-02-27T15:51:59Z</time>
      </trkpt>
      <trkpt lat="43.08485" lon="6.05184">
        <ele>60.64949798584</ele>
        <time>2017-02-27T15:52:02Z</time>
      </trkpt>
      <trkpt lat="43.0848" lon="6.05183">
        <ele>60.77978515625</ele>
        <time>2017-02-27T15:52:04Z</time>
      </trkpt>
      <trkpt lat="43.08476" lon="6.05182">
        <ele>60.8720703125</ele>
        <time>2017-02-27T15:52:06Z</time>
      </trkpt>
      <trkpt lat="43.08471" lon="6.05177">
        <ele>60.9765625</ele>
        <time>2017-02-27T15:52:09Z</time>
      </trkpt>
      <trkpt lat="43.08468" lon="6.05174">
        <ele>61.0810546875</ele>
        <time>2017-02-27T15:52:11Z</time>
      </trkpt>
      <trkpt lat="43.08464" lon="6.05172">
        <ele>61.14599609375</ele>
        <time>2017-02-27T15:52:13Z</time>
      </trkpt>
      <trkpt lat="43.08457" lon="6.05172">
        <ele>61.189453125</ele>
        <time>2017-02-27T15:52:16Z</time>
      </trkpt>
      <trkpt lat="43.08451" lon="6.05171">
        <ele>61.22802734375</ele>
        <time>2017-02-27T15:52:19Z</time>
      </trkpt>
      <trkpt lat="43.08448" lon="6.0517">
        <ele>61.240234375</ele>
        <time>2017-02-27T15:52:21Z</time>
      </trkpt>
      <trkpt lat="43.08442" lon="6.05167">
        <ele>61.23974609375</ele>
        <time>2017-02-27T15:52:24Z</time>
      </trkpt>
      <trkpt lat="43.08438" lon="6.05162">
        <ele>61.291412353516</ele>
        <time>2017-02-27T15:52:27Z</time>
      </trkpt>
      <trkpt lat="43.08435" lon="6.05159">
        <ele>61.396839141846</ele>
        <time>2017-02-27T15:52:29Z</time>
      </trkpt>
      <trkpt lat="43.0843" lon="6.05154">
        <ele>61.562206268311</ele>
        <time>2017-02-27T15:52:32Z</time>
      </trkpt>
      <trkpt lat="43.08427" lon="6.05148">
        <ele>61.792736053467</ele>
        <time>2017-02-27T15:52:35Z</time>
      </trkpt>
      <trkpt lat="43.08425" lon="6.05142">
        <ele>62.072319030762</ele>
        <time>2017-02-27T15:52:38Z</time>
      </trkpt>
      <trkpt lat="43.08422" lon="6.05137">
        <ele>62.342975616455</ele>
        <time>2017-02-27T15:52:41Z</time>
      </trkpt>
      <trkpt lat="43.08418" lon="6.05135">
        <ele>62.590881347656</ele>
        <time>2017-02-27T15:52:43Z</time>
      </trkpt>
      <trkpt lat="43.08414" lon="6.05129">
        <ele>62.924491882324</ele>
        <time>2017-02-27T15:52:46Z</time>
      </trkpt>
      <trkpt lat="43.08409" lon="6.05124">
        <ele>63.385570526123</ele>
        <time>2017-02-27T15:52:49Z</time>
      </trkpt>
      <trkpt lat="43.08405" lon="6.0512">
        <ele>63.955535888672</ele>
        <time>2017-02-27T15:52:52Z</time>
      </trkpt>
      <trkpt lat="43.08401" lon="6.05115">
        <ele>64.630508422852</ele>
        <time>2017-02-27T15:52:55Z</time>
      </trkpt>
      <trkpt lat="43.08399" lon="6.05112">
        <ele>65.397613525391</ele>
        <time>2017-02-27T15:52:57Z</time>
      </trkpt>
      <trkpt lat="43.08395" lon="6.05108">
        <ele>66.176223754883</ele>
        <time>2017-02-27T15:53:00Z</time>
      </trkpt>
      <trkpt lat="43.08392" lon="6.05102">
        <ele>66.898529052734</ele>
        <time>2017-02-27T15:53:03Z</time>
      </trkpt>
      <trkpt lat="43.08389" lon="6.05098">
        <ele>67.538589477539</ele>
        <time>2017-02-27T15:53:05Z</time>
      </trkpt>
      <trkpt lat="43.08387" lon="6.05094">
        <ele>68.117958068848</ele>
        <time>2017-02-27T15:53:07Z</time>
      </trkpt>
      <trkpt lat="43.08385" lon="6.0509">
        <ele>68.681396484375</ele>
        <time>2017-02-27T15:53:09Z</time>
      </trkpt>
      <trkpt lat="43.08382" lon="6.05083">
        <ele>69.18733215332</ele>
        <time>2017-02-27T15:53:12Z</time>
      </trkpt>
      <trkpt lat="43.08379" lon="6.05077">
        <ele>69.670478820801</ele>
        <time>2017-02-27T15:53:15Z</time>
      </trkpt>
      <trkpt lat="43.08377" lon="6.05073">
        <ele>70.138877868652</ele>
        <time>2017-02-27T15:53:17Z</time>
      </trkpt>
      <trkpt lat="43.08377" lon="6.05066">
        <ele>70.568824768066</ele>
        <time>2017-02-27T15:53:20Z</time>
      </trkpt>
      <trkpt lat="43.08376" lon="6.05062">
        <ele>70.952285766602</ele>
        <time>2017-02-27T15:53:22Z</time>
      </trkpt>
      <trkpt lat="43.08376" lon="6.05056">
        <ele>71.281425476074</ele>
        <time>2017-02-27T15:53:25Z</time>
      </trkpt>
      <trkpt lat="43.08376" lon="6.05051">
        <ele>71.515884399414</ele>
        <time>2017-02-27T15:53:27Z</time>
      </trkpt>
      <trkpt lat="43.08376" lon="6.05043">
        <ele>71.73664855957</ele>
        <time>2017-02-27T15:53:30Z</time>
      </trkpt>
      <trkpt lat="43.08373" lon="6.05037">
        <ele>71.967567443848</ele>
        <time>2017-02-27T15:53:33Z</time>
      </trkpt>
      <trkpt lat="43.08371" lon="6.05029">
        <ele>72.211952209473</ele>
        <time>2017-02-27T15:53:36Z</time>
      </trkpt>
      <trkpt lat="43.08368" lon="6.05024">
        <ele>72.455947875977</ele>
        <time>2017-02-27T15:53:39Z</time>
      </trkpt>
      <trkpt lat="43.08365" lon="6.05018">
        <ele>72.704528808594</ele>
        <time>2017-02-27T15:53:42Z</time>
      </trkpt>
      <trkpt lat="43.08361" lon="6.05013">
        <ele>72.916748046875</ele>
        <time>2017-02-27T15:53:45Z</time>
      </trkpt>
      <trkpt lat="43.08358" lon="6.0501">
        <ele>73.070175170898</ele>
        <time>2017-02-27T15:53:47Z</time>
      </trkpt>
      <trkpt lat="43.08356" lon="6.05005">
        <ele>73.170654296875</ele>
        <time>2017-02-27T15:53:50Z</time>
      </trkpt>
      <trkpt lat="43.08352" lon="6.05">
        <ele>73.222312927246</ele>
        <time>2017-02-27T15:53:53Z</time>
      </trkpt>
      <trkpt lat="43.08349" lon="6.04994">
        <ele>73.213706970215</ele>
        <time>2017-02-27T15:53:56Z</time>
      </trkpt>
      <trkpt lat="43.08347" lon="6.0499">
        <ele>73.15795135498</ele>
        <time>2017-02-27T15:53:58Z</time>
      </trkpt>
      <trkpt lat="43.08344" lon="6.04984">
        <ele>73.055198669434</ele>
        <time>2017-02-27T15:54:01Z</time>
      </trkpt>
      <trkpt lat="43.08341" lon="6.04977">
        <ele>72.897087097168</ele>
        <time>2017-02-27T15:54:04Z</time>
      </trkpt>
      <trkpt lat="43.0834" lon="6.0497">
        <ele>72.699546813965</ele>
        <time>2017-02-27T15:54:07Z</time>
      </trkpt>
      <trkpt lat="43.08339" lon="6.04965">
        <ele>72.489074707031</ele>
        <time>2017-02-27T15:54:09Z</time>
      </trkpt>
      <trkpt lat="43.08337" lon="6.0496">
        <ele>72.24934387207</ele>
        <time>2017-02-27T15:54:11Z</time>
      </trkpt>
      <trkpt lat="43.08332" lon="6.04955">
        <ele>71.961502075195</ele>
        <time>2017-02-27T15:54:14Z</time>
      </trkpt>
      <trkpt lat="43.08328" lon="6.04952">
        <ele>71.669700622559</ele>
        <time>2017-02-27T15:54:16Z</time>
      </trkpt>
      <trkpt lat="43.08325" lon="6.04949">
        <ele>71.360496520996</ele>
        <time>2017-02-27T15:54:18Z</time>
      </trkpt>
      <trkpt lat="43.08319" lon="6.04945">
        <ele>70.997299194336</ele>
        <time>2017-02-27T15:54:21Z</time>
      </trkpt>
      <trkpt lat="43.08315" lon="6.04941">
        <ele>70.58211517334</ele>
        <time>2017-02-27T15:54:24Z</time>
      </trkpt>
      <trkpt lat="43.08312" lon="6.04938">
        <ele>70.174995422363</ele>
        <time>2017-02-27T15:54:26Z</time>
      </trkpt>
      <trkpt lat="43.0831" lon="6.04934">
        <ele>69.746704101562</ele>
        <time>2017-02-27T15:54:28Z</time>
      </trkpt>
      <trkpt lat="43.08305" lon="6.04928">
        <ele>69.230201721191</ele>
        <time>2017-02-27T15:54:31Z</time>
      </trkpt>
      <trkpt lat="43.08302" lon="6.04925">
        <ele>68.715950012207</ele>
        <time>2017-02-27T15:54:33Z</time>
      </trkpt>
      <trkpt lat="43.08296" lon="6.04921">
        <ele>68.148857116699</ele>
        <time>2017-02-27T15:54:36Z</time>
      </trkpt>
      <trkpt lat="43.08293" lon="6.04919">
        <ele>67.545600891113</ele>
        <time>2017-02-27T15:54:38Z</time>
      </trkpt>
      <trkpt lat="43.08287" lon="6.04914">
        <ele>67.00447845459</ele>
        <time>2017-02-27T15:54:41Z</time>
      </trkpt>
      <trkpt lat="43.08281" lon="6.04909">
        <ele>66.713157653809</ele>
        <time>2017-02-27T15:54:44Z</time>
      </trkpt>
      <trkpt lat="43.08278" lon="6.04906">
        <ele>66.551712036133</ele>
        <time>2017-02-27T15:54:46Z</time>
      </trkpt>
      <trkpt lat="43.08272" lon="6.04903">
        <ele>66.585586547852</ele>
        <time>2017-02-27T15:54:49Z</time>
      </trkpt>
      <trkpt lat="43.08266" lon="6.04899">
        <ele>66.801528930664</ele>
        <time>2017-02-27T15:54:52Z</time>
      </trkpt>
      <trkpt lat="43.08263" lon="6.04897">
        <ele>67.037536621094</ele>
        <time>2017-02-27T15:54:54Z</time>
      </trkpt>
      <trkpt lat="43.0826" lon="6.04892">
        <ele>67.333457946777</ele>
        <time>2017-02-27T15:54:57Z</time>
      </trkpt>
      <trkpt lat="43.08258" lon="6.04887">
        <ele>67.814407348633</ele>
        <time>2017-02-27T15:55:00Z</time>
      </trkpt>
      <trkpt lat="43.08256" lon="6.04882">
        <ele>68.410194396973</ele>
        <time>2017-02-27T15:55:02Z</time>
      </trkpt>
      <trkpt lat="43.08251" lon="6.04878">
        <ele>69.027908325195</ele>
        <time>2017-02-27T15:55:05Z</time>
      </trkpt>
      <trkpt lat="43.08248" lon="6.04875">
        <ele>69.646156311035</ele>
        <time>2017-02-27T15:55:07Z</time>
      </trkpt>
      <trkpt lat="43.08242" lon="6.04871">
        <ele>70.007789611816</ele>
        <time>2017-02-27T15:55:10Z</time>
      </trkpt>
      <trkpt lat="43.08238" lon="6.04869">
        <ele>70.032615661621</ele>
        <time>2017-02-27T15:55:12Z</time>
      </trkpt>
      <trkpt lat="43.08232" lon="6.04867">
        <ele>69.701797485352</ele>
        <time>2017-02-27T15:55:15Z</time>
      </trkpt>
      <trkpt lat="43.08226" lon="6.04865">
        <ele>69.114875793457</ele>
        <time>2017-02-27T15:55:18Z</time>
      </trkpt>
      <trkpt lat="43.08223" lon="6.04862">
        <ele>68.475761413574</ele>
        <time>2017-02-27T15:55:20Z</time>
      </trkpt>
      <trkpt lat="43.08217" lon="6.04858">
        <ele>67.765975952148</ele>
        <time>2017-02-27T15:55:23Z</time>
      </trkpt>
      <trkpt lat="43.08214" lon="6.04856">
        <ele>67.072044372559</ele>
        <time>2017-02-27T15:55:25Z</time>
      </trkpt>
      <trkpt lat="43.08208" lon="6.04852">
        <ele>66.428939819336</ele>
        <time>2017-02-27T15:55:28Z</time>
      </trkpt>
      <trkpt lat="43.08205" lon="6.04845">
        <ele>65.961006164551</ele>
        <time>2017-02-27T15:55:31Z</time>
      </trkpt>
      <trkpt lat="43.08202" lon="6.04839">
        <ele>65.575180053711</ele>
        <time>2017-02-27T15:55:34Z</time>
      </trkpt>
      <trkpt lat="43.08196" lon="6.04836">
        <ele>65.135375976562</ele>
        <time>2017-02-27T15:55:37Z</time>
      </trkpt>
      <trkpt lat="43.0819" lon="6.04834">
        <ele>64.480728149414</ele>
        <time>2017-02-27T15:55:40Z</time>
      </trkpt>
      <trkpt lat="43.08186" lon="6.04832">
        <ele>63.805999755859</ele>
        <time>2017-02-27T15:55:42Z</time>
      </trkpt>
      <trkpt lat="43.08181" lon="6.04826">
        <ele>63.004280090332</ele>
        <time>2017-02-27T15:55:45Z</time>
      </trkpt>
      <trkpt lat="43.08178" lon="6.0482">
        <ele>62.105743408203</ele>
        <time>2017-02-27T15:55:48Z</time>
      </trkpt>
      <trkpt lat="43.08175" lon="6.04815">
        <ele>61.407600402832</ele>
        <time>2017-02-27T15:55:50Z</time>
      </trkpt>
      <trkpt lat="43.08172" lon="6.04807">
        <ele>60.969066619873</ele>
        <time>2017-02-27T15:55:53Z</time>
      </trkpt>
      <trkpt lat="43.08169" lon="6.04803">
        <ele>60.659790039062</ele>
        <time>2017-02-27T15:55:55Z</time>
      </trkpt>
      <trkpt lat="43.08165" lon="6.04796">
        <ele>60.37036895752</ele>
        <time>2017-02-27T15:55:58Z</time>
      </trkpt>
      <trkpt lat="43.08163" lon="6.04792">
        <ele>60.096813201904</ele>
        <time>2017-02-27T15:56:00Z</time>
      </trkpt>
      <trkpt lat="43.08159" lon="6.04788">
        <ele>59.713592529297</ele>
        <time>2017-02-27T15:56:03Z</time>
      </trkpt>
      <trkpt lat="43.08157" lon="6.04784">
        <ele>59.332450866699</ele>
        <time>2017-02-27T15:56:05Z</time>
      </trkpt>
      <trkpt lat="43.08153" lon="6.04778">
        <ele>58.873188018799</ele>
        <time>2017-02-27T15:56:08Z</time>
      </trkpt>
      <trkpt lat="43.08151" lon="6.04773">
        <ele>58.510936737061</ele>
        <time>2017-02-27T15:56:10Z</time>
      </trkpt>
      <trkpt lat="43.08149" lon="6.04766">
        <ele>58.195507049561</ele>
        <time>2017-02-27T15:56:13Z</time>
      </trkpt>
      <trkpt lat="43.08147" lon="6.0476">
        <ele>58.006050109863</ele>
        <time>2017-02-27T15:56:15Z</time>
      </trkpt>
      <trkpt lat="43.08145" lon="6.04751">
        <ele>57.959892272949</ele>
        <time>2017-02-27T15:56:18Z</time>
      </trkpt>
      <trkpt lat="43.08142" lon="6.04743">
        <ele>57.898334503174</ele>
        <time>2017-02-27T15:56:21Z</time>
      </trkpt>
      <trkpt lat="43.0814" lon="6.04737">
        <ele>57.801807403564</ele>
        <time>2017-02-27T15:56:23Z</time>
      </trkpt>
      <trkpt lat="43.08139" lon="6.04733">
        <ele>57.705738067627</ele>
        <time>2017-02-27T15:56:25Z</time>
      </trkpt>
      <trkpt lat="43.08141" lon="6.04724">
        <ele>57.841377258301</ele>
        <time>2017-02-27T15:56:28Z</time>
      </trkpt>
      <trkpt lat="43.08141" lon="6.04715">
        <ele>57.96280670166</ele>
        <time>2017-02-27T15:56:31Z</time>
      </trkpt>
      <trkpt lat="43.08138" lon="6.04711">
        <ele>58.09334564209</ele>
        <time>2017-02-27T15:56:33Z</time>
      </trkpt>
      <trkpt lat="43.08134" lon="6.04705">
        <ele>58.072490692139</ele>
        <time>2017-02-27T15:56:36Z</time>
      </trkpt>
      <trkpt lat="43.08132" lon="6.04701">
        <ele>57.963733673096</ele>
        <time>2017-02-27T15:56:38Z</time>
      </trkpt>
      <trkpt lat="43.08131" lon="6.04696">
        <ele>57.608654022217</ele>
        <time>2017-02-27T15:56:40Z</time>
      </trkpt>
      <trkpt lat="43.0813" lon="6.04688">
        <ele>57.187652587891</ele>
        <time>2017-02-27T15:56:43Z</time>
      </trkpt>
      <trkpt lat="43.08129" lon="6.04679">
        <ele>56.962139129639</ele>
        <time>2017-02-27T15:56:46Z</time>
      </trkpt>
      <trkpt lat="43.08129" lon="6.04674">
        <ele>56.96240234375</ele>
        <time>2017-02-27T15:56:48Z</time>
      </trkpt>
      <trkpt lat="43.08127" lon="6.04666">
        <ele>57.001487731934</ele>
        <time>2017-02-27T15:56:51Z</time>
      </trkpt>
      <trkpt lat="43.08125" lon="6.04658">
        <ele>56.979686737061</ele>
        <time>2017-02-27T15:56:54Z</time>
      </trkpt>
      <trkpt lat="43.08123" lon="6.04653">
        <ele>56.873023986816</ele>
        <time>2017-02-27T15:56:56Z</time>
      </trkpt>
      <trkpt lat="43.0812" lon="6.04645">
        <ele>56.538463592529</ele>
        <time>2017-02-27T15:56:59Z</time>
      </trkpt>
      <trkpt lat="43.08118" lon="6.0464">
        <ele>56.095691680908</ele>
        <time>2017-02-27T15:57:01Z</time>
      </trkpt>
      <trkpt lat="43.08116" lon="6.04635">
        <ele>55.60205078125</ele>
        <time>2017-02-27T15:57:03Z</time>
      </trkpt>
      <trkpt lat="43.08115" lon="6.0463">
        <ele>55.123729705811</ele>
        <time>2017-02-27T15:57:05Z</time>
      </trkpt>
      <trkpt lat="43.08113" lon="6.04621">
        <ele>54.724102020264</ele>
        <time>2017-02-27T15:57:08Z</time>
      </trkpt>
      <trkpt lat="43.08112" lon="6.04614">
        <ele>54.423755645752</ele>
        <time>2017-02-27T15:57:10Z</time>
      </trkpt>
      <trkpt lat="43.08109" lon="6.04606">
        <ele>54.047569274902</ele>
        <time>2017-02-27T15:57:13Z</time>
      </trkpt>
      <trkpt lat="43.08107" lon="6.04601">
        <ele>53.671741485596</ele>
        <time>2017-02-27T15:57:15Z</time>
      </trkpt>
      <trkpt lat="43.08104" lon="6.04594">
        <ele>53.209300994873</ele>
        <time>2017-02-27T15:57:18Z</time>
      </trkpt>
      <trkpt lat="43.08103" lon="6.04589">
        <ele>52.751293182373</ele>
        <time>2017-02-27T15:57:20Z</time>
      </trkpt>
      <trkpt lat="43.08104" lon="6.04583">
        <ele>52.418556213379</ele>
        <time>2017-02-27T15:57:22Z</time>
      </trkpt>
      <trkpt lat="43.08103" lon="6.04573">
        <ele>52.212867736816</ele>
        <time>2017-02-27T15:57:25Z</time>
      </trkpt>
      <trkpt lat="43.08102" lon="6.04565">
        <ele>52.082874298096</ele>
        <time>2017-02-27T15:57:28Z</time>
      </trkpt>
      <trkpt lat="43.08101" lon="6.04559">
        <ele>52.078002929688</ele>
        <time>2017-02-27T15:57:30Z</time>
      </trkpt>
      <trkpt lat="43.081" lon="6.0455">
        <ele>52.020671844482</ele>
        <time>2017-02-27T15:57:33Z</time>
      </trkpt>
      <trkpt lat="43.081" lon="6.04542">
        <ele>51.953819274902</ele>
        <time>2017-02-27T15:57:36Z</time>
      </trkpt>
      <trkpt lat="43.08101" lon="6.04531">
        <ele>51.96768951416</ele>
        <time>2017-02-27T15:57:39Z</time>
      </trkpt>
      <trkpt lat="43.08101" lon="6.04525">
        <ele>52.049083709717</ele>
        <time>2017-02-27T15:57:41Z</time>
      </trkpt>
      <trkpt lat="43.08101" lon="6.0452">
        <ele>52.200653076172</ele>
        <time>2017-02-27T15:57:43Z</time>
      </trkpt>
      <trkpt lat="43.08104" lon="6.04512">
        <ele>52.537811279297</ele>
        <time>2017-02-27T15:57:46Z</time>
      </trkpt>
      <trkpt lat="43.08106" lon="6.04507">
        <ele>52.996448516846</ele>
        <time>2017-02-27T15:57:48Z</time>
      </trkpt>
      <trkpt lat="43.0811" lon="6.04499">
        <ele>53.649505615234</ele>
        <time>2017-02-27T15:57:51Z</time>
      </trkpt>
      <trkpt lat="43.08112" lon="6.04492">
        <ele>54.429706573486</ele>
        <time>2017-02-27T15:57:53Z</time>
      </trkpt>
      <trkpt lat="43.08111" lon="6.04483">
        <ele>55.217945098877</ele>
        <time>2017-02-27T15:57:56Z</time>
      </trkpt>
      <trkpt lat="43.08107" lon="6.04477">
        <ele>55.71312713623</ele>
        <time>2017-02-27T15:57:59Z</time>
      </trkpt>
      <trkpt lat="43.08102" lon="6.04473">
        <ele>55.811645507812</ele>
        <time>2017-02-27T15:58:02Z</time>
      </trkpt>
      <trkpt lat="43.08097" lon="6.04469">
        <ele>55.432983398438</ele>
        <time>2017-02-27T15:58:05Z</time>
      </trkpt>
      <trkpt lat="43.08094" lon="6.04466">
        <ele>54.7578125</ele>
        <time>2017-02-27T15:58:07Z</time>
      </trkpt>
      <trkpt lat="43.08091" lon="6.04464">
        <ele>53.909790039062</ele>
        <time>2017-02-27T15:58:09Z</time>
      </trkpt>
      <trkpt lat="43.08086" lon="6.04461">
        <ele>52.977172851562</ele>
        <time>2017-02-27T15:58:11Z</time>
      </trkpt>
      <trkpt lat="43.0808" lon="6.04457">
        <ele>51.947704315186</ele>
        <time>2017-02-27T15:58:14Z</time>
      </trkpt>
      <trkpt lat="43.08075" lon="6.04451">
        <ele>50.986591339111</ele>
        <time>2017-02-27T15:58:17Z</time>
      </trkpt>
      <trkpt lat="43.08072" lon="6.04446">
        <ele>50.035793304443</ele>
        <time>2017-02-27T15:58:19Z</time>
      </trkpt>
      <trkpt lat="43.08069" lon="6.04439">
        <ele>49.153545379639</ele>
        <time>2017-02-27T15:58:22Z</time>
      </trkpt>
      <trkpt lat="43.08068" lon="6.04434">
        <ele>48.534057617188</ele>
        <time>2017-02-27T15:58:24Z</time>
      </trkpt>
      <trkpt lat="43.08066" lon="6.04426">
        <ele>48.200698852539</ele>
        <time>2017-02-27T15:58:27Z</time>
      </trkpt>
      <trkpt lat="43.08064" lon="6.04421">
        <ele>48.002250671387</ele>
        <time>2017-02-27T15:58:29Z</time>
      </trkpt>
      <trkpt lat="43.08062" lon="6.04417">
        <ele>47.874538421631</ele>
        <time>2017-02-27T15:58:31Z</time>
      </trkpt>
      <trkpt lat="43.08059" lon="6.04409">
        <ele>47.779243469238</ele>
        <time>2017-02-27T15:58:34Z</time>
      </trkpt>
      <trkpt lat="43.08058" lon="6.04404">
        <ele>47.642929077148</ele>
        <time>2017-02-27T15:58:36Z</time>
      </trkpt>
      <trkpt lat="43.08055" lon="6.04398">
        <ele>47.472541809082</ele>
        <time>2017-02-27T15:58:39Z</time>
      </trkpt>
      <trkpt lat="43.08053" lon="6.04393">
        <ele>47.304748535156</ele>
        <time>2017-02-27T15:58:41Z</time>
      </trkpt>
      <trkpt lat="43.08051" lon="6.04386">
        <ele>47.180351257324</ele>
        <time>2017-02-27T15:58:44Z</time>
      </trkpt>
      <trkpt lat="43.08049" lon="6.04378">
        <ele>47.085391998291</ele>
        <time>2017-02-27T15:58:47Z</time>
      </trkpt>
      <trkpt lat="43.08048" lon="6.04374">
        <ele>47.011577606201</ele>
        <time>2017-02-27T15:58:49Z</time>
      </trkpt>
      <trkpt lat="43.08046" lon="6.04367">
        <ele>47.007762908936</ele>
        <time>2017-02-27T15:58:52Z</time>
      </trkpt>
      <trkpt lat="43.08044" lon="6.04363">
        <ele>46.981250762939</ele>
        <time>2017-02-27T15:58:54Z</time>
      </trkpt>
      <trkpt lat="43.08041" lon="6.04359">
        <ele>46.889476776123</ele>
        <time>2017-02-27T15:58:56Z</time>
      </trkpt>
      <trkpt lat="43.08036" lon="6.04355">
        <ele>46.611122131348</ele>
        <time>2017-02-27T15:58:59Z</time>
      </trkpt>
      <trkpt lat="43.08035" lon="6.04351">
        <ele>46.328147888184</ele>
        <time>2017-02-27T15:59:01Z</time>
      </trkpt>
      <trkpt lat="43.08035" lon="6.04342">
        <ele>46.191516876221</ele>
        <time>2017-02-27T15:59:04Z</time>
      </trkpt>
      <trkpt lat="43.08037" lon="6.04336">
        <ele>46.255054473877</ele>
        <time>2017-02-27T15:59:06Z</time>
      </trkpt>
      <trkpt lat="43.08041" lon="6.04328">
        <ele>46.713031768799</ele>
        <time>2017-02-27T15:59:09Z</time>
      </trkpt>
      <trkpt lat="43.08045" lon="6.04321">
        <ele>47.662990570068</ele>
        <time>2017-02-27T15:59:12Z</time>
      </trkpt>
      <trkpt lat="43.08049" lon="6.04315">
        <ele>48.902992248535</ele>
        <time>2017-02-27T15:59:15Z</time>
      </trkpt>
      <trkpt lat="43.08055" lon="6.04308">
        <ele>50.337738037109</ele>
        <time>2017-02-27T15:59:18Z</time>
      </trkpt>
      <trkpt lat="43.08061" lon="6.04305">
        <ele>51.965576171875</ele>
        <time>2017-02-27T15:59:21Z</time>
      </trkpt>
      <trkpt lat="43.08066" lon="6.04304">
        <ele>53.489013671875</ele>
        <time>2017-02-27T15:59:23Z</time>
      </trkpt>
      <trkpt lat="43.08072" lon="6.04301">
        <ele>55.0537109375</ele>
        <time>2017-02-27T15:59:26Z</time>
      </trkpt>
      <trkpt lat="43.08075" lon="6.04297">
        <ele>56.5166015625</ele>
        <time>2017-02-27T15:59:28Z</time>
      </trkpt>
      <trkpt lat="43.08079" lon="6.04291">
        <ele>57.910400390625</ele>
        <time>2017-02-27T15:59:31Z</time>
      </trkpt>
      <trkpt lat="43.08083" lon="6.04285">
        <ele>59.238159179688</ele>
        <time>2017-02-27T15:59:34Z</time>
      </trkpt>
      <trkpt lat="43.08087" lon="6.04278">
        <ele>60.673389434814</ele>
        <time>2017-02-27T15:59:37Z</time>
      </trkpt>
      <trkpt lat="43.08089" lon="6.04273">
        <ele>61.967357635498</ele>
        <time>2017-02-27T15:59:39Z</time>
      </trkpt>
      <trkpt lat="43.08091" lon="6.04267">
        <ele>63.25789642334</ele>
        <time>2017-02-27T15:59:42Z</time>
      </trkpt>
      <trkpt lat="43.08088" lon="6.04262">
        <ele>64.177108764648</ele>
        <time>2017-02-27T15:59:45Z</time>
      </trkpt>
      <trkpt lat="43.08083" lon="6.04261">
        <ele>64.607528686523</ele>
        <time>2017-02-27T15:59:46Z</time>
      </trkpt>
      <trkpt lat="43.08077" lon="6.0426">
        <ele>64.425834655762</ele>
        <time>2017-02-27T15:59:49Z</time>
      </trkpt>
      <trkpt lat="43.08073" lon="6.04259">
        <ele>63.850250244141</ele>
        <time>2017-02-27T15:59:51Z</time>
      </trkpt>
      <trkpt lat="43.08069" lon="6.04257">
        <ele>62.966453552246</ele>
        <time>2017-02-27T15:59:53Z</time>
      </trkpt>
      <trkpt lat="43.08065" lon="6.04256">
        <ele>61.998291015625</ele>
        <time>2017-02-27T15:59:56Z</time>
      </trkpt>
      <trkpt lat="43.0806" lon="6.04254">
        <ele>61.045776367188</ele>
        <time>2017-02-27T15:59:59Z</time>
      </trkpt>
      <trkpt lat="43.08056" lon="6.04251">
        <ele>60.228759765625</ele>
        <time>2017-02-27T16:00:01Z</time>
      </trkpt>
      <trkpt lat="43.08052" lon="6.04246">
        <ele>59.553447723389</ele>
        <time>2017-02-27T16:00:04Z</time>
      </trkpt>
      <trkpt lat="43.08051" lon="6.04241">
        <ele>59.028144836426</ele>
        <time>2017-02-27T16:00:06Z</time>
      </trkpt>
      <trkpt lat="43.08047" lon="6.04235">
        <ele>58.614612579346</ele>
        <time>2017-02-27T16:00:09Z</time>
      </trkpt>
      <trkpt lat="43.08042" lon="6.04231">
        <ele>58.182933807373</ele>
        <time>2017-02-27T16:00:12Z</time>
      </trkpt>
      <trkpt lat="43.08038" lon="6.04226">
        <ele>57.802635192871</ele>
        <time>2017-02-27T16:00:15Z</time>
      </trkpt>
      <trkpt lat="43.08035" lon="6.04223">
        <ele>57.350746154785</ele>
        <time>2017-02-27T16:00:17Z</time>
      </trkpt>
      <trkpt lat="43.08031" lon="6.04217">
        <ele>56.768199920654</ele>
        <time>2017-02-27T16:00:20Z</time>
      </trkpt>
      <trkpt lat="43.0803" lon="6.0421">
        <ele>56.292560577393</ele>
        <time>2017-02-27T16:00:23Z</time>
      </trkpt>
      <trkpt lat="43.08028" lon="6.04204">
        <ele>56.001098632812</ele>
        <time>2017-02-27T16:00:26Z</time>
      </trkpt>
      <trkpt lat="43.08028" lon="6.042">
        <ele>55.847068786621</ele>
        <time>2017-02-27T16:00:28Z</time>
      </trkpt>
      <trkpt lat="43.08027" lon="6.04195">
        <ele>55.811695098877</ele>
        <time>2017-02-27T16:00:30Z</time>
      </trkpt>
      <trkpt lat="43.08027" lon="6.04187">
        <ele>55.992046356201</ele>
        <time>2017-02-27T16:00:33Z</time>
      </trkpt>
      <trkpt lat="43.08028" lon="6.04178">
        <ele>56.349617004395</ele>
        <time>2017-02-27T16:00:36Z</time>
      </trkpt>
      <trkpt lat="43.0803" lon="6.0417">
        <ele>56.945201873779</ele>
        <time>2017-02-27T16:00:39Z</time>
      </trkpt>
      <trkpt lat="43.0803" lon="6.04163">
        <ele>57.585998535156</ele>
        <time>2017-02-27T16:00:42Z</time>
      </trkpt>
      <trkpt lat="43.08032" lon="6.04154">
        <ele>58.352447509766</ele>
        <time>2017-02-27T16:00:45Z</time>
      </trkpt>
      <trkpt lat="43.08031" lon="6.04147">
        <ele>59.006004333496</ele>
        <time>2017-02-27T16:00:48Z</time>
      </trkpt>
      <trkpt lat="43.0803" lon="6.04142">
        <ele>59.392921447754</ele>
        <time>2017-02-27T16:00:51Z</time>
      </trkpt>
      <trkpt lat="43.0803" lon="6.04138">
        <ele>59.552612304688</ele>
        <time>2017-02-27T16:00:53Z</time>
      </trkpt>
      <trkpt lat="43.0803" lon="6.04134">
        <ele>59.639129638672</ele>
        <time>2017-02-27T16:00:55Z</time>
      </trkpt>
      <trkpt lat="43.08031" lon="6.04128">
        <ele>59.69214630127</ele>
        <time>2017-02-27T16:00:58Z</time>
      </trkpt>
      <trkpt lat="43.08033" lon="6.04124">
        <ele>59.85718536377</ele>
        <time>2017-02-27T16:01:00Z</time>
      </trkpt>
      <trkpt lat="43.08035" lon="6.0412">
        <ele>60.207847595215</ele>
        <time>2017-02-27T16:01:02Z</time>
      </trkpt>
      <trkpt lat="43.08038" lon="6.04114">
        <ele>60.754894256592</ele>
        <time>2017-02-27T16:01:05Z</time>
      </trkpt>
      <trkpt lat="43.0804" lon="6.04111">
        <ele>61.440624237061</ele>
        <time>2017-02-27T16:01:07Z</time>
      </trkpt>
      <trkpt lat="43.08044" lon="6.04105">
        <ele>62.286762237549</ele>
        <time>2017-02-27T16:01:10Z</time>
      </trkpt>
      <trkpt lat="43.08046" lon="6.04102">
        <ele>63.150279998779</ele>
        <time>2017-02-27T16:01:12Z</time>
      </trkpt>
      <trkpt lat="43.08049" lon="6.04096">
        <ele>64.041618347168</ele>
        <time>2017-02-27T16:01:15Z</time>
      </trkpt>
      <trkpt lat="43.08052" lon="6.04091">
        <ele>64.997100830078</ele>
        <time>2017-02-27T16:01:18Z</time>
      </trkpt>
      <trkpt lat="43.08057" lon="6.04087">
        <ele>66.070655822754</ele>
        <time>2017-02-27T16:01:21Z</time>
      </trkpt>
      <trkpt lat="43.08061" lon="6.04082">
        <ele>67.138038635254</ele>
        <time>2017-02-27T16:01:24Z</time>
      </trkpt>
      <trkpt lat="43.08065" lon="6.04076">
        <ele>68.328796386719</ele>
        <time>2017-02-27T16:01:27Z</time>
      </trkpt>
      <trkpt lat="43.08068" lon="6.0407">
        <ele>69.564437866211</ele>
        <time>2017-02-27T16:01:30Z</time>
      </trkpt>
      <trkpt lat="43.08073" lon="6.04066">
        <ele>70.814483642578</ele>
        <time>2017-02-27T16:01:33Z</time>
      </trkpt>
      <trkpt lat="43.08076" lon="6.04063">
        <ele>71.984359741211</ele>
        <time>2017-02-27T16:01:35Z</time>
      </trkpt>
      <trkpt lat="43.08079" lon="6.0406">
        <ele>73.049827575684</ele>
        <time>2017-02-27T16:01:37Z</time>
      </trkpt>
      <trkpt lat="43.08083" lon="6.04055">
        <ele>74.102737426758</ele>
        <time>2017-02-27T16:01:40Z</time>
      </trkpt>
      <trkpt lat="43.08085" lon="6.04052">
        <ele>75.112915039062</ele>
        <time>2017-02-27T16:01:42Z</time>
      </trkpt>
      <trkpt lat="43.08089" lon="6.04046">
        <ele>76.140701293945</ele>
        <time>2017-02-27T16:01:45Z</time>
      </trkpt>
      <trkpt lat="43.08092" lon="6.04038">
        <ele>77.151710510254</ele>
        <time>2017-02-27T16:01:48Z</time>
      </trkpt>
      <trkpt lat="43.08093" lon="6.04032">
        <ele>78.130706787109</ele>
        <time>2017-02-27T16:01:50Z</time>
      </trkpt>
      <trkpt lat="43.08095" lon="6.04028">
        <ele>78.981300354004</ele>
        <time>2017-02-27T16:01:52Z</time>
      </trkpt>
      <trkpt lat="43.08096" lon="6.04022">
        <ele>79.728630065918</ele>
        <time>2017-02-27T16:01:54Z</time>
      </trkpt>
      <trkpt lat="43.08096" lon="6.04017">
        <ele>80.199234008789</ele>
        <time>2017-02-27T16:01:56Z</time>
      </trkpt>
      <trkpt lat="43.08092" lon="6.04014">
        <ele>80.265830993652</ele>
        <time>2017-02-27T16:01:58Z</time>
      </trkpt>
      <trkpt lat="43.08084" lon="6.04012">
        <ele>79.729774475098</ele>
        <time>2017-02-27T16:02:01Z</time>
      </trkpt>
      <trkpt lat="43.08078" lon="6.0401">
        <ele>78.728874206543</ele>
        <time>2017-02-27T16:02:04Z</time>
      </trkpt>
      <trkpt lat="43.08073" lon="6.04008">
        <ele>77.432510375977</ele>
        <time>2017-02-27T16:02:06Z</time>
      </trkpt>
      <trkpt lat="43.0807" lon="6.04006">
        <ele>75.942123413086</ele>
        <time>2017-02-27T16:02:08Z</time>
      </trkpt>
      <trkpt lat="43.08064" lon="6.04002">
        <ele>74.411636352539</ele>
        <time>2017-02-27T16:02:11Z</time>
      </trkpt>
      <trkpt lat="43.08061" lon="6.03999">
        <ele>73.207725524902</ele>
        <time>2017-02-27T16:02:13Z</time>
      </trkpt>
      <trkpt lat="43.08058" lon="6.03994">
        <ele>72.209671020508</ele>
        <time>2017-02-27T16:02:16Z</time>
      </trkpt>
      <trkpt lat="43.08055" lon="6.03987">
        <ele>71.317779541016</ele>
        <time>2017-02-27T16:02:19Z</time>
      </trkpt>
      <trkpt lat="43.08055" lon="6.03982">
        <ele>70.632415771484</ele>
        <time>2017-02-27T16:02:21Z</time>
      </trkpt>
      <trkpt lat="43.08055" lon="6.03978">
        <ele>70.256004333496</ele>
        <time>2017-02-27T16:02:23Z</time>
      </trkpt>
      <trkpt lat="43.08055" lon="6.03973">
        <ele>70.036804199219</ele>
        <time>2017-02-27T16:02:26Z</time>
      </trkpt>
      <trkpt lat="43.08055" lon="6.0397">
        <ele>70.000335693359</ele>
        <time>2017-02-27T16:02:28Z</time>
      </trkpt>
      <trkpt lat="43.08056" lon="6.03964">
        <ele>70.137809753418</ele>
        <time>2017-02-27T16:02:31Z</time>
      </trkpt>
      <trkpt lat="43.08057" lon="6.0396">
        <ele>70.32421875</ele>
        <time>2017-02-27T16:02:33Z</time>
      </trkpt>
      <trkpt lat="43.08059" lon="6.03956">
        <ele>70.613739013672</ele>
        <time>2017-02-27T16:02:35Z</time>
      </trkpt>
      <trkpt lat="43.08062" lon="6.03949">
        <ele>71.115951538086</ele>
        <time>2017-02-27T16:02:38Z</time>
      </trkpt>
      <trkpt lat="43.08065" lon="6.03945">
        <ele>71.837135314941</ele>
        <time>2017-02-27T16:02:41Z</time>
      </trkpt>
      <trkpt lat="43.08068" lon="6.03942">
        <ele>72.690963745117</ele>
        <time>2017-02-27T16:02:43Z</time>
      </trkpt>
      <trkpt lat="43.08069" lon="6.03938">
        <ele>73.608924865723</ele>
        <time>2017-02-27T16:02:45Z</time>
      </trkpt>
      <trkpt lat="43.0807" lon="6.03932">
        <ele>74.450271606445</ele>
        <time>2017-02-27T16:02:48Z</time>
      </trkpt>
      <trkpt lat="43.0807" lon="6.03928">
        <ele>75.109115600586</ele>
        <time>2017-02-27T16:02:50Z</time>
      </trkpt>
      <trkpt lat="43.08072" lon="6.03922">
        <ele>75.690994262695</ele>
        <time>2017-02-27T16:02:53Z</time>
      </trkpt>
      <trkpt lat="43.08072" lon="6.03919">
        <ele>76.148254394531</ele>
        <time>2017-02-27T16:02:55Z</time>
      </trkpt>
      <trkpt lat="43.08072" lon="6.03912">
        <ele>76.49626159668</ele>
        <time>2017-02-27T16:02:58Z</time>
      </trkpt>
      <trkpt lat="43.08072" lon="6.03907">
        <ele>76.786392211914</ele>
        <time>2017-02-27T16:03:00Z</time>
      </trkpt>
      <trkpt lat="43.08074" lon="6.039">
        <ele>77.176445007324</ele>
        <time>2017-02-27T16:03:03Z</time>
      </trkpt>
      <trkpt lat="43.08074" lon="6.03896">
        <ele>77.42431640625</ele>
        <time>2017-02-27T16:03:05Z</time>
      </trkpt>
      <trkpt lat="43.08075" lon="6.03892">
        <ele>77.68473815918</ele>
        <time>2017-02-27T16:03:07Z</time>
      </trkpt>
      <trkpt lat="43.08076" lon="6.03885">
        <ele>78.022491455078</ele>
        <time>2017-02-27T16:03:10Z</time>
      </trkpt>
      <trkpt lat="43.08076" lon="6.03878">
        <ele>78.39518737793</ele>
        <time>2017-02-27T16:03:13Z</time>
      </trkpt>
      <trkpt lat="43.08076" lon="6.03871">
        <ele>78.62621307373</ele>
        <time>2017-02-27T16:03:16Z</time>
      </trkpt>
      <trkpt lat="43.0808" lon="6.03862">
        <ele>79.105514526367</ele>
        <time>2017-02-27T16:03:19Z</time>
      </trkpt>
      <trkpt lat="43.08081" lon="6.03855">
        <ele>79.653327941895</ele>
        <time>2017-02-27T16:03:21Z</time>
      </trkpt>
      <trkpt lat="43.08082" lon="6.03849">
        <ele>80.174728393555</ele>
        <time>2017-02-27T16:03:23Z</time>
      </trkpt>
      <trkpt lat="43.08083" lon="6.0384">
        <ele>80.702682495117</ele>
        <time>2017-02-27T16:03:26Z</time>
      </trkpt>
      <trkpt lat="43.08079" lon="6.03832">
        <ele>80.984085083008</ele>
        <time>2017-02-27T16:03:29Z</time>
      </trkpt>
      <trkpt lat="43.08075" lon="6.03828">
        <ele>80.691482543945</ele>
        <time>2017-02-27T16:03:31Z</time>
      </trkpt>
      <trkpt lat="43.08072" lon="6.03821">
        <ele>79.963989257812</ele>
        <time>2017-02-27T16:03:34Z</time>
      </trkpt>
      <trkpt lat="43.08071" lon="6.03815">
        <ele>79.108985900879</ele>
        <time>2017-02-27T16:03:36Z</time>
      </trkpt>
      <trkpt lat="43.08071" lon="6.03808">
        <ele>78.14274597168</ele>
        <time>2017-02-27T16:03:39Z</time>
      </trkpt>
      <trkpt lat="43.08071" lon="6.03803">
        <ele>77.449844360352</ele>
        <time>2017-02-27T16:03:41Z</time>
      </trkpt>
      <trkpt lat="43.08073" lon="6.03797">
        <ele>77.13582611084</ele>
        <time>2017-02-27T16:03:44Z</time>
      </trkpt>
      <trkpt lat="43.08076" lon="6.0379">
        <ele>77.300765991211</ele>
        <time>2017-02-27T16:03:47Z</time>
      </trkpt>
      <trkpt lat="43.08078" lon="6.03784">
        <ele>77.63688659668</ele>
        <time>2017-02-27T16:03:50Z</time>
      </trkpt>
      <trkpt lat="43.08079" lon="6.0378">
        <ele>78.072677612305</ele>
        <time>2017-02-27T16:03:52Z</time>
      </trkpt>
      <trkpt lat="43.08081" lon="6.03775">
        <ele>78.620758056641</ele>
        <time>2017-02-27T16:03:54Z</time>
      </trkpt>
      <trkpt lat="43.08084" lon="6.03769">
        <ele>79.320877075195</ele>
        <time>2017-02-27T16:03:57Z</time>
      </trkpt>
      <trkpt lat="43.08087" lon="6.03766">
        <ele>80.029716491699</ele>
        <time>2017-02-27T16:03:59Z</time>
      </trkpt>
      <trkpt lat="43.08089" lon="6.03761">
        <ele>80.761947631836</ele>
        <time>2017-02-27T16:04:02Z</time>
      </trkpt>
      <trkpt lat="43.08091" lon="6.03756">
        <ele>81.563400268555</ele>
        <time>2017-02-27T16:04:04Z</time>
      </trkpt>
      <trkpt lat="43.08092" lon="6.0375">
        <ele>82.346908569336</ele>
        <time>2017-02-27T16:04:06Z</time>
      </trkpt>
      <trkpt lat="43.08093" lon="6.03746">
        <ele>82.932739257812</ele>
        <time>2017-02-27T16:04:08Z</time>
      </trkpt>
      <trkpt lat="43.08093" lon="6.03739">
        <ele>83.332557678223</ele>
        <time>2017-02-27T16:04:11Z</time>
      </trkpt>
      <trkpt lat="43.08094" lon="6.03734">
        <ele>83.666114807129</ele>
        <time>2017-02-27T16:04:13Z</time>
      </trkpt>
      <trkpt lat="43.08095" lon="6.03728">
        <ele>83.919616699219</ele>
        <time>2017-02-27T16:04:16Z</time>
      </trkpt>
      <trkpt lat="43.08096" lon="6.03721">
        <ele>84.125991821289</ele>
        <time>2017-02-27T16:04:19Z</time>
      </trkpt>
      <trkpt lat="43.08097" lon="6.03717">
        <ele>84.293228149414</ele>
        <time>2017-02-27T16:04:21Z</time>
      </trkpt>
      <trkpt lat="43.08099" lon="6.0371">
        <ele>84.539993286133</ele>
        <time>2017-02-27T16:04:24Z</time>
      </trkpt>
      <trkpt lat="43.08098" lon="6.03705">
        <ele>84.62727355957</ele>
        <time>2017-02-27T16:04:26Z</time>
      </trkpt>
      <trkpt lat="43.08097" lon="6.03699">
        <ele>84.591293334961</ele>
        <time>2017-02-27T16:04:29Z</time>
      </trkpt>
      <trkpt lat="43.08098" lon="6.03692">
        <ele>84.516418457031</ele>
        <time>2017-02-27T16:04:32Z</time>
      </trkpt>
      <trkpt lat="43.08098" lon="6.03688">
        <ele>84.439582824707</ele>
        <time>2017-02-27T16:04:34Z</time>
      </trkpt>
      <trkpt lat="43.08101" lon="6.0368">
        <ele>84.399673461914</ele>
        <time>2017-02-27T16:04:37Z</time>
      </trkpt>
      <trkpt lat="43.08102" lon="6.03675">
        <ele>84.512802124023</ele>
        <time>2017-02-27T16:04:40Z</time>
      </trkpt>
      <trkpt lat="43.08103" lon="6.03671">
        <ele>84.750389099121</ele>
        <time>2017-02-27T16:04:42Z</time>
      </trkpt>
      <trkpt lat="43.08104" lon="6.03665">
        <ele>84.982719421387</ele>
        <time>2017-02-27T16:04:45Z</time>
      </trkpt>
      <trkpt lat="43.08107" lon="6.03658">
        <ele>85.36604309082</ele>
        <time>2017-02-27T16:04:48Z</time>
      </trkpt>
      <trkpt lat="43.0811" lon="6.0365">
        <ele>85.801368713379</ele>
        <time>2017-02-27T16:04:51Z</time>
      </trkpt>
      <trkpt lat="43.0811" lon="6.03644">
        <ele>86.166984558105</ele>
        <time>2017-02-27T16:04:54Z</time>
      </trkpt>
      <trkpt lat="43.0811" lon="6.03639">
        <ele>86.483932495117</ele>
        <time>2017-02-27T16:04:56Z</time>
      </trkpt>
      <trkpt lat="43.08111" lon="6.03631">
        <ele>86.800437927246</ele>
        <time>2017-02-27T16:04:59Z</time>
      </trkpt>
      <trkpt lat="43.08113" lon="6.03625">
        <ele>87.027709960938</ele>
        <time>2017-02-27T16:05:01Z</time>
      </trkpt>
      <trkpt lat="43.08114" lon="6.0362">
        <ele>87.144416809082</ele>
        <time>2017-02-27T16:05:04Z</time>
      </trkpt>
      <trkpt lat="43.08117" lon="6.03615">
        <ele>87.36198425293</ele>
        <time>2017-02-27T16:05:07Z</time>
      </trkpt>
      <trkpt lat="43.08118" lon="6.03611">
        <ele>87.661026000977</ele>
        <time>2017-02-27T16:05:09Z</time>
      </trkpt>
      <trkpt lat="43.0812" lon="6.03604">
        <ele>88.004890441895</ele>
        <time>2017-02-27T16:05:12Z</time>
      </trkpt>
      <trkpt lat="43.08121" lon="6.036">
        <ele>88.296669006348</ele>
        <time>2017-02-27T16:05:14Z</time>
      </trkpt>
      <trkpt lat="43.08124" lon="6.03595">
        <ele>88.629722595215</ele>
        <time>2017-02-27T16:05:17Z</time>
      </trkpt>
      <trkpt lat="43.08127" lon="6.03593">
        <ele>88.978744506836</ele>
        <time>2017-02-27T16:05:19Z</time>
      </trkpt>
      <trkpt lat="43.08131" lon="6.03592">
        <ele>89.421363830566</ele>
        <time>2017-02-27T16:05:21Z</time>
      </trkpt>
      <trkpt lat="43.08136" lon="6.03589">
        <ele>90.034622192383</ele>
        <time>2017-02-27T16:05:24Z</time>
      </trkpt>
      <trkpt lat="43.08141" lon="6.03583">
        <ele>90.753646850586</ele>
        <time>2017-02-27T16:05:27Z</time>
      </trkpt>
      <trkpt lat="43.08144" lon="6.03579">
        <ele>91.590751647949</ele>
        <time>2017-02-27T16:05:30Z</time>
      </trkpt>
      <trkpt lat="43.08147" lon="6.03577">
        <ele>92.441276550293</ele>
        <time>2017-02-27T16:05:32Z</time>
      </trkpt>
      <trkpt lat="43.08151" lon="6.0357">
        <ele>93.320945739746</ele>
        <time>2017-02-27T16:05:35Z</time>
      </trkpt>
      <trkpt lat="43.08154" lon="6.03565">
        <ele>94.094383239746</ele>
        <time>2017-02-27T16:05:38Z</time>
      </trkpt>
      <trkpt lat="43.08156" lon="6.03561">
        <ele>94.845565795898</ele>
        <time>2017-02-27T16:05:41Z</time>
      </trkpt>
      <trkpt lat="43.08159" lon="6.0356">
        <ele>95.457908630371</ele>
        <time>2017-02-27T16:05:43Z</time>
      </trkpt>
      <trkpt lat="43.08161" lon="6.03558">
        <ele>96.005271911621</ele>
        <time>2017-02-27T16:05:45Z</time>
      </trkpt>
      <trkpt lat="43.08162" lon="6.03555">
        <ele>96.40486907959</ele>
        <time>2017-02-27T16:05:47Z</time>
      </trkpt>
      <trkpt lat="43.08163" lon="6.0355">
        <ele>96.713073730469</ele>
        <time>2017-02-27T16:05:49Z</time>
      </trkpt>
      <trkpt lat="43.08166" lon="6.03544">
        <ele>96.976821899414</ele>
        <time>2017-02-27T16:05:52Z</time>
      </trkpt>
      <trkpt lat="43.08168" lon="6.0354">
        <ele>97.20043182373</ele>
        <time>2017-02-27T16:05:54Z</time>
      </trkpt>
      <trkpt lat="43.0817" lon="6.03534">
        <ele>97.391624450684</ele>
        <time>2017-02-27T16:05:57Z</time>
      </trkpt>
      <trkpt lat="43.08171" lon="6.03528">
        <ele>97.559494018555</ele>
        <time>2017-02-27T16:06:00Z</time>
      </trkpt>
      <trkpt lat="43.08174" lon="6.03522">
        <ele>97.723129272461</ele>
        <time>2017-02-27T16:06:02Z</time>
      </trkpt>
      <trkpt lat="43.08178" lon="6.03515">
        <ele>97.874877929688</ele>
        <time>2017-02-27T16:06:05Z</time>
      </trkpt>
      <trkpt lat="43.08181" lon="6.03511">
        <ele>98.008926391602</ele>
        <time>2017-02-27T16:06:07Z</time>
      </trkpt>
      <trkpt lat="43.08184" lon="6.03506">
        <ele>98.107955932617</ele>
        <time>2017-02-27T16:06:10Z</time>
      </trkpt>
      <trkpt lat="43.08187" lon="6.03502">
        <ele>98.215484619141</ele>
        <time>2017-02-27T16:06:13Z</time>
      </trkpt>
      <trkpt lat="43.08191" lon="6.035">
        <ele>98.306732177734</ele>
        <time>2017-02-27T16:06:15Z</time>
      </trkpt>
      <trkpt lat="43.08194" lon="6.03497">
        <ele>98.399803161621</ele>
        <time>2017-02-27T16:06:17Z</time>
      </trkpt>
      <trkpt lat="43.08197" lon="6.03496">
        <ele>98.503890991211</ele>
        <time>2017-02-27T16:06:19Z</time>
      </trkpt>
      <trkpt lat="43.08203" lon="6.03498">
        <ele>98.680732727051</ele>
        <time>2017-02-27T16:06:22Z</time>
      </trkpt>
      <trkpt lat="43.0821" lon="6.03496">
        <ele>98.891548156738</ele>
        <time>2017-02-27T16:06:25Z</time>
      </trkpt>
      <trkpt lat="43.08213" lon="6.03492">
        <ele>99.090789794922</ele>
        <time>2017-02-27T16:06:27Z</time>
      </trkpt>
      <trkpt lat="43.08217" lon="6.03485">
        <ele>99.201232910156</ele>
        <time>2017-02-27T16:06:30Z</time>
      </trkpt>
      <trkpt lat="43.0822" lon="6.03481">
        <ele>99.238105773926</ele>
        <time>2017-02-27T16:06:32Z</time>
      </trkpt>
      <trkpt lat="43.08224" lon="6.03476">
        <ele>99.148895263672</ele>
        <time>2017-02-27T16:06:35Z</time>
      </trkpt>
      <trkpt lat="43.08229" lon="6.03471">
        <ele>98.920692443848</ele>
        <time>2017-02-27T16:06:38Z</time>
      </trkpt>
      <trkpt lat="43.08233" lon="6.03465">
        <ele>98.578285217285</ele>
        <time>2017-02-27T16:06:41Z</time>
      </trkpt>
      <trkpt lat="43.08237" lon="6.03462">
        <ele>98.198402404785</ele>
        <time>2017-02-27T16:06:44Z</time>
      </trkpt>
      <trkpt lat="43.08241" lon="6.03459">
        <ele>97.779724121094</ele>
        <time>2017-02-27T16:06:46Z</time>
      </trkpt>
      <trkpt lat="43.08245" lon="6.03453">
        <ele>97.255004882812</ele>
        <time>2017-02-27T16:06:49Z</time>
      </trkpt>
      <trkpt lat="43.08249" lon="6.03449">
        <ele>96.668319702148</ele>
        <time>2017-02-27T16:06:51Z</time>
      </trkpt>
      <trkpt lat="43.08253" lon="6.03445">
        <ele>96.176399230957</ele>
        <time>2017-02-27T16:06:53Z</time>
      </trkpt>
      <trkpt lat="43.08257" lon="6.03438">
        <ele>95.761672973633</ele>
        <time>2017-02-27T16:06:56Z</time>
      </trkpt>
      <trkpt lat="43.08261" lon="6.03433">
        <ele>95.429664611816</ele>
        <time>2017-02-27T16:06:58Z</time>
      </trkpt>
      <trkpt lat="43.08265" lon="6.03426">
        <ele>95.21004486084</ele>
        <time>2017-02-27T16:07:01Z</time>
      </trkpt>
      <trkpt lat="43.08268" lon="6.03418">
        <ele>95.012763977051</ele>
        <time>2017-02-27T16:07:04Z</time>
      </trkpt>
      <trkpt lat="43.0827" lon="6.03413">
        <ele>94.777481079102</ele>
        <time>2017-02-27T16:07:06Z</time>
      </trkpt>
      <trkpt lat="43.08273" lon="6.03406">
        <ele>94.491287231445</ele>
        <time>2017-02-27T16:07:09Z</time>
      </trkpt>
      <trkpt lat="43.08277" lon="6.034">
        <ele>94.157867431641</ele>
        <time>2017-02-27T16:07:12Z</time>
      </trkpt>
      <trkpt lat="43.08281" lon="6.03393">
        <ele>93.83219909668</ele>
        <time>2017-02-27T16:07:15Z</time>
      </trkpt>
      <trkpt lat="43.08286" lon="6.03389">
        <ele>93.697166442871</ele>
        <time>2017-02-27T16:07:18Z</time>
      </trkpt>
      <trkpt lat="43.08293" lon="6.03385">
        <ele>93.749008178711</ele>
        <time>2017-02-27T16:07:21Z</time>
      </trkpt>
      <trkpt lat="43.08298" lon="6.03379">
        <ele>93.871788024902</ele>
        <time>2017-02-27T16:07:24Z</time>
      </trkpt>
      <trkpt lat="43.08302" lon="6.03375">
        <ele>94.04850769043</ele>
        <time>2017-02-27T16:07:26Z</time>
      </trkpt>
      <trkpt lat="43.08305" lon="6.03372">
        <ele>94.275596618652</ele>
        <time>2017-02-27T16:07:28Z</time>
      </trkpt>
      <trkpt lat="43.08308" lon="6.03368">
        <ele>94.429885864258</ele>
        <time>2017-02-27T16:07:30Z</time>
      </trkpt>
      <trkpt lat="43.08311" lon="6.03361">
        <ele>94.335296630859</ele>
        <time>2017-02-27T16:07:33Z</time>
      </trkpt>
      <trkpt lat="43.08314" lon="6.03357">
        <ele>94.199768066406</ele>
        <time>2017-02-27T16:07:35Z</time>
      </trkpt>
      <trkpt lat="43.08318" lon="6.0335">
        <ele>93.957748413086</ele>
        <time>2017-02-27T16:07:38Z</time>
      </trkpt>
      <trkpt lat="43.0832" lon="6.03345">
        <ele>93.632247924805</ele>
        <time>2017-02-27T16:07:40Z</time>
      </trkpt>
      <trkpt lat="43.08322" lon="6.03341">
        <ele>93.229316711426</ele>
        <time>2017-02-27T16:07:42Z</time>
      </trkpt>
      <trkpt lat="43.08324" lon="6.03336">
        <ele>92.866691589355</ele>
        <time>2017-02-27T16:07:44Z</time>
      </trkpt>
      <trkpt lat="43.08327" lon="6.03331">
        <ele>92.499862670898</ele>
        <time>2017-02-27T16:07:46Z</time>
      </trkpt>
      <trkpt lat="43.0833" lon="6.03325">
        <ele>92.215744018555</ele>
        <time>2017-02-27T16:07:49Z</time>
      </trkpt>
      <trkpt lat="43.08333" lon="6.03317">
        <ele>91.972526550293</ele>
        <time>2017-02-27T16:07:52Z</time>
      </trkpt>
      <trkpt lat="43.08335" lon="6.03312">
        <ele>91.768432617188</ele>
        <time>2017-02-27T16:07:54Z</time>
      </trkpt>
      <trkpt lat="43.08336" lon="6.03304">
        <ele>91.563827514648</ele>
        <time>2017-02-27T16:07:57Z</time>
      </trkpt>
      <trkpt lat="43.08339" lon="6.03296">
        <ele>91.362533569336</ele>
        <time>2017-02-27T16:08:00Z</time>
      </trkpt>
      <trkpt lat="43.08342" lon="6.0329">
        <ele>91.158294677734</ele>
        <time>2017-02-27T16:08:03Z</time>
      </trkpt>
      <trkpt lat="43.08341" lon="6.03282">
        <ele>90.827819824219</ele>
        <time>2017-02-27T16:08:06Z</time>
      </trkpt>
      <trkpt lat="43.08341" lon="6.03276">
        <ele>90.424301147461</ele>
        <time>2017-02-27T16:08:08Z</time>
      </trkpt>
      <trkpt lat="43.08342" lon="6.03269">
        <ele>90.021965026855</ele>
        <time>2017-02-27T16:08:10Z</time>
      </trkpt>
      <trkpt lat="43.08343" lon="6.0326">
        <ele>89.543785095215</ele>
        <time>2017-02-27T16:08:13Z</time>
      </trkpt>
      <trkpt lat="43.08344" lon="6.03254">
        <ele>88.998977661133</ele>
        <time>2017-02-27T16:08:15Z</time>
      </trkpt>
      <trkpt lat="43.08344" lon="6.03248">
        <ele>88.532402038574</ele>
        <time>2017-02-27T16:08:17Z</time>
      </trkpt>
      <trkpt lat="43.08348" lon="6.0324">
        <ele>88.171951293945</ele>
        <time>2017-02-27T16:08:20Z</time>
      </trkpt>
      <trkpt lat="43.08348" lon="6.03232">
        <ele>87.766693115234</ele>
        <time>2017-02-27T16:08:23Z</time>
      </trkpt>
      <trkpt lat="43.08347" lon="6.03225">
        <ele>87.322074890137</ele>
        <time>2017-02-27T16:08:26Z</time>
      </trkpt>
      <trkpt lat="43.08348" lon="6.03217">
        <ele>86.836853027344</ele>
        <time>2017-02-27T16:08:29Z</time>
      </trkpt>
      <trkpt lat="43.08349" lon="6.03208">
        <ele>86.337333679199</ele>
        <time>2017-02-27T16:08:32Z</time>
      </trkpt>
      <trkpt lat="43.0835" lon="6.03203">
        <ele>85.794845581055</ele>
        <time>2017-02-27T16:08:34Z</time>
      </trkpt>
      <trkpt lat="43.08354" lon="6.03193">
        <ele>85.306838989258</ele>
        <time>2017-02-27T16:08:37Z</time>
      </trkpt>
      <trkpt lat="43.08358" lon="6.03185">
        <ele>84.901527404785</ele>
        <time>2017-02-27T16:08:40Z</time>
      </trkpt>
      <trkpt lat="43.08359" lon="6.0318">
        <ele>84.569862365723</ele>
        <time>2017-02-27T16:08:42Z</time>
      </trkpt>
      <trkpt lat="43.08357" lon="6.03174">
        <ele>84.175445556641</ele>
        <time>2017-02-27T16:08:45Z</time>
      </trkpt>
      <trkpt lat="43.08355" lon="6.03168">
        <ele>83.692672729492</ele>
        <time>2017-02-27T16:08:48Z</time>
      </trkpt>
      <trkpt lat="43.08354" lon="6.03163">
        <ele>83.152976989746</ele>
        <time>2017-02-27T16:08:51Z</time>
      </trkpt>
      <trkpt lat="43.08353" lon="6.03159">
        <ele>82.605613708496</ele>
        <time>2017-02-27T16:08:53Z</time>
      </trkpt>
      <trkpt lat="43.08353" lon="6.03155">
        <ele>82.037864685059</ele>
        <time>2017-02-27T16:08:55Z</time>
      </trkpt>
      <trkpt lat="43.08355" lon="6.03147">
        <ele>81.531883239746</ele>
        <time>2017-02-27T16:08:58Z</time>
      </trkpt>
      <trkpt lat="43.08355" lon="6.03142">
        <ele>81.07666015625</ele>
        <time>2017-02-27T16:09:00Z</time>
      </trkpt>
      <trkpt lat="43.08358" lon="6.03134">
        <ele>80.680053710938</ele>
        <time>2017-02-27T16:09:03Z</time>
      </trkpt>
      <trkpt lat="43.0836" lon="6.03126">
        <ele>80.264404296875</ele>
        <time>2017-02-27T16:09:06Z</time>
      </trkpt>
      <trkpt lat="43.08363" lon="6.03119">
        <ele>79.87353515625</ele>
        <time>2017-02-27T16:09:09Z</time>
      </trkpt>
      <trkpt lat="43.08367" lon="6.03115">
        <ele>79.589477539062</ele>
        <time>2017-02-27T16:09:12Z</time>
      </trkpt>
      <trkpt lat="43.08368" lon="6.03111">
        <ele>79.361083984375</ele>
        <time>2017-02-27T16:09:14Z</time>
      </trkpt>
      <trkpt lat="43.08371" lon="6.03104">
        <ele>79.155517578125</ele>
        <time>2017-02-27T16:09:17Z</time>
      </trkpt>
      <trkpt lat="43.08374" lon="6.031">
        <ele>79.031616210938</ele>
        <time>2017-02-27T16:09:19Z</time>
      </trkpt>
      <trkpt lat="43.08377" lon="6.03092">
        <ele>78.895141601562</ele>
        <time>2017-02-27T16:09:22Z</time>
      </trkpt>
      <trkpt lat="43.08381" lon="6.03086">
        <ele>78.734741210938</ele>
        <time>2017-02-27T16:09:25Z</time>
      </trkpt>
      <trkpt lat="43.08384" lon="6.03082">
        <ele>78.59147644043</ele>
        <time>2017-02-27T16:09:27Z</time>
      </trkpt>
      <trkpt lat="43.08384" lon="6.03078">
        <ele>78.470680236816</ele>
        <time>2017-02-27T16:09:29Z</time>
      </trkpt>
      <trkpt lat="43.08386" lon="6.03074">
        <ele>78.353782653809</ele>
        <time>2017-02-27T16:09:31Z</time>
      </trkpt>
      <trkpt lat="43.08389" lon="6.03067">
        <ele>78.287307739258</ele>
        <time>2017-02-27T16:09:34Z</time>
      </trkpt>
      <trkpt lat="43.0839" lon="6.03061">
        <ele>78.20849609375</ele>
        <time>2017-02-27T16:09:36Z</time>
      </trkpt>
      <trkpt lat="43.08392" lon="6.03056">
        <ele>78.15234375</ele>
        <time>2017-02-27T16:09:38Z</time>
      </trkpt>
      <trkpt lat="43.08395" lon="6.0305">
        <ele>78.1181640625</ele>
        <time>2017-02-27T16:09:41Z</time>
      </trkpt>
      <trkpt lat="43.08397" lon="6.03044">
        <ele>78.06103515625</ele>
        <time>2017-02-27T16:09:43Z</time>
      </trkpt>
      <trkpt lat="43.08399" lon="6.03037">
        <ele>77.990234375</ele>
        <time>2017-02-27T16:09:46Z</time>
      </trkpt>
      <trkpt lat="43.08397" lon="6.0303">
        <ele>77.8525390625</ele>
        <time>2017-02-27T16:09:49Z</time>
      </trkpt>
      <trkpt lat="43.08393" lon="6.0303">
        <ele>77.61669921875</ele>
        <time>2017-02-27T16:09:51Z</time>
      </trkpt>
      <trkpt lat="43.08386" lon="6.0303">
        <ele>77.23388671875</ele>
        <time>2017-02-27T16:09:54Z</time>
      </trkpt>
      <trkpt lat="43.08382" lon="6.0303">
        <ele>76.78662109375</ele>
        <time>2017-02-27T16:09:56Z</time>
      </trkpt>
      <trkpt lat="43.08377" lon="6.03031">
        <ele>76.265625</ele>
        <time>2017-02-27T16:09:59Z</time>
      </trkpt>
      <trkpt lat="43.08374" lon="6.03038">
        <ele>75.837890625</ele>
        <time>2017-02-27T16:10:02Z</time>
      </trkpt>
      <trkpt lat="43.08372" lon="6.03042">
        <ele>75.5087890625</ele>
        <time>2017-02-27T16:10:04Z</time>
      </trkpt>
      <trkpt lat="43.08368" lon="6.03046">
        <ele>75.25537109375</ele>
        <time>2017-02-27T16:10:07Z</time>
      </trkpt>
      <trkpt lat="43.08364" lon="6.03048">
        <ele>75.04248046875</ele>
        <time>2017-02-27T16:10:09Z</time>
      </trkpt>
      <trkpt lat="43.0836" lon="6.03051">
        <ele>74.8603515625</ele>
        <time>2017-02-27T16:10:12Z</time>
      </trkpt>
      <trkpt lat="43.08357" lon="6.03051">
        <ele>74.62060546875</ele>
        <time>2017-02-27T16:10:14Z</time>
      </trkpt>
      <trkpt lat="43.08357" lon="6.03044">
        <ele>74.30078125</ele>
        <time>2017-02-27T16:10:17Z</time>
      </trkpt>
      <trkpt lat="43.0836" lon="6.03038">
        <ele>74.052734375</ele>
        <time>2017-02-27T16:10:19Z</time>
      </trkpt>
      <trkpt lat="43.08364" lon="6.03029">
        <ele>73.87451171875</ele>
        <time>2017-02-27T16:10:22Z</time>
      </trkpt>
      <trkpt lat="43.08367" lon="6.03022">
        <ele>73.7509765625</ele>
        <time>2017-02-27T16:10:25Z</time>
      </trkpt>
      <trkpt lat="43.08368" lon="6.03017">
        <ele>73.66357421875</ele>
        <time>2017-02-27T16:10:27Z</time>
      </trkpt>
      <trkpt lat="43.08369" lon="6.03009">
        <ele>73.60546875</ele>
        <time>2017-02-27T16:10:30Z</time>
      </trkpt>
      <trkpt lat="43.0837" lon="6.03004">
        <ele>73.5146484375</ele>
        <time>2017-02-27T16:10:32Z</time>
      </trkpt>
      <trkpt lat="43.08371" lon="6.02999">
        <ele>73.375732421875</ele>
        <time>2017-02-27T16:10:34Z</time>
      </trkpt>
      <trkpt lat="43.08372" lon="6.02992">
        <ele>73.299682617188</ele>
        <time>2017-02-27T16:10:37Z</time>
      </trkpt>
      <trkpt lat="43.08373" lon="6.02987">
        <ele>73.275756835938</ele>
        <time>2017-02-27T16:10:39Z</time>
      </trkpt>
      <trkpt lat="43.08373" lon="6.02983">
        <ele>73.307739257812</ele>
        <time>2017-02-27T16:10:41Z</time>
      </trkpt>
      <trkpt lat="43.08372" lon="6.02976">
        <ele>73.37109375</ele>
        <time>2017-02-27T16:10:44Z</time>
      </trkpt>
      <trkpt lat="43.08371" lon="6.02972">
        <ele>73.445434570312</ele>
        <time>2017-02-27T16:10:46Z</time>
      </trkpt>
      <trkpt lat="43.0837" lon="6.02964">
        <ele>73.460083007812</ele>
        <time>2017-02-27T16:10:49Z</time>
      </trkpt>
      <trkpt lat="43.0837" lon="6.02958">
        <ele>73.458618164062</ele>
        <time>2017-02-27T16:10:51Z</time>
      </trkpt>
      <trkpt lat="43.0837" lon="6.02951">
        <ele>73.463989257812</ele>
        <time>2017-02-27T16:10:54Z</time>
      </trkpt>
      <trkpt lat="43.08366" lon="6.02945">
        <ele>73.397583007812</ele>
        <time>2017-02-27T16:10:57Z</time>
      </trkpt>
      <trkpt lat="43.08362" lon="6.02942">
        <ele>73.266357421875</ele>
        <time>2017-02-27T16:10:59Z</time>
      </trkpt>
      <trkpt lat="43.08358" lon="6.02938">
        <ele>73.0732421875</ele>
        <time>2017-02-27T16:11:02Z</time>
      </trkpt>
      <trkpt lat="43.08356" lon="6.02936">
        <ele>72.818237304688</ele>
        <time>2017-02-27T16:11:04Z</time>
      </trkpt>
      <trkpt lat="43.08354" lon="6.02933">
        <ele>72.519775390625</ele>
        <time>2017-02-27T16:11:06Z</time>
      </trkpt>
      <trkpt lat="43.08354" lon="6.02925">
        <ele>72.312133789062</ele>
        <time>2017-02-27T16:11:09Z</time>
      </trkpt>
      <trkpt lat="43.08353" lon="6.02918">
        <ele>72.177612304688</ele>
        <time>2017-02-27T16:11:12Z</time>
      </trkpt>
      <trkpt lat="43.08352" lon="6.02914">
        <ele>72.093940734863</ele>
        <time>2017-02-27T16:11:14Z</time>
      </trkpt>
      <trkpt lat="43.0835" lon="6.02908">
        <ele>72.005783081055</ele>
        <time>2017-02-27T16:11:17Z</time>
      </trkpt>
      <trkpt lat="43.08348" lon="6.02904">
        <ele>71.892852783203</ele>
        <time>2017-02-27T16:11:19Z</time>
      </trkpt>
      <trkpt lat="43.08348" lon="6.02896">
        <ele>71.740676879883</ele>
        <time>2017-02-27T16:11:22Z</time>
      </trkpt>
      <trkpt lat="43.08348" lon="6.02891">
        <ele>71.598159790039</ele>
        <time>2017-02-27T16:11:24Z</time>
      </trkpt>
      <trkpt lat="43.08347" lon="6.02884">
        <ele>71.433517456055</ele>
        <time>2017-02-27T16:11:27Z</time>
      </trkpt>
      <trkpt lat="43.08346" lon="6.02877">
        <ele>71.29174041748</ele>
        <time>2017-02-27T16:11:30Z</time>
      </trkpt>
      <trkpt lat="43.08344" lon="6.02872">
        <ele>71.15372467041</ele>
        <time>2017-02-27T16:11:32Z</time>
      </trkpt>
      <trkpt lat="43.08344" lon="6.02869">
        <ele>71.010452270508</ele>
        <time>2017-02-27T16:11:34Z</time>
      </trkpt>
      <trkpt lat="43.08342" lon="6.02864">
        <ele>70.827369689941</ele>
        <time>2017-02-27T16:11:36Z</time>
      </trkpt>
      <trkpt lat="43.08342" lon="6.02857">
        <ele>70.671775817871</ele>
        <time>2017-02-27T16:11:39Z</time>
      </trkpt>
      <trkpt lat="43.08342" lon="6.0285">
        <ele>70.522476196289</ele>
        <time>2017-02-27T16:11:42Z</time>
      </trkpt>
      <trkpt lat="43.08341" lon="6.02845">
        <ele>70.391036987305</ele>
        <time>2017-02-27T16:11:44Z</time>
      </trkpt>
      <trkpt lat="43.08341" lon="6.02841">
        <ele>70.266586303711</ele>
        <time>2017-02-27T16:11:46Z</time>
      </trkpt>
      <trkpt lat="43.08339" lon="6.02834">
        <ele>70.136367797852</ele>
        <time>2017-02-27T16:11:49Z</time>
      </trkpt>
      <trkpt lat="43.08337" lon="6.02828">
        <ele>69.876052856445</ele>
        <time>2017-02-27T16:11:52Z</time>
      </trkpt>
      <trkpt lat="43.08336" lon="6.02824">
        <ele>69.545425415039</ele>
        <time>2017-02-27T16:11:54Z</time>
      </trkpt>
      <trkpt lat="43.08335" lon="6.0282">
        <ele>69.151382446289</ele>
        <time>2017-02-27T16:11:56Z</time>
      </trkpt>
      <trkpt lat="43.08335" lon="6.02813">
        <ele>68.685234069824</ele>
        <time>2017-02-27T16:11:59Z</time>
      </trkpt>
      <trkpt lat="43.08336" lon="6.02807">
        <ele>68.193862915039</ele>
        <time>2017-02-27T16:12:02Z</time>
      </trkpt>
      <trkpt lat="43.08337" lon="6.02803">
        <ele>67.810020446777</ele>
        <time>2017-02-27T16:12:04Z</time>
      </trkpt>
      <trkpt lat="43.08337" lon="6.02796">
        <ele>67.424789428711</ele>
        <time>2017-02-27T16:12:07Z</time>
      </trkpt>
      <trkpt lat="43.08335" lon="6.02789">
        <ele>66.984298706055</ele>
        <time>2017-02-27T16:12:10Z</time>
      </trkpt>
      <trkpt lat="43.08334" lon="6.02782">
        <ele>66.512229919434</ele>
        <time>2017-02-27T16:12:13Z</time>
      </trkpt>
      <trkpt lat="43.08332" lon="6.02776">
        <ele>65.932350158691</ele>
        <time>2017-02-27T16:12:16Z</time>
      </trkpt>
      <trkpt lat="43.08331" lon="6.02772">
        <ele>65.259201049805</ele>
        <time>2017-02-27T16:12:18Z</time>
      </trkpt>
      <trkpt lat="43.08329" lon="6.02765">
        <ele>64.5078125</ele>
        <time>2017-02-27T16:12:21Z</time>
      </trkpt>
      <trkpt lat="43.08327" lon="6.0276">
        <ele>63.754844665527</ele>
        <time>2017-02-27T16:12:24Z</time>
      </trkpt>
      <trkpt lat="43.08327" lon="6.02756">
        <ele>63.031238555908</ele>
        <time>2017-02-27T16:12:26Z</time>
      </trkpt>
      <trkpt lat="43.08326" lon="6.0275">
        <ele>62.343841552734</ele>
        <time>2017-02-27T16:12:29Z</time>
      </trkpt>
      <trkpt lat="43.08327" lon="6.02743">
        <ele>61.749164581299</ele>
        <time>2017-02-27T16:12:32Z</time>
      </trkpt>
      <trkpt lat="43.08327" lon="6.02738">
        <ele>61.244678497314</ele>
        <time>2017-02-27T16:12:34Z</time>
      </trkpt>
      <trkpt lat="43.08329" lon="6.02731">
        <ele>60.800762176514</ele>
        <time>2017-02-27T16:12:37Z</time>
      </trkpt>
      <trkpt lat="43.08331" lon="6.02726">
        <ele>60.459484100342</ele>
        <time>2017-02-27T16:12:39Z</time>
      </trkpt>
      <trkpt lat="43.08332" lon="6.02719">
        <ele>60.204620361328</ele>
        <time>2017-02-27T16:12:42Z</time>
      </trkpt>
      <trkpt lat="43.08333" lon="6.02711">
        <ele>59.868824005127</ele>
        <time>2017-02-27T16:12:45Z</time>
      </trkpt>
      <trkpt lat="43.08333" lon="6.02705">
        <ele>59.507862091064</ele>
        <time>2017-02-27T16:12:48Z</time>
      </trkpt>
      <trkpt lat="43.08334" lon="6.02701">
        <ele>59.169334411621</ele>
        <time>2017-02-27T16:12:50Z</time>
      </trkpt>
      <trkpt lat="43.08334" lon="6.02696">
        <ele>58.728504180908</ele>
        <time>2017-02-27T16:12:52Z</time>
      </trkpt>
      <trkpt lat="43.08337" lon="6.02689">
        <ele>58.212047576904</ele>
        <time>2017-02-27T16:12:55Z</time>
      </trkpt>
      <trkpt lat="43.08338" lon="6.02684">
        <ele>57.733489990234</ele>
        <time>2017-02-27T16:12:57Z</time>
      </trkpt>
      <trkpt lat="43.0834" lon="6.0268">
        <ele>57.286277770996</ele>
        <time>2017-02-27T16:12:59Z</time>
      </trkpt>
      <trkpt lat="43.08342" lon="6.02674">
        <ele>56.788463592529</ele>
        <time>2017-02-27T16:13:02Z</time>
      </trkpt>
      <trkpt lat="43.08344" lon="6.02668">
        <ele>56.247764587402</ele>
        <time>2017-02-27T16:13:05Z</time>
      </trkpt>
      <trkpt lat="43.08345" lon="6.02661">
        <ele>55.673412322998</ele>
        <time>2017-02-27T16:13:08Z</time>
      </trkpt>
      <trkpt lat="43.08348" lon="6.02657">
        <ele>55.101734161377</ele>
        <time>2017-02-27T16:13:10Z</time>
      </trkpt>
      <trkpt lat="43.08352" lon="6.02654">
        <ele>54.540599822998</ele>
        <time>2017-02-27T16:13:13Z</time>
      </trkpt>
      <trkpt lat="43.08355" lon="6.02649">
        <ele>53.982585906982</ele>
        <time>2017-02-27T16:13:16Z</time>
      </trkpt>
      <trkpt lat="43.08356" lon="6.0264">
        <ele>53.379814147949</ele>
        <time>2017-02-27T16:13:19Z</time>
      </trkpt>
      <trkpt lat="43.08359" lon="6.02634">
        <ele>52.798515319824</ele>
        <time>2017-02-27T16:13:22Z</time>
      </trkpt>
      <trkpt lat="43.08362" lon="6.02627">
        <ele>52.170143127441</ele>
        <time>2017-02-27T16:13:25Z</time>
      </trkpt>
      <trkpt lat="43.08364" lon="6.02624">
        <ele>51.53959274292</ele>
        <time>2017-02-27T16:13:27Z</time>
      </trkpt>
      <trkpt lat="43.08367" lon="6.0262">
        <ele>50.95108795166</ele>
        <time>2017-02-27T16:13:29Z</time>
      </trkpt>
      <trkpt lat="43.08369" lon="6.02614">
        <ele>50.42472076416</ele>
        <time>2017-02-27T16:13:32Z</time>
      </trkpt>
      <trkpt lat="43.08372" lon="6.02606">
        <ele>49.898811340332</ele>
        <time>2017-02-27T16:13:35Z</time>
      </trkpt>
      <trkpt lat="43.08373" lon="6.02603">
        <ele>49.427265167236</ele>
        <time>2017-02-27T16:13:37Z</time>
      </trkpt>
      <trkpt lat="43.08375" lon="6.02598">
        <ele>48.939647674561</ele>
        <time>2017-02-27T16:13:39Z</time>
      </trkpt>
      <trkpt lat="43.08376" lon="6.02592">
        <ele>48.412895202637</ele>
        <time>2017-02-27T16:13:41Z</time>
      </trkpt>
      <trkpt lat="43.08376" lon="6.02585">
        <ele>47.856536865234</ele>
        <time>2017-02-27T16:13:44Z</time>
      </trkpt>
      <trkpt lat="43.08378" lon="6.02581">
        <ele>47.375389099121</ele>
        <time>2017-02-27T16:13:46Z</time>
      </trkpt>
      <trkpt lat="43.08379" lon="6.02577">
        <ele>46.899223327637</ele>
        <time>2017-02-27T16:13:48Z</time>
      </trkpt>
      <trkpt lat="43.08381" lon="6.02571">
        <ele>46.421466827393</ele>
        <time>2017-02-27T16:13:51Z</time>
      </trkpt>
      <trkpt lat="43.08384" lon="6.02564">
        <ele>45.950031280518</ele>
        <time>2017-02-27T16:13:54Z</time>
      </trkpt>
      <trkpt lat="43.08386" lon="6.02556">
        <ele>45.510997772217</ele>
        <time>2017-02-27T16:13:57Z</time>
      </trkpt>
      <trkpt lat="43.08385" lon="6.02548">
        <ele>44.984790802002</ele>
        <time>2017-02-27T16:14:00Z</time>
      </trkpt>
      <trkpt lat="43.08386" lon="6.02544">
        <ele>44.452060699463</ele>
        <time>2017-02-27T16:14:02Z</time>
      </trkpt>
      <trkpt lat="43.08386" lon="6.02539">
        <ele>43.923480987549</ele>
        <time>2017-02-27T16:14:04Z</time>
      </trkpt>
      <trkpt lat="43.08389" lon="6.02532">
        <ele>43.400367736816</ele>
        <time>2017-02-27T16:14:07Z</time>
      </trkpt>
      <trkpt lat="43.0839" lon="6.02526">
        <ele>42.912715911865</ele>
        <time>2017-02-27T16:14:09Z</time>
      </trkpt>
      <trkpt lat="43.08393" lon="6.0252">
        <ele>42.485614776611</ele>
        <time>2017-02-27T16:14:12Z</time>
      </trkpt>
      <trkpt lat="43.08395" lon="6.02516">
        <ele>42.081764221191</ele>
        <time>2017-02-27T16:14:14Z</time>
      </trkpt>
      <trkpt lat="43.08399" lon="6.02511">
        <ele>41.705360412598</ele>
        <time>2017-02-27T16:14:17Z</time>
      </trkpt>
      <trkpt lat="43.08401" lon="6.02508">
        <ele>41.409706115723</ele>
        <time>2017-02-27T16:14:19Z</time>
      </trkpt>
      <trkpt lat="43.08406" lon="6.0251">
        <ele>41.271297454834</ele>
        <time>2017-02-27T16:14:22Z</time>
      </trkpt>
      <trkpt lat="43.08408" lon="6.02518">
        <ele>41.385643005371</ele>
        <time>2017-02-27T16:14:25Z</time>
      </trkpt>
      <trkpt lat="43.08413" lon="6.02524">
        <ele>41.68775177002</ele>
        <time>2017-02-27T16:14:28Z</time>
      </trkpt>
      <trkpt lat="43.08416" lon="6.02528">
        <ele>42.129722595215</ele>
        <time>2017-02-27T16:14:30Z</time>
      </trkpt>
      <trkpt lat="43.08421" lon="6.02532">
        <ele>42.501258850098</ele>
        <time>2017-02-27T16:14:33Z</time>
      </trkpt>
      <trkpt lat="43.08426" lon="6.02533">
        <ele>42.591331481934</ele>
        <time>2017-02-27T16:14:36Z</time>
      </trkpt>
      <trkpt lat="43.08429" lon="6.02535">
        <ele>42.433769226074</ele>
        <time>2017-02-27T16:14:38Z</time>
      </trkpt>
      <trkpt lat="43.08432" lon="6.02543">
        <ele>42.148887634277</ele>
        <time>2017-02-27T16:14:41Z</time>
      </trkpt>
      <trkpt lat="43.08432" lon="6.0255">
        <ele>41.887798309326</ele>
        <time>2017-02-27T16:14:43Z</time>
      </trkpt>
      <trkpt lat="43.08433" lon="6.02557">
        <ele>41.803493499756</ele>
        <time>2017-02-27T16:14:46Z</time>
      </trkpt>
      <trkpt lat="43.08432" lon="6.02562">
        <ele>42.026885986328</ele>
        <time>2017-02-27T16:14:48Z</time>
      </trkpt>
      <trkpt lat="43.08432" lon="6.02568">
        <ele>42.452972412109</ele>
        <time>2017-02-27T16:14:50Z</time>
      </trkpt>
      <trkpt lat="43.08433" lon="6.02578">
        <ele>42.972229003906</ele>
        <time>2017-02-27T16:14:53Z</time>
      </trkpt>
      <trkpt lat="43.08436" lon="6.02583">
        <ele>43.34578704834</ele>
        <time>2017-02-27T16:14:55Z</time>
      </trkpt>
      <trkpt lat="43.08437" lon="6.02589">
        <ele>43.656314849854</ele>
        <time>2017-02-27T16:14:57Z</time>
      </trkpt>
      <trkpt lat="43.08439" lon="6.02596">
        <ele>43.947563171387</ele>
        <time>2017-02-27T16:15:00Z</time>
      </trkpt>
      <trkpt lat="43.08439" lon="6.02601">
        <ele>44.217754364014</ele>
        <time>2017-02-27T16:15:02Z</time>
      </trkpt>
      <trkpt lat="43.08438" lon="6.02607">
        <ele>44.503330230713</ele>
        <time>2017-02-27T16:15:04Z</time>
      </trkpt>
      <trkpt lat="43.08437" lon="6.02613">
        <ele>44.973052978516</ele>
        <time>2017-02-27T16:15:07Z</time>
      </trkpt>
      <trkpt lat="43.0844" lon="6.02621">
        <ele>45.45698928833</ele>
        <time>2017-02-27T16:15:10Z</time>
      </trkpt>
      <trkpt lat="43.08442" lon="6.02626">
        <ele>45.841705322266</ele>
        <time>2017-02-27T16:15:12Z</time>
      </trkpt>
      <trkpt lat="43.08444" lon="6.02631">
        <ele>46.156970977783</ele>
        <time>2017-02-27T16:15:14Z</time>
      </trkpt>
      <trkpt lat="43.08444" lon="6.02634">
        <ele>46.421459197998</ele>
        <time>2017-02-27T16:15:16Z</time>
      </trkpt>
      <trkpt lat="43.08445" lon="6.02638">
        <ele>46.597778320312</ele>
        <time>2017-02-27T16:15:18Z</time>
      </trkpt>
      <trkpt lat="43.08445" lon="6.02645">
        <ele>46.832000732422</ele>
        <time>2017-02-27T16:15:21Z</time>
      </trkpt>
      <trkpt lat="43.08446" lon="6.0265">
        <ele>47.139831542969</ele>
        <time>2017-02-27T16:15:23Z</time>
      </trkpt>
      <trkpt lat="43.08447" lon="6.0266">
        <ele>47.579677581787</ele>
        <time>2017-02-27T16:15:26Z</time>
      </trkpt>
      <trkpt lat="43.08445" lon="6.02665">
        <ele>48.134132385254</ele>
        <time>2017-02-27T16:15:28Z</time>
      </trkpt>
      <trkpt lat="43.08444" lon="6.02672">
        <ele>48.835884094238</ele>
        <time>2017-02-27T16:15:31Z</time>
      </trkpt>
      <trkpt lat="43.08445" lon="6.02677">
        <ele>49.554134368896</ele>
        <time>2017-02-27T16:15:33Z</time>
      </trkpt>
      <trkpt lat="43.08447" lon="6.02686">
        <ele>50.404399871826</ele>
        <time>2017-02-27T16:15:36Z</time>
      </trkpt>
      <trkpt lat="43.08447" lon="6.02694">
        <ele>51.35636138916</ele>
        <time>2017-02-27T16:15:39Z</time>
      </trkpt>
      <trkpt lat="43.08446" lon="6.02703">
        <ele>52.447265625</ele>
        <time>2017-02-27T16:15:42Z</time>
      </trkpt>
      <trkpt lat="43.08447" lon="6.02709">
        <ele>53.480712890625</ele>
        <time>2017-02-27T16:15:44Z</time>
      </trkpt>
      <trkpt lat="43.08451" lon="6.02712">
        <ele>54.347412109375</ele>
        <time>2017-02-27T16:15:46Z</time>
      </trkpt>
      <trkpt lat="43.08459" lon="6.02711">
        <ele>54.681396484375</ele>
        <time>2017-02-27T16:15:49Z</time>
      </trkpt>
      <trkpt lat="43.08466" lon="6.0271">
        <ele>54.4580078125</ele>
        <time>2017-02-27T16:15:52Z</time>
      </trkpt>
      <trkpt lat="43.08472" lon="6.02711">
        <ele>53.703979492188</ele>
        <time>2017-02-27T16:15:55Z</time>
      </trkpt>
      <trkpt lat="43.08477" lon="6.02711">
        <ele>52.625244140625</ele>
        <time>2017-02-27T16:15:57Z</time>
      </trkpt>
      <trkpt lat="43.08482" lon="6.02711">
        <ele>51.435913085938</ele>
        <time>2017-02-27T16:15:59Z</time>
      </trkpt>
      <trkpt lat="43.08485" lon="6.02712">
        <ele>50.444091796875</ele>
        <time>2017-02-27T16:16:01Z</time>
      </trkpt>
      <trkpt lat="43.08492" lon="6.0271">
        <ele>49.445678710938</ele>
        <time>2017-02-27T16:16:04Z</time>
      </trkpt>
      <trkpt lat="43.08497" lon="6.0271">
        <ele>48.473510742188</ele>
        <time>2017-02-27T16:16:06Z</time>
      </trkpt>
      <trkpt lat="43.08502" lon="6.02711">
        <ele>47.534267425537</ele>
        <time>2017-02-27T16:16:09Z</time>
      </trkpt>
      <trkpt lat="43.08506" lon="6.02713">
        <ele>46.69909286499</ele>
        <time>2017-02-27T16:16:11Z</time>
      </trkpt>
      <trkpt lat="43.08512" lon="6.02715">
        <ele>45.909591674805</ele>
        <time>2017-02-27T16:16:14Z</time>
      </trkpt>
      <trkpt lat="43.08515" lon="6.02716">
        <ele>45.354290008545</ele>
        <time>2017-02-27T16:16:16Z</time>
      </trkpt>
      <trkpt lat="43.08521" lon="6.02716">
        <ele>44.827934265137</ele>
        <time>2017-02-27T16:16:19Z</time>
      </trkpt>
      <trkpt lat="43.08525" lon="6.02713">
        <ele>44.260654449463</ele>
        <time>2017-02-27T16:16:21Z</time>
      </trkpt>
      <trkpt lat="43.08528" lon="6.02711">
        <ele>43.581859588623</ele>
        <time>2017-02-27T16:16:23Z</time>
      </trkpt>
      <trkpt lat="43.08532" lon="6.02709">
        <ele>42.852588653564</ele>
        <time>2017-02-27T16:16:25Z</time>
      </trkpt>
      <trkpt lat="43.08534" lon="6.02708">
        <ele>42.107223510742</ele>
        <time>2017-02-27T16:16:27Z</time>
      </trkpt>
      <trkpt lat="43.08539" lon="6.02709">
        <ele>41.397644042969</ele>
        <time>2017-02-27T16:16:30Z</time>
      </trkpt>
      <trkpt lat="43.08542" lon="6.02708">
        <ele>40.764259338379</ele>
        <time>2017-02-27T16:16:32Z</time>
      </trkpt>
      <trkpt lat="43.08545" lon="6.02707">
        <ele>40.195850372314</ele>
        <time>2017-02-27T16:16:35Z</time>
      </trkpt>
      <trkpt lat="43.08549" lon="6.02707">
        <ele>39.682289123535</ele>
        <time>2017-02-27T16:16:38Z</time>
      </trkpt>
      <trkpt lat="43.08551" lon="6.02706">
        <ele>39.150581359863</ele>
        <time>2017-02-27T16:16:40Z</time>
      </trkpt>
      <trkpt lat="43.08556" lon="6.02705">
        <ele>38.567939758301</ele>
        <time>2017-02-27T16:16:43Z</time>
      </trkpt>
      <trkpt lat="43.08562" lon="6.02709">
        <ele>38.029922485352</ele>
        <time>2017-02-27T16:16:46Z</time>
      </trkpt>
      <trkpt lat="43.08567" lon="6.02715">
        <ele>37.611045837402</ele>
        <time>2017-02-27T16:16:49Z</time>
      </trkpt>
      <trkpt lat="43.08571" lon="6.02718">
        <ele>37.261924743652</ele>
        <time>2017-02-27T16:16:51Z</time>
      </trkpt>
      <trkpt lat="43.08575" lon="6.0272">
        <ele>36.967247009277</ele>
        <time>2017-02-27T16:16:53Z</time>
      </trkpt>
      <trkpt lat="43.0858" lon="6.02723">
        <ele>36.748428344727</ele>
        <time>2017-02-27T16:16:56Z</time>
      </trkpt>
      <trkpt lat="43.08584" lon="6.02724">
        <ele>36.530208587646</ele>
        <time>2017-02-27T16:16:59Z</time>
      </trkpt>
      <trkpt lat="43.08584" lon="6.02727">
        <ele>36.353294372559</ele>
        <time>2017-02-27T16:17:02Z</time>
      </trkpt>
      <trkpt lat="43.08585" lon="6.02733">
        <ele>36.327484130859</ele>
        <time>2017-02-27T16:17:05Z</time>
      </trkpt>
      <trkpt lat="43.08586" lon="6.02736">
        <ele>36.420696258545</ele>
        <time>2017-02-27T16:17:07Z</time>
      </trkpt>
      <trkpt lat="43.08588" lon="6.02739">
        <ele>36.618232727051</ele>
        <time>2017-02-27T16:17:09Z</time>
      </trkpt>
      <trkpt lat="43.08595" lon="6.0274">
        <ele>36.792987823486</ele>
        <time>2017-02-27T16:17:12Z</time>
      </trkpt>
      <trkpt lat="43.08601" lon="6.02742">
        <ele>36.814952850342</ele>
        <time>2017-02-27T16:17:15Z</time>
      </trkpt>
      <trkpt lat="43.08605" lon="6.02742">
        <ele>36.633937835693</ele>
        <time>2017-02-27T16:17:17Z</time>
      </trkpt>
      <trkpt lat="43.08612" lon="6.02737">
        <ele>36.156639099121</ele>
        <time>2017-02-27T16:17:20Z</time>
      </trkpt>
      <trkpt lat="43.08619" lon="6.02734">
        <ele>35.495994567871</ele>
        <time>2017-02-27T16:17:23Z</time>
      </trkpt>
      <trkpt lat="43.08622" lon="6.02733">
        <ele>34.854465484619</ele>
        <time>2017-02-27T16:17:25Z</time>
      </trkpt>
      <trkpt lat="43.08628" lon="6.02732">
        <ele>34.18822479248</ele>
        <time>2017-02-27T16:17:28Z</time>
      </trkpt>
      <trkpt lat="43.08635" lon="6.02728">
        <ele>33.440040588379</ele>
        <time>2017-02-27T16:17:31Z</time>
      </trkpt>
      <trkpt lat="43.08641" lon="6.02724">
        <ele>32.776798248291</ele>
        <time>2017-02-27T16:17:34Z</time>
      </trkpt>
      <trkpt lat="43.08646" lon="6.0272">
        <ele>32.163734436035</ele>
        <time>2017-02-27T16:17:37Z</time>
      </trkpt>
      <trkpt lat="43.08651" lon="6.02716">
        <ele>31.497329711914</ele>
        <time>2017-02-27T16:17:40Z</time>
      </trkpt>
      <trkpt lat="43.08657" lon="6.02713">
        <ele>30.857275009155</ele>
        <time>2017-02-27T16:17:43Z</time>
      </trkpt>
      <trkpt lat="43.08663" lon="6.0271">
        <ele>30.27799987793</ele>
        <time>2017-02-27T16:17:46Z</time>
      </trkpt>
      <trkpt lat="43.08668" lon="6.02708">
        <ele>29.799585342407</ele>
        <time>2017-02-27T16:17:48Z</time>
      </trkpt>
      <trkpt lat="43.08674" lon="6.02705">
        <ele>29.458871841431</ele>
        <time>2017-02-27T16:17:51Z</time>
      </trkpt>
      <trkpt lat="43.0868" lon="6.027">
        <ele>29.257253646851</ele>
        <time>2017-02-27T16:17:54Z</time>
      </trkpt>
      <trkpt lat="43.08683" lon="6.02697">
        <ele>29.167377471924</ele>
        <time>2017-02-27T16:17:56Z</time>
      </trkpt>
      <trkpt lat="43.08687" lon="6.02695">
        <ele>29.203832626343</ele>
        <time>2017-02-27T16:17:58Z</time>
      </trkpt>
      <trkpt lat="43.08691" lon="6.02694">
        <ele>29.309228897095</ele>
        <time>2017-02-27T16:18:00Z</time>
      </trkpt>
      <trkpt lat="43.08698" lon="6.02692">
        <ele>29.444412231445</ele>
        <time>2017-02-27T16:18:03Z</time>
      </trkpt>
      <trkpt lat="43.08704" lon="6.02691">
        <ele>29.608917236328</ele>
        <time>2017-02-27T16:18:06Z</time>
      </trkpt>
      <trkpt lat="43.08708" lon="6.0269">
        <ele>29.792806625366</ele>
        <time>2017-02-27T16:18:08Z</time>
      </trkpt>
      <trkpt lat="43.08714" lon="6.02688">
        <ele>30.004705429077</ele>
        <time>2017-02-27T16:18:11Z</time>
      </trkpt>
      <trkpt lat="43.08718" lon="6.02687">
        <ele>30.231155395508</ele>
        <time>2017-02-27T16:18:13Z</time>
      </trkpt>
      <trkpt lat="43.08722" lon="6.02687">
        <ele>30.441776275635</ele>
        <time>2017-02-27T16:18:15Z</time>
      </trkpt>
      <trkpt lat="43.08727" lon="6.02687">
        <ele>30.644115447998</ele>
        <time>2017-02-27T16:18:18Z</time>
      </trkpt>
      <trkpt lat="43.0873" lon="6.02689">
        <ele>30.828144073486</ele>
        <time>2017-02-27T16:18:20Z</time>
      </trkpt>
      <trkpt lat="43.08736" lon="6.0269">
        <ele>30.998462677002</ele>
        <time>2017-02-27T16:18:23Z</time>
      </trkpt>
      <trkpt lat="43.08743" lon="6.02692">
        <ele>31.165491104126</ele>
        <time>2017-02-27T16:18:26Z</time>
      </trkpt>
      <trkpt lat="43.08746" lon="6.02692">
        <ele>31.327381134033</ele>
        <time>2017-02-27T16:18:28Z</time>
      </trkpt>
      <trkpt lat="43.08751" lon="6.02691">
        <ele>31.486236572266</ele>
        <time>2017-02-27T16:18:30Z</time>
      </trkpt>
      <trkpt lat="43.08757" lon="6.0269">
        <ele>31.63703918457</ele>
        <time>2017-02-27T16:18:33Z</time>
      </trkpt>
      <trkpt lat="43.08762" lon="6.02688">
        <ele>31.75380897522</ele>
        <time>2017-02-27T16:18:35Z</time>
      </trkpt>
      <trkpt lat="43.08766" lon="6.02686">
        <ele>31.840774536133</ele>
        <time>2017-02-27T16:18:37Z</time>
      </trkpt>
      <trkpt lat="43.08772" lon="6.02683">
        <ele>31.89898109436</ele>
        <time>2017-02-27T16:18:40Z</time>
      </trkpt>
      <trkpt lat="43.08777" lon="6.02681">
        <ele>31.910991668701</ele>
        <time>2017-02-27T16:18:42Z</time>
      </trkpt>
      <trkpt lat="43.08783" lon="6.02676">
        <ele>31.898635864258</ele>
        <time>2017-02-27T16:18:45Z</time>
      </trkpt>
      <trkpt lat="43.08787" lon="6.02674">
        <ele>31.857181549072</ele>
        <time>2017-02-27T16:18:47Z</time>
      </trkpt>
      <trkpt lat="43.08794" lon="6.02673">
        <ele>31.774433135986</ele>
        <time>2017-02-27T16:18:50Z</time>
      </trkpt>
      <trkpt lat="43.08798" lon="6.02673">
        <ele>31.667949676514</ele>
        <time>2017-02-27T16:18:52Z</time>
      </trkpt>
      <trkpt lat="43.08803" lon="6.02672">
        <ele>31.541381835938</ele>
        <time>2017-02-27T16:18:54Z</time>
      </trkpt>
      <trkpt lat="43.08807" lon="6.0267">
        <ele>31.398044586182</ele>
        <time>2017-02-27T16:18:56Z</time>
      </trkpt>
      <trkpt lat="43.08812" lon="6.02667">
        <ele>31.219860076904</ele>
        <time>2017-02-27T16:18:59Z</time>
      </trkpt>
      <trkpt lat="43.08818" lon="6.02664">
        <ele>31.038537979126</ele>
        <time>2017-02-27T16:19:02Z</time>
      </trkpt>
      <trkpt lat="43.08824" lon="6.02659">
        <ele>30.848651885986</ele>
        <time>2017-02-27T16:19:05Z</time>
      </trkpt>
      <trkpt lat="43.08828" lon="6.02656">
        <ele>30.650060653687</ele>
        <time>2017-02-27T16:19:07Z</time>
      </trkpt>
      <trkpt lat="43.08832" lon="6.02653">
        <ele>30.444375991821</ele>
        <time>2017-02-27T16:19:09Z</time>
      </trkpt>
      <trkpt lat="43.08836" lon="6.02652">
        <ele>30.300891876221</ele>
        <time>2017-02-27T16:19:11Z</time>
      </trkpt>
      <trkpt lat="43.08842" lon="6.02651">
        <ele>30.231332778931</ele>
        <time>2017-02-27T16:19:14Z</time>
      </trkpt>
      <trkpt lat="43.08849" lon="6.02647">
        <ele>30.2109375</ele>
        <time>2017-02-27T16:19:17Z</time>
      </trkpt>
      <trkpt lat="43.08854" lon="6.02642">
        <ele>30.21572303772</ele>
        <time>2017-02-27T16:19:20Z</time>
      </trkpt>
      <trkpt lat="43.08859" lon="6.02639">
        <ele>30.244358062744</ele>
        <time>2017-02-27T16:19:23Z</time>
      </trkpt>
      <trkpt lat="43.08866" lon="6.02635">
        <ele>30.227258682251</ele>
        <time>2017-02-27T16:19:26Z</time>
      </trkpt>
      <trkpt lat="43.08869" lon="6.02633">
        <ele>30.151447296143</ele>
        <time>2017-02-27T16:19:28Z</time>
      </trkpt>
      <trkpt lat="43.08875" lon="6.0263">
        <ele>30.012777328491</ele>
        <time>2017-02-27T16:19:31Z</time>
      </trkpt>
      <trkpt lat="43.0888" lon="6.02627">
        <ele>29.816986083984</ele>
        <time>2017-02-27T16:19:34Z</time>
      </trkpt>
      <trkpt lat="43.08884" lon="6.02621">
        <ele>29.52184677124</ele>
        <time>2017-02-27T16:19:37Z</time>
      </trkpt>
      <trkpt lat="43.08891" lon="6.02618">
        <ele>29.155841827393</ele>
        <time>2017-02-27T16:19:40Z</time>
      </trkpt>
      <trkpt lat="43.08895" lon="6.02615">
        <ele>28.732355117798</ele>
        <time>2017-02-27T16:19:42Z</time>
      </trkpt>
      <trkpt lat="43.08899" lon="6.02613">
        <ele>28.28310585022</ele>
        <time>2017-02-27T16:19:44Z</time>
      </trkpt>
      <trkpt lat="43.08904" lon="6.02609">
        <ele>27.754507064819</ele>
        <time>2017-02-27T16:19:47Z</time>
      </trkpt>
      <trkpt lat="43.08908" lon="6.02607">
        <ele>27.226673126221</ele>
        <time>2017-02-27T16:19:49Z</time>
      </trkpt>
      <trkpt lat="43.08915" lon="6.02605">
        <ele>26.688501358032</ele>
        <time>2017-02-27T16:19:52Z</time>
      </trkpt>
      <trkpt lat="43.08923" lon="6.02603">
        <ele>26.104625701904</ele>
        <time>2017-02-27T16:19:55Z</time>
      </trkpt>
      <trkpt lat="43.08928" lon="6.02601">
        <ele>25.515981674194</ele>
        <time>2017-02-27T16:19:57Z</time>
      </trkpt>
      <trkpt lat="43.08932" lon="6.02601">
        <ele>25.013275146484</ele>
        <time>2017-02-27T16:19:59Z</time>
      </trkpt>
      <trkpt lat="43.08937" lon="6.02598">
        <ele>24.522504806519</ele>
        <time>2017-02-27T16:20:01Z</time>
      </trkpt>
      <trkpt lat="43.08942" lon="6.02594">
        <ele>23.97204208374</ele>
        <time>2017-02-27T16:20:03Z</time>
      </trkpt>
      <trkpt lat="43.08944" lon="6.02589">
        <ele>23.389505386353</ele>
        <time>2017-02-27T16:20:05Z</time>
      </trkpt>
      <trkpt lat="43.08949" lon="6.02584">
        <ele>22.685302734375</ele>
        <time>2017-02-27T16:20:08Z</time>
      </trkpt>
      <trkpt lat="43.08953" lon="6.02582">
        <ele>21.967966079712</ele>
        <time>2017-02-27T16:20:10Z</time>
      </trkpt>
      <trkpt lat="43.08959" lon="6.02578">
        <ele>21.253484725952</ele>
        <time>2017-02-27T16:20:13Z</time>
      </trkpt>
      <trkpt lat="43.08963" lon="6.02576">
        <ele>20.661142349243</ele>
        <time>2017-02-27T16:20:15Z</time>
      </trkpt>
      <trkpt lat="43.08969" lon="6.02574">
        <ele>20.144550323486</ele>
        <time>2017-02-27T16:20:18Z</time>
      </trkpt>
      <trkpt lat="43.08975" lon="6.02572">
        <ele>19.724426269531</ele>
        <time>2017-02-27T16:20:21Z</time>
      </trkpt>
      <trkpt lat="43.08978" lon="6.0257">
        <ele>19.312261581421</ele>
        <time>2017-02-27T16:20:23Z</time>
      </trkpt>
      <trkpt lat="43.08982" lon="6.02568">
        <ele>18.944778442383</ele>
        <time>2017-02-27T16:20:25Z</time>
      </trkpt>
      <trkpt lat="43.08988" lon="6.02567">
        <ele>18.560832977295</ele>
        <time>2017-02-27T16:20:28Z</time>
      </trkpt>
      <trkpt lat="43.08991" lon="6.02568">
        <ele>18.251932144165</ele>
        <time>2017-02-27T16:20:30Z</time>
      </trkpt>
      <trkpt lat="43.08996" lon="6.02569">
        <ele>18.011066436768</ele>
        <time>2017-02-27T16:20:32Z</time>
      </trkpt>
      <trkpt lat="43.09002" lon="6.02567">
        <ele>17.728496551514</ele>
        <time>2017-02-27T16:20:35Z</time>
      </trkpt>
      <trkpt lat="43.09008" lon="6.02563">
        <ele>17.318801879883</ele>
        <time>2017-02-27T16:20:38Z</time>
      </trkpt>
      <trkpt lat="43.09014" lon="6.02561">
        <ele>16.85248374939</ele>
        <time>2017-02-27T16:20:41Z</time>
      </trkpt>
      <trkpt lat="43.09018" lon="6.0256">
        <ele>16.320714950562</ele>
        <time>2017-02-27T16:20:43Z</time>
      </trkpt>
      <trkpt lat="43.09024" lon="6.02559">
        <ele>15.702781677246</ele>
        <time>2017-02-27T16:20:46Z</time>
      </trkpt>
      <trkpt lat="43.0903" lon="6.02557">
        <ele>15.081387519836</ele>
        <time>2017-02-27T16:20:49Z</time>
      </trkpt>
      <trkpt lat="43.09034" lon="6.02556">
        <ele>14.567728042603</ele>
        <time>2017-02-27T16:20:51Z</time>
      </trkpt>
      <trkpt lat="43.0904" lon="6.02556">
        <ele>14.084597587585</ele>
        <time>2017-02-27T16:20:54Z</time>
      </trkpt>
      <trkpt lat="43.09045" lon="6.02555">
        <ele>13.593820571899</ele>
        <time>2017-02-27T16:20:56Z</time>
      </trkpt>
      <trkpt lat="43.0905" lon="6.0255">
        <ele>13.060918807983</ele>
        <time>2017-02-27T16:20:59Z</time>
      </trkpt>
      <trkpt lat="43.09052" lon="6.02542">
        <ele>12.477890014648</ele>
        <time>2017-02-27T16:21:02Z</time>
      </trkpt>
      <trkpt lat="43.09055" lon="6.02537">
        <ele>11.857942581177</ele>
        <time>2017-02-27T16:21:04Z</time>
      </trkpt>
      <trkpt lat="43.09059" lon="6.02533">
        <ele>11.209058761597</ele>
        <time>2017-02-27T16:21:06Z</time>
      </trkpt>
      <trkpt lat="43.09063" lon="6.02528">
        <ele>10.518414497375</ele>
        <time>2017-02-27T16:21:08Z</time>
      </trkpt>
      <trkpt lat="43.09066" lon="6.02525">
        <ele>9.8945255279541</ele>
        <time>2017-02-27T16:21:10Z</time>
      </trkpt>
      <trkpt lat="43.0907" lon="6.02523">
        <ele>9.3637018203735</ele>
        <time>2017-02-27T16:21:12Z</time>
      </trkpt>
      <trkpt lat="43.09076" lon="6.02523">
        <ele>8.8674459457397</ele>
        <time>2017-02-27T16:21:15Z</time>
      </trkpt>
      <trkpt lat="43.09084" lon="6.02522">
        <ele>8.4096479415894</ele>
        <time>2017-02-27T16:21:18Z</time>
      </trkpt>
      <trkpt lat="43.0909" lon="6.02522">
        <ele>8.026442527771</ele>
        <time>2017-02-27T16:21:21Z</time>
      </trkpt>
      <trkpt lat="43.09094" lon="6.02522">
        <ele>7.7214822769165</ele>
        <time>2017-02-27T16:21:23Z</time>
      </trkpt>
      <trkpt lat="43.09101" lon="6.02523">
        <ele>7.4553995132446</ele>
        <time>2017-02-27T16:21:26Z</time>
      </trkpt>
      <trkpt lat="43.09109" lon="6.02523">
        <ele>7.2118101119995</ele>
        <time>2017-02-27T16:21:29Z</time>
      </trkpt>
      <trkpt lat="43.09113" lon="6.02522">
        <ele>7.0241103172302</ele>
        <time>2017-02-27T16:21:31Z</time>
      </trkpt>
      <trkpt lat="43.0912" lon="6.02522">
        <ele>6.8314728736877</ele>
        <time>2017-02-27T16:21:34Z</time>
      </trkpt>
      <trkpt lat="43.09124" lon="6.02521">
        <ele>6.6232008934021</ele>
        <time>2017-02-27T16:21:36Z</time>
      </trkpt>
      <trkpt lat="43.0913" lon="6.0252">
        <ele>6.3864393234253</ele>
        <time>2017-02-27T16:21:39Z</time>
      </trkpt>
      <trkpt lat="43.09134" lon="6.02519">
        <ele>6.1668491363525</ele>
        <time>2017-02-27T16:21:41Z</time>
      </trkpt>
      <trkpt lat="43.0914" lon="6.0252">
        <ele>5.9500021934509</ele>
        <time>2017-02-27T16:21:44Z</time>
      </trkpt>
      <trkpt lat="43.09144" lon="6.0252">
        <ele>5.7649478912354</ele>
        <time>2017-02-27T16:21:46Z</time>
      </trkpt>
      <trkpt lat="43.09149" lon="6.02521">
        <ele>5.5899481773376</ele>
        <time>2017-02-27T16:21:48Z</time>
      </trkpt>
      <trkpt lat="43.09156" lon="6.0252">
        <ele>5.4252786636353</ele>
        <time>2017-02-27T16:21:51Z</time>
      </trkpt>
      <trkpt lat="43.09163" lon="6.0252">
        <ele>5.2475881576538</ele>
        <time>2017-02-27T16:21:54Z</time>
      </trkpt>
      <trkpt lat="43.0917" lon="6.02521">
        <ele>5.0775246620178</ele>
        <time>2017-02-27T16:21:57Z</time>
      </trkpt>
      <trkpt lat="43.09174" lon="6.02522">
        <ele>4.9405298233032</ele>
        <time>2017-02-27T16:21:59Z</time>
      </trkpt>
      <trkpt lat="43.0918" lon="6.02524">
        <ele>4.845251083374</ele>
        <time>2017-02-27T16:22:02Z</time>
      </trkpt>
      <trkpt lat="43.0918" lon="6.02529">
        <ele>4.8743758201599</ele>
        <time>2017-02-27T16:22:04Z</time>
      </trkpt>
      <trkpt lat="43.09178" lon="6.02538">
        <ele>5.1154789924622</ele>
        <time>2017-02-27T16:22:07Z</time>
      </trkpt>
      <trkpt lat="43.09178" lon="6.02547">
        <ele>5.5127725601196</ele>
        <time>2017-02-27T16:22:10Z</time>
      </trkpt>
      <trkpt lat="43.09178" lon="6.02552">
        <ele>5.9868988990784</ele>
        <time>2017-02-27T16:22:12Z</time>
      </trkpt>
      <trkpt lat="43.0918" lon="6.02561">
        <ele>6.5675659179688</ele>
        <time>2017-02-27T16:22:15Z</time>
      </trkpt>
      <trkpt lat="43.09181" lon="6.02569">
        <ele>7.2008147239685</ele>
        <time>2017-02-27T16:22:18Z</time>
      </trkpt>
      <trkpt lat="43.09181" lon="6.02574">
        <ele>7.7481169700623</ele>
        <time>2017-02-27T16:22:20Z</time>
      </trkpt>
      <trkpt lat="43.0918" lon="6.02582">
        <ele>8.3004188537598</ele>
        <time>2017-02-27T16:22:23Z</time>
      </trkpt>
      <trkpt lat="43.09179" lon="6.02588">
        <ele>8.8196105957031</ele>
        <time>2017-02-27T16:22:25Z</time>
      </trkpt>
      <trkpt lat="43.09177" lon="6.02593">
        <ele>9.2682294845581</ele>
        <time>2017-02-27T16:22:27Z</time>
      </trkpt>
      <trkpt lat="43.09176" lon="6.02602">
        <ele>9.6616134643555</ele>
        <time>2017-02-27T16:22:30Z</time>
      </trkpt>
      <trkpt lat="43.09176" lon="6.02609">
        <ele>10.029353141785</ele>
        <time>2017-02-27T16:22:33Z</time>
      </trkpt>
      <trkpt lat="43.09177" lon="6.02616">
        <ele>10.309627532959</ele>
        <time>2017-02-27T16:22:36Z</time>
      </trkpt>
      <trkpt lat="43.0918" lon="6.02622">
        <ele>10.557445526123</ele>
        <time>2017-02-27T16:22:39Z</time>
      </trkpt>
      <trkpt lat="43.09185" lon="6.02625">
        <ele>10.748824119568</ele>
        <time>2017-02-27T16:22:42Z</time>
      </trkpt>
      <trkpt lat="43.0919" lon="6.02624">
        <ele>10.827470779419</ele>
        <time>2017-02-27T16:22:44Z</time>
      </trkpt>
      <trkpt lat="43.09197" lon="6.02621">
        <ele>10.793218612671</ele>
        <time>2017-02-27T16:22:47Z</time>
      </trkpt>
      <trkpt lat="43.09204" lon="6.0262">
        <ele>10.659781455994</ele>
        <time>2017-02-27T16:22:50Z</time>
      </trkpt>
      <trkpt lat="43.09209" lon="6.0262">
        <ele>10.468348503113</ele>
        <time>2017-02-27T16:22:52Z</time>
      </trkpt>
      <trkpt lat="43.09215" lon="6.02619">
        <ele>10.238402366638</ele>
        <time>2017-02-27T16:22:55Z</time>
      </trkpt>
      <trkpt lat="43.09219" lon="6.02618">
        <ele>10.018010139465</ele>
        <time>2017-02-27T16:22:57Z</time>
      </trkpt>
      <trkpt lat="43.09222" lon="6.02616">
        <ele>9.8164863586426</ele>
        <time>2017-02-27T16:22:59Z</time>
      </trkpt>
      <trkpt lat="43.09228" lon="6.02619">
        <ele>9.6587295532227</ele>
        <time>2017-02-27T16:23:02Z</time>
      </trkpt>
      <trkpt lat="43.09232" lon="6.02625">
        <ele>9.5665578842163</ele>
        <time>2017-02-27T16:23:05Z</time>
      </trkpt>
      <trkpt lat="43.09236" lon="6.02632">
        <ele>9.5533742904663</ele>
        <time>2017-02-27T16:23:08Z</time>
      </trkpt>
      <trkpt lat="43.09239" lon="6.0264">
        <ele>9.6309099197388</ele>
        <time>2017-02-27T16:23:11Z</time>
      </trkpt>
      <trkpt lat="43.09242" lon="6.02644">
        <ele>9.7749633789062</ele>
        <time>2017-02-27T16:23:13Z</time>
      </trkpt>
      <trkpt lat="43.09247" lon="6.02649">
        <ele>9.9446392059326</ele>
        <time>2017-02-27T16:23:16Z</time>
      </trkpt>
      <trkpt lat="43.09254" lon="6.02653">
        <ele>10.09356212616</ele>
        <time>2017-02-27T16:23:19Z</time>
      </trkpt>
      <trkpt lat="43.09258" lon="6.02656">
        <ele>10.228011131287</ele>
        <time>2017-02-27T16:23:21Z</time>
      </trkpt>
      <trkpt lat="43.09261" lon="6.02662">
        <ele>10.348938941956</ele>
        <time>2017-02-27T16:23:24Z</time>
      </trkpt>
      <trkpt lat="43.09265" lon="6.02669">
        <ele>10.530356407166</ele>
        <time>2017-02-27T16:23:27Z</time>
      </trkpt>
      <trkpt lat="43.0927" lon="6.02667">
        <ele>10.644775390625</ele>
        <time>2017-02-27T16:23:30Z</time>
      </trkpt>
      <trkpt lat="43.09275" lon="6.02659">
        <ele>10.650146484375</ele>
        <time>2017-02-27T16:23:33Z</time>
      </trkpt>
      <trkpt lat="43.09281" lon="6.02652">
        <ele>10.548095703125</ele>
        <time>2017-02-27T16:23:36Z</time>
      </trkpt>
      <trkpt lat="43.09285" lon="6.02647">
        <ele>10.346435546875</ele>
        <time>2017-02-27T16:23:38Z</time>
      </trkpt>
      <trkpt lat="43.09288" lon="6.02642">
        <ele>10.005737304688</ele>
        <time>2017-02-27T16:23:40Z</time>
      </trkpt>
      <trkpt lat="43.09293" lon="6.02635">
        <ele>9.63232421875</ele>
        <time>2017-02-27T16:23:43Z</time>
      </trkpt>
      <trkpt lat="43.09297" lon="6.02626">
        <ele>9.26806640625</ele>
        <time>2017-02-27T16:23:46Z</time>
      </trkpt>
      <trkpt lat="43.09299" lon="6.02622">
        <ele>8.93896484375</ele>
        <time>2017-02-27T16:23:48Z</time>
      </trkpt>
      <trkpt lat="43.09303" lon="6.02614">
        <ele>8.58203125</ele>
        <time>2017-02-27T16:23:51Z</time>
      </trkpt>
      <trkpt lat="43.09307" lon="6.02606">
        <ele>8.1962890625</ele>
        <time>2017-02-27T16:23:54Z</time>
      </trkpt>
      <trkpt lat="43.09309" lon="6.02601">
        <ele>7.8330078125</ele>
        <time>2017-02-27T16:23:56Z</time>
      </trkpt>
      <trkpt lat="43.09312" lon="6.02592">
        <ele>7.47021484375</ele>
        <time>2017-02-27T16:23:59Z</time>
      </trkpt>
      <trkpt lat="43.09314" lon="6.02588">
        <ele>7.10791015625</ele>
        <time>2017-02-27T16:24:01Z</time>
      </trkpt>
      <trkpt lat="43.09321" lon="6.02586">
        <ele>6.79248046875</ele>
        <time>2017-02-27T16:24:04Z</time>
      </trkpt>
      <trkpt lat="43.09325" lon="6.02587">
        <ele>6.5615234375</ele>
        <time>2017-02-27T16:24:06Z</time>
      </trkpt>
      <trkpt lat="43.09331" lon="6.02593">
        <ele>6.43212890625</ele>
        <time>2017-02-27T16:24:09Z</time>
      </trkpt>
      <trkpt lat="43.09333" lon="6.02598">
        <ele>6.4312148094177</ele>
        <time>2017-02-27T16:24:11Z</time>
      </trkpt>
      <trkpt lat="43.09338" lon="6.02606">
        <ele>6.5747995376587</ele>
        <time>2017-02-27T16:24:14Z</time>
      </trkpt>
      <trkpt lat="43.09341" lon="6.02609">
        <ele>6.7956085205078</ele>
        <time>2017-02-27T16:24:16Z</time>
      </trkpt>
      <trkpt lat="43.09347" lon="6.02611">
        <ele>7.0523200035095</ele>
        <time>2017-02-27T16:24:19Z</time>
      </trkpt>
      <trkpt lat="43.09351" lon="6.02612">
        <ele>7.2847204208374</ele>
        <time>2017-02-27T16:24:21Z</time>
      </trkpt>
      <trkpt lat="43.09357" lon="6.02616">
        <ele>7.5290389060974</ele>
        <time>2017-02-27T16:24:24Z</time>
      </trkpt>
      <trkpt lat="43.09361" lon="6.02617">
        <ele>7.6989507675171</ele>
        <time>2017-02-27T16:24:26Z</time>
      </trkpt>
      <trkpt lat="43.09365" lon="6.02619">
        <ele>7.8549423217773</ele>
        <time>2017-02-27T16:24:28Z</time>
      </trkpt>
      <trkpt lat="43.09371" lon="6.02621">
        <ele>8.0039958953857</ele>
        <time>2017-02-27T16:24:31Z</time>
      </trkpt>
      <trkpt lat="43.09377" lon="6.02622">
        <ele>8.1582670211792</ele>
        <time>2017-02-27T16:24:34Z</time>
      </trkpt>
      <trkpt lat="43.09381" lon="6.02625">
        <ele>8.2920513153076</ele>
        <time>2017-02-27T16:24:36Z</time>
      </trkpt>
      <trkpt lat="43.09386" lon="6.0263">
        <ele>8.4460649490356</ele>
        <time>2017-02-27T16:24:39Z</time>
      </trkpt>
      <trkpt lat="43.09391" lon="6.02634">
        <ele>8.6089687347412</ele>
        <time>2017-02-27T16:24:42Z</time>
      </trkpt>
      <trkpt lat="43.09397" lon="6.02638">
        <ele>8.7778329849243</ele>
        <time>2017-02-27T16:24:45Z</time>
      </trkpt>
      <trkpt lat="43.094" lon="6.02639">
        <ele>8.9360151290894</ele>
        <time>2017-02-27T16:24:47Z</time>
      </trkpt>
      <trkpt lat="43.09404" lon="6.02641">
        <ele>9.0767917633057</ele>
        <time>2017-02-27T16:24:49Z</time>
      </trkpt>
      <trkpt lat="43.09409" lon="6.02643">
        <ele>9.1955547332764</ele>
        <time>2017-02-27T16:24:52Z</time>
      </trkpt>
      <trkpt lat="43.09415" lon="6.02645">
        <ele>9.2953319549561</ele>
        <time>2017-02-27T16:24:55Z</time>
      </trkpt>
      <trkpt lat="43.09419" lon="6.02648">
        <ele>9.3909111022949</ele>
        <time>2017-02-27T16:24:57Z</time>
      </trkpt>
      <trkpt lat="43.09423" lon="6.02651">
        <ele>9.5076675415039</ele>
        <time>2017-02-27T16:24:59Z</time>
      </trkpt>
      <trkpt lat="43.0943" lon="6.02655">
        <ele>9.6602458953857</ele>
        <time>2017-02-27T16:25:02Z</time>
      </trkpt>
      <trkpt lat="43.09433" lon="6.02656">
        <ele>9.8156690597534</ele>
        <time>2017-02-27T16:25:04Z</time>
      </trkpt>
      <trkpt lat="43.09436" lon="6.02657">
        <ele>9.974045753479</ele>
        <time>2017-02-27T16:25:06Z</time>
      </trkpt>
      <trkpt lat="43.09441" lon="6.02659">
        <ele>10.135010719299</ele>
        <time>2017-02-27T16:25:09Z</time>
      </trkpt>
      <trkpt lat="43.09444" lon="6.02661">
        <ele>10.285774230957</ele>
        <time>2017-02-27T16:25:11Z</time>
      </trkpt>
      <trkpt lat="43.09448" lon="6.02665">
        <ele>10.421714782715</ele>
        <time>2017-02-27T16:25:14Z</time>
      </trkpt>
      <trkpt lat="43.09452" lon="6.02671">
        <ele>10.588539123535</ele>
        <time>2017-02-27T16:25:17Z</time>
      </trkpt>
      <trkpt lat="43.09455" lon="6.02674">
        <ele>10.774641036987</ele>
        <time>2017-02-27T16:25:19Z</time>
      </trkpt>
      <trkpt lat="43.0946" lon="6.02677">
        <ele>10.974303245544</ele>
        <time>2017-02-27T16:25:22Z</time>
      </trkpt>
      <trkpt lat="43.09463" lon="6.02678">
        <ele>11.174575805664</ele>
        <time>2017-02-27T16:25:24Z</time>
      </trkpt>
      <trkpt lat="43.09468" lon="6.0268">
        <ele>11.375732421875</ele>
        <time>2017-02-27T16:25:27Z</time>
      </trkpt>
      <trkpt lat="43.09472" lon="6.02682">
        <ele>11.557250976562</ele>
        <time>2017-02-27T16:25:30Z</time>
      </trkpt>
      <trkpt lat="43.09474" lon="6.02685">
        <ele>11.726440429688</ele>
        <time>2017-02-27T16:25:33Z</time>
      </trkpt>
      <trkpt lat="43.09477" lon="6.02688">
        <ele>11.88720703125</ele>
        <time>2017-02-27T16:25:36Z</time>
      </trkpt>
      <trkpt lat="43.09483" lon="6.02693">
        <ele>12.081909179688</ele>
        <time>2017-02-27T16:25:39Z</time>
      </trkpt>
      <trkpt lat="43.0949" lon="6.02696">
        <ele>12.297729492188</ele>
        <time>2017-02-27T16:25:42Z</time>
      </trkpt>
      <trkpt lat="43.09494" lon="6.02697">
        <ele>12.5048828125</ele>
        <time>2017-02-27T16:25:44Z</time>
      </trkpt>
      <trkpt lat="43.09499" lon="6.02697">
        <ele>12.708129882812</ele>
        <time>2017-02-27T16:25:46Z</time>
      </trkpt>
      <trkpt lat="43.09504" lon="6.02697">
        <ele>12.911570549011</ele>
        <time>2017-02-27T16:25:49Z</time>
      </trkpt>
      <trkpt lat="43.0951" lon="6.02696">
        <ele>13.081950187683</ele>
        <time>2017-02-27T16:25:52Z</time>
      </trkpt>
      <trkpt lat="43.09514" lon="6.02698">
        <ele>13.23627281189</ele>
        <time>2017-02-27T16:25:54Z</time>
      </trkpt>
      <trkpt lat="43.09519" lon="6.02704">
        <ele>13.431816101074</ele>
        <time>2017-02-27T16:25:57Z</time>
      </trkpt>
      <trkpt lat="43.09522" lon="6.02707">
        <ele>13.644612312317</ele>
        <time>2017-02-27T16:25:59Z</time>
      </trkpt>
      <trkpt lat="43.09525" lon="6.02709">
        <ele>13.851652145386</ele>
        <time>2017-02-27T16:26:01Z</time>
      </trkpt>
      <trkpt lat="43.09528" lon="6.0271">
        <ele>14.056028366089</ele>
        <time>2017-02-27T16:26:03Z</time>
      </trkpt>
      <trkpt lat="43.09534" lon="6.02706">
        <ele>14.231637954712</ele>
        <time>2017-02-27T16:26:06Z</time>
      </trkpt>
      <trkpt lat="43.09538" lon="6.02704">
        <ele>14.351956367493</ele>
        <time>2017-02-27T16:26:08Z</time>
      </trkpt>
      <trkpt lat="43.09544" lon="6.02703">
        <ele>14.458745956421</ele>
        <time>2017-02-27T16:26:11Z</time>
      </trkpt>
      <trkpt lat="43.09549" lon="6.02705">
        <ele>14.577082633972</ele>
        <time>2017-02-27T16:26:14Z</time>
      </trkpt>
      <trkpt lat="43.09554" lon="6.02707">
        <ele>14.716260910034</ele>
        <time>2017-02-27T16:26:17Z</time>
      </trkpt>
      <trkpt lat="43.09558" lon="6.02709">
        <ele>14.878870010376</ele>
        <time>2017-02-27T16:26:19Z</time>
      </trkpt>
      <trkpt lat="43.09563" lon="6.0271">
        <ele>15.061929702759</ele>
        <time>2017-02-27T16:26:21Z</time>
      </trkpt>
      <trkpt lat="43.09569" lon="6.02709">
        <ele>15.245590209961</ele>
        <time>2017-02-27T16:26:24Z</time>
      </trkpt>
      <trkpt lat="43.09573" lon="6.02706">
        <ele>15.402109146118</ele>
        <time>2017-02-27T16:26:26Z</time>
      </trkpt>
      <trkpt lat="43.09579" lon="6.02702">
        <ele>15.53058052063</ele>
        <time>2017-02-27T16:26:29Z</time>
      </trkpt>
      <trkpt lat="43.09583" lon="6.02695">
        <ele>15.610910415649</ele>
        <time>2017-02-27T16:26:32Z</time>
      </trkpt>
      <trkpt lat="43.09586" lon="6.02686">
        <ele>15.647537231445</ele>
        <time>2017-02-27T16:26:35Z</time>
      </trkpt>
      <trkpt lat="43.09591" lon="6.02681">
        <ele>15.683944702148</ele>
        <time>2017-02-27T16:26:44Z</time>
      </trkpt>
      <trkpt lat="43.09596" lon="6.02675">
        <ele>15.719711303711</ele>
        <time>2017-02-27T16:26:44Z</time>
      </trkpt>
      <trkpt lat="43.09598" lon="6.02671">
        <ele>15.736139297485</ele>
        <time>2017-02-27T16:26:45Z</time>
      </trkpt>
      <trkpt lat="43.09601" lon="6.02666">
        <ele>15.770208358765</ele>
        <time>2017-02-27T16:26:46Z</time>
      </trkpt>
      <trkpt lat="43.09608" lon="6.02661">
        <ele>15.85991191864</ele>
        <time>2017-02-27T16:26:48Z</time>
      </trkpt>
      <trkpt lat="43.0961" lon="6.02657">
        <ele>15.92800617218</ele>
        <time>2017-02-27T16:26:50Z</time>
      </trkpt>
      <trkpt lat="43.09613" lon="6.0265">
        <ele>15.979074478149</ele>
        <time>2017-02-27T16:26:53Z</time>
      </trkpt>
      <trkpt lat="43.09615" lon="6.02646">
        <ele>16.042873382568</ele>
        <time>2017-02-27T16:26:55Z</time>
      </trkpt>
      <trkpt lat="43.09618" lon="6.02641">
        <ele>16.111175537109</ele>
        <time>2017-02-27T16:26:57Z</time>
      </trkpt>
      <trkpt lat="43.0962" lon="6.02635">
        <ele>16.133726119995</ele>
        <time>2017-02-27T16:26:59Z</time>
      </trkpt>
      <trkpt lat="43.09621" lon="6.02628">
        <ele>16.140003204346</ele>
        <time>2017-02-27T16:27:02Z</time>
      </trkpt>
      <trkpt lat="43.09623" lon="6.0262">
        <ele>16.126064300537</ele>
        <time>2017-02-27T16:27:05Z</time>
      </trkpt>
      <trkpt lat="43.09624" lon="6.02615">
        <ele>16.100522994995</ele>
        <time>2017-02-27T16:27:07Z</time>
      </trkpt>
      <trkpt lat="43.09626" lon="6.0261">
        <ele>16.070892333984</ele>
        <time>2017-02-27T16:27:09Z</time>
      </trkpt>
      <trkpt lat="43.0963" lon="6.02603">
        <ele>16.061220169067</ele>
        <time>2017-02-27T16:27:12Z</time>
      </trkpt>
      <trkpt lat="43.09633" lon="6.026">
        <ele>16.086868286133</ele>
        <time>2017-02-27T16:27:14Z</time>
      </trkpt>
      <trkpt lat="43.09637" lon="6.02594">
        <ele>16.166072845459</ele>
        <time>2017-02-27T16:27:17Z</time>
      </trkpt>
      <trkpt lat="43.09641" lon="6.0259">
        <ele>16.273626327515</ele>
        <time>2017-02-27T16:27:19Z</time>
      </trkpt>
      <trkpt lat="43.09644" lon="6.02583">
        <ele>16.397552490234</ele>
        <time>2017-02-27T16:27:22Z</time>
      </trkpt>
      <trkpt lat="43.09648" lon="6.02576">
        <ele>16.628894805908</ele>
        <time>2017-02-27T16:27:25Z</time>
      </trkpt>
      <trkpt lat="43.09651" lon="6.02573">
        <ele>16.920343399048</ele>
        <time>2017-02-27T16:27:27Z</time>
      </trkpt>
      <trkpt lat="43.09655" lon="6.02568">
        <ele>17.286128997803</ele>
        <time>2017-02-27T16:27:30Z</time>
      </trkpt>
      <trkpt lat="43.09659" lon="6.02563">
        <ele>17.752712249756</ele>
        <time>2017-02-27T16:27:33Z</time>
      </trkpt>
      <trkpt lat="43.09661" lon="6.02559">
        <ele>18.280517578125</ele>
        <time>2017-02-27T16:27:35Z</time>
      </trkpt>
      <trkpt lat="43.09658" lon="6.02551">
        <ele>18.75782585144</ele>
        <time>2017-02-27T16:27:38Z</time>
      </trkpt>
      <trkpt lat="43.09654" lon="6.02546">
        <ele>19.136444091797</ele>
        <time>2017-02-27T16:27:40Z</time>
      </trkpt>
      <trkpt lat="43.09649" lon="6.02543">
        <ele>19.352876663208</ele>
        <time>2017-02-27T16:27:42Z</time>
      </trkpt>
      <trkpt lat="43.0964" lon="6.02542">
        <ele>19.303802490234</ele>
        <time>2017-02-27T16:27:45Z</time>
      </trkpt>
      <trkpt lat="43.09631" lon="6.0254">
        <ele>19.028705596924</ele>
        <time>2017-02-27T16:27:48Z</time>
      </trkpt>
      <trkpt lat="43.09624" lon="6.02538">
        <ele>18.559490203857</ele>
        <time>2017-02-27T16:27:51Z</time>
      </trkpt>
      <trkpt lat="43.09616" lon="6.02535">
        <ele>17.971633911133</ele>
        <time>2017-02-27T16:27:54Z</time>
      </trkpt>
      <trkpt lat="43.09608" lon="6.02533">
        <ele>17.315853118896</ele>
        <time>2017-02-27T16:27:57Z</time>
      </trkpt>
      <trkpt lat="43.09604" lon="6.0253">
        <ele>16.7239818573</ele>
        <time>2017-02-27T16:27:59Z</time>
      </trkpt>
      <trkpt lat="43.096" lon="6.02526">
        <ele>16.22350692749</ele>
        <time>2017-02-27T16:28:01Z</time>
      </trkpt>
      <trkpt lat="43.09597" lon="6.02523">
        <ele>15.78345489502</ele>
        <time>2017-02-27T16:28:03Z</time>
      </trkpt>
      <trkpt lat="43.09591" lon="6.02524">
        <ele>15.344655036926</ele>
        <time>2017-02-27T16:28:06Z</time>
      </trkpt>
      <trkpt lat="43.09586" lon="6.02524">
        <ele>14.936605453491</ele>
        <time>2017-02-27T16:28:08Z</time>
      </trkpt>
      <trkpt lat="43.09584" lon="6.02522">
        <ele>14.565096855164</ele>
        <time>2017-02-27T16:28:10Z</time>
      </trkpt>
      <trkpt lat="43.09582" lon="6.02521">
        <ele>14.215850830078</ele>
        <time>2017-02-27T16:28:12Z</time>
      </trkpt>
      <trkpt lat="43.09578" lon="6.0252">
        <ele>13.889973640442</ele>
        <time>2017-02-27T16:28:14Z</time>
      </trkpt>
      <trkpt lat="43.09572" lon="6.02518">
        <ele>13.634411811829</ele>
        <time>2017-02-27T16:28:17Z</time>
      </trkpt>
      <trkpt lat="43.09568" lon="6.02515">
        <ele>13.431806564331</ele>
        <time>2017-02-27T16:28:19Z</time>
      </trkpt>
      <trkpt lat="43.09562" lon="6.0251">
        <ele>13.204221725464</ele>
        <time>2017-02-27T16:28:22Z</time>
      </trkpt>
      <trkpt lat="43.09558" lon="6.02509">
        <ele>12.965924263</ele>
        <time>2017-02-27T16:28:24Z</time>
      </trkpt>
      <trkpt lat="43.09553" lon="6.02504">
        <ele>12.702593803406</ele>
        <time>2017-02-27T16:28:27Z</time>
      </trkpt>
      <trkpt lat="43.09549" lon="6.025">
        <ele>12.45398235321</ele>
        <time>2017-02-27T16:28:29Z</time>
      </trkpt>
      <trkpt lat="43.09545" lon="6.02495">
        <ele>12.204778671265</ele>
        <time>2017-02-27T16:28:32Z</time>
      </trkpt>
      <trkpt lat="43.09542" lon="6.0249">
        <ele>11.982664108276</ele>
        <time>2017-02-27T16:28:34Z</time>
      </trkpt>
      <trkpt lat="43.09538" lon="6.02486">
        <ele>11.747575759888</ele>
        <time>2017-02-27T16:28:37Z</time>
      </trkpt>
      <trkpt lat="43.09532" lon="6.02482">
        <ele>11.498843193054</ele>
        <time>2017-02-27T16:28:40Z</time>
      </trkpt>
      <trkpt lat="43.09528" lon="6.02479">
        <ele>11.239657402039</ele>
        <time>2017-02-27T16:28:42Z</time>
      </trkpt>
      <trkpt lat="43.09524" lon="6.02476">
        <ele>10.975275039673</ele>
        <time>2017-02-27T16:28:44Z</time>
      </trkpt>
      <trkpt lat="43.09518" lon="6.02469">
        <ele>10.654801368713</ele>
        <time>2017-02-27T16:28:47Z</time>
      </trkpt>
      <trkpt lat="43.09512" lon="6.02461">
        <ele>10.294215202332</ele>
        <time>2017-02-27T16:28:50Z</time>
      </trkpt>
      <trkpt lat="43.09508" lon="6.02457">
        <ele>9.9317302703857</ele>
        <time>2017-02-27T16:28:52Z</time>
      </trkpt>
      <trkpt lat="43.09501" lon="6.02452">
        <ele>9.4907970428467</ele>
        <time>2017-02-27T16:28:55Z</time>
      </trkpt>
      <trkpt lat="43.09496" lon="6.02446">
        <ele>9.0451860427856</ele>
        <time>2017-02-27T16:28:57Z</time>
      </trkpt>
      <trkpt lat="43.09493" lon="6.02443">
        <ele>8.6528759002686</ele>
        <time>2017-02-27T16:28:59Z</time>
      </trkpt>
      <trkpt lat="43.09487" lon="6.02439">
        <ele>8.2858724594116</ele>
        <time>2017-02-27T16:29:02Z</time>
      </trkpt>
      <trkpt lat="43.09484" lon="6.02435">
        <ele>7.9458932876587</ele>
        <time>2017-02-27T16:29:04Z</time>
      </trkpt>
      <trkpt lat="43.0948" lon="6.02433">
        <ele>7.6918540000916</ele>
        <time>2017-02-27T16:29:06Z</time>
      </trkpt>
      <trkpt lat="43.09475" lon="6.02427">
        <ele>7.4134941101074</ele>
        <time>2017-02-27T16:29:09Z</time>
      </trkpt>
      <trkpt lat="43.09473" lon="6.02423">
        <ele>7.1229538917542</ele>
        <time>2017-02-27T16:29:11Z</time>
      </trkpt>
      <trkpt lat="43.09471" lon="6.02418">
        <ele>6.8509812355042</ele>
        <time>2017-02-27T16:29:13Z</time>
      </trkpt>
      <trkpt lat="43.09468" lon="6.02414">
        <ele>6.566333770752</ele>
        <time>2017-02-27T16:29:15Z</time>
      </trkpt>
      <trkpt lat="43.09464" lon="6.02412">
        <ele>6.254753112793</ele>
        <time>2017-02-27T16:29:17Z</time>
      </trkpt>
      <trkpt lat="43.09457" lon="6.02409">
        <ele>5.9169664382935</ele>
        <time>2017-02-27T16:29:20Z</time>
      </trkpt>
      <trkpt lat="43.09452" lon="6.02409">
        <ele>5.5698337554932</ele>
        <time>2017-02-27T16:29:22Z</time>
      </trkpt>
      <trkpt lat="43.09449" lon="6.02408">
        <ele>5.2188057899475</ele>
        <time>2017-02-27T16:29:24Z</time>
      </trkpt>
      <trkpt lat="43.09446" lon="6.02405">
        <ele>4.8672065734863</ele>
        <time>2017-02-27T16:29:26Z</time>
      </trkpt>
      <trkpt lat="43.0944" lon="6.02402">
        <ele>4.5078973770142</ele>
        <time>2017-02-27T16:29:29Z</time>
      </trkpt>
      <trkpt lat="43.09436" lon="6.02403">
        <ele>4.2049479484558</ele>
        <time>2017-02-27T16:29:31Z</time>
      </trkpt>
      <trkpt lat="43.09428" lon="6.02405">
        <ele>3.8920216560364</ele>
        <time>2017-02-27T16:29:34Z</time>
      </trkpt>
      <trkpt lat="43.09422" lon="6.02405">
        <ele>3.5625069141388</ele>
        <time>2017-02-27T16:29:37Z</time>
      </trkpt>
      <trkpt lat="43.0942" lon="6.02408">
        <ele>3.2964401245117</ele>
        <time>2017-02-27T16:29:39Z</time>
      </trkpt>
      <trkpt lat="43.09416" lon="6.02413">
        <ele>3.0953857898712</ele>
        <time>2017-02-27T16:29:41Z</time>
      </trkpt>
      <trkpt lat="43.09409" lon="6.02417">
        <ele>2.9178812503815</ele>
        <time>2017-02-27T16:29:44Z</time>
      </trkpt>
      <trkpt lat="43.09403" lon="6.02421">
        <ele>2.8138146400452</ele>
        <time>2017-02-27T16:29:47Z</time>
      </trkpt>
      <trkpt lat="43.09397" lon="6.02425">
        <ele>2.7891476154327</ele>
        <time>2017-02-27T16:29:50Z</time>
      </trkpt>
      <trkpt lat="43.09393" lon="6.02428">
        <ele>2.766539812088</ele>
        <time>2017-02-27T16:29:52Z</time>
      </trkpt>
      <trkpt lat="43.09386" lon="6.0243">
        <ele>2.7355568408966</ele>
        <time>2017-02-27T16:29:55Z</time>
      </trkpt>
      <trkpt lat="43.0938" lon="6.02433">
        <ele>2.7030329704285</ele>
        <time>2017-02-27T16:29:58Z</time>
      </trkpt>
      <trkpt lat="43.09375" lon="6.02435">
        <ele>2.656998872757</ele>
        <time>2017-02-27T16:30:00Z</time>
      </trkpt>
      <trkpt lat="43.09368" lon="6.02437">
        <ele>2.567122220993</ele>
        <time>2017-02-27T16:30:03Z</time>
      </trkpt>
      <trkpt lat="43.09364" lon="6.02438">
        <ele>2.4594035148621</ele>
        <time>2017-02-27T16:30:05Z</time>
      </trkpt>
      <trkpt lat="43.0936" lon="6.02441">
        <ele>2.3667416572571</ele>
        <time>2017-02-27T16:30:07Z</time>
      </trkpt>
      <trkpt lat="43.09354" lon="6.02444">
        <ele>2.2817974090576</ele>
        <time>2017-02-27T16:30:10Z</time>
      </trkpt>
      <trkpt lat="43.09348" lon="6.02448">
        <ele>2.2002198696136</ele>
        <time>2017-02-27T16:30:13Z</time>
      </trkpt>
      <trkpt lat="43.09344" lon="6.02456">
        <ele>2.1977927684784</ele>
        <time>2017-02-27T16:30:16Z</time>
      </trkpt>
      <trkpt lat="43.09343" lon="6.02462">
        <ele>2.2635636329651</ele>
        <time>2017-02-27T16:30:18Z</time>
      </trkpt>
      <trkpt lat="43.09341" lon="6.0247">
        <ele>2.4007842540741</ele>
        <time>2017-02-27T16:30:21Z</time>
      </trkpt>
      <trkpt lat="43.09339" lon="6.02475">
        <ele>2.581316947937</ele>
        <time>2017-02-27T16:30:23Z</time>
      </trkpt>
      <trkpt lat="43.09338" lon="6.02481">
        <ele>2.8141150474548</ele>
        <time>2017-02-27T16:30:25Z</time>
      </trkpt>
      <trkpt lat="43.09336" lon="6.02488">
        <ele>3.0585544109344</ele>
        <time>2017-02-27T16:30:28Z</time>
      </trkpt>
      <trkpt lat="43.09332" lon="6.02492">
        <ele>3.2604794502258</ele>
        <time>2017-02-27T16:30:30Z</time>
      </trkpt>
      <trkpt lat="43.09327" lon="6.02497">
        <ele>3.437712430954</ele>
        <time>2017-02-27T16:30:33Z</time>
      </trkpt>
      <trkpt lat="43.09321" lon="6.02503">
        <ele>3.6178462505341</ele>
        <time>2017-02-27T16:30:36Z</time>
      </trkpt>
      <trkpt lat="43.09317" lon="6.02507">
        <ele>3.7681412696838</ele>
        <time>2017-02-27T16:30:38Z</time>
      </trkpt>
      <trkpt lat="43.09313" lon="6.02513">
        <ele>3.8888072967529</ele>
        <time>2017-02-27T16:30:41Z</time>
      </trkpt>
      <trkpt lat="43.09309" lon="6.02516">
        <ele>4.0103611946106</ele>
        <time>2017-02-27T16:30:43Z</time>
      </trkpt>
      <trkpt lat="43.09304" lon="6.02518">
        <ele>4.1026983261108</ele>
        <time>2017-02-27T16:30:45Z</time>
      </trkpt>
      <trkpt lat="43.09298" lon="6.0252">
        <ele>4.1703987121582</ele>
        <time>2017-02-27T16:30:48Z</time>
      </trkpt>
      <trkpt lat="43.09291" lon="6.02522">
        <ele>4.2298231124878</ele>
        <time>2017-02-27T16:30:51Z</time>
      </trkpt>
      <trkpt lat="43.09286" lon="6.02526">
        <ele>4.281973361969</ele>
        <time>2017-02-27T16:30:54Z</time>
      </trkpt>
      <trkpt lat="43.09286" lon="6.02526">
        <ele>4.281973361969</ele>
        <time>2017-02-27T16:31:14Z</time>
      </trkpt>
      <trkpt lat="43.09288" lon="6.02527">
        <ele>4.3350338935852</ele>
        <time>2017-02-27T16:31:16Z</time>
      </trkpt>
      <trkpt lat="43.09288" lon="6.02527">
        <ele>4.3350338935852</ele>
        <time>2017-02-27T16:31:36Z</time>
      </trkpt>
      <trkpt lat="43.09288" lon="6.02527">
        <ele>4.3350338935852</ele>
        <time>2017-02-27T16:31:47Z</time>
      </trkpt>
    </trkseg>
  </trk>
</gpx>